[[{"header":{"parameterUnit":"m.s-1","parameterCategory":1,"la1":31.0,"la2":29.5877,"lo1":-88.7671,"lo2":-86.6584,"dy":0.0162,"dx":0.0185,"nx":115,"ny":88,"refTime":"2023-04-19T06:00:00:Z","depth":0,"parameterNumber":2,"parameterNumberName":"U-component_of_WINDS"},"data":[0.0,0.0,0.0,0.0,0.0,0.0,0.0,0.0,0.0,0.0,0.0,0.0,0.0,0.0,0.0,0.0,0.0,0.0,0.0,0.0,0.0,0.0,0.0,0.0,0.0,0.0,0.0,0.0,0.0,0.0,0.0,0.0,0.0,0.0,0.0,0.0,0.0,0.0,0.0,0.0,0.0,0.0,0.0,0.0,0.0,0.0,0.0,0.0,0.0,0.0,0.0,0.0,0.0,0.0,0.0,0.0,0.0,0.0,0.0,0.0,0.0,0.0,0.0,0.0,0.0,0.0,0.0,0.0,0.0,0.0,0.0,0.0,0.0,0.0,0.0,0.0,0.0,0.0,0.0,0.0,0.0,0.0,0.0,0.0,0.0,0.0,0.0,0.0,0.0,0.0,0.0,0.0,0.0,0.0,0.0,0.0,0.0,0.0,0.0,0.0,0.0,0.0,0.0,0.0,0.0,0.0,0.0,0.0,0.0,0.0,0.0,0.0,0.0,0.0,0.0,0.0,0.0,0.0,0.0,0.0,0.0,0.0,0.0,0.0,0.0,0.0,0.0,0.0,0.0,0.0,0.0,0.0,0.0,0.0,0.0,0.0,0.0,0.0,0.0,0.0,0.0,0.0,0.0,0.0,0.0,0.0,0.0,0.0,0.0,0.0,0.0,0.0,0.0,0.0,0.0,0.0,0.0,0.0,0.0,0.0,0.0,0.0,0.0,0.0,0.0,0.0,0.0,0.0,0.0,0.0,0.0,0.0,0.0,0.0,0.0,0.0,0.0,0.0,0.0,0.0,0.0,0.0,0.0,0.0,0.0,0.0,0.0,0.0,0.0,0.0,0.0,0.0,0.0,0.0,0.0,0.0,0.0,0.0,0.0,0.0,0.0,0.0,0.0,0.0,0.0,0.0,0.0,0.0,0.0,0.0,0.0,0.0,0.0,0.0,0.0,0.0,0.0,0.0,0.0,0.0,0.0,0.0,0.0,0.0,0.0,0.0,0.0,0.0,0.0,0.0,0.0,0.0,0.0,0.0,0.0,0.0,0.0,0.0,0.0,0.0,0.0,0.0,0.0,0.0,0.0,0.0,0.0,0.0,0.0,0.0,0.0,0.0,0.0,0.0,0.0,0.0,0.0,0.0,0.0,0.0,0.0,0.0,0.0,0.0,0.0,0.0,0.0,0.0,0.0,0.0,0.0,0.0,0.0,0.0,0.0,0.0,0.0,0.0,0.0,0.0,0.0,0.0,0.0,0.0,0.0,0.0,0.0,0.0,0.0,0.0,0.0,0.0,0.0,0.0,0.0,0.0,0.0,0.0,0.0,0.0,0.0,0.0,0.0,0.0,0.0,0.0,0.0,0.0,0.0,0.0,0.0,0.0,0.0,0.0,0.0,0.0,0.0,0.0,0.0,0.0,0.0,0.0,0.0,0.0,0.0,0.0,0.0,0.0,0.0,0.0,0.0,0.0,0.0,0.0,0.0,0.0,0.0,0.0,0.0,0.0,0.0,0.0,0.0,0.0,0.0,0.0,0.0,0.0,0.0,0.0,0.0,0.0,0.0,0.0,0.0,0.0,0.0,0.0,0.0,0.0,0.0,0.0,0.0,0.0,0.0,0.0,0.0,0.0,0.0,0.0,0.0,0.0,0.0,0.0,0.0,0.0,0.0,0.0,0.0,0.0,0.0,0.0,0.0,0.0,0.0,0.0,0.0,0.0,0.0,0.0,0.0,0.0,0.0,0.0,0.0,0.0,0.0,0.0,0.0,0.0,0.0,0.0,0.0,0.0,0.0,0.0,0.0,0.0,0.0,0.0,0.0,0.0,0.0,0.0,0.0,0.0,0.0,0.0,0.0,0.0,0.0,0.0,0.0,0.0,0.0,0.0,0.0,0.0,0.0,0.0,0.0,0.0,0.0,0.0,0.0,0.0,0.0,0.0,0.0,0.0,0.0,0.0,0.0,0.0,0.0,0.0,0.0,0.0,0.0,0.0,0.0,0.0,0.0,0.0,0.0,0.0,0.0,0.0,0.0,0.0,0.0,0.0,0.0,0.0,0.0,0.0,0.0,0.0,0.0,0.0,0.0,0.0,0.0,0.0,0.0,0.0,0.0,0.0,0.0,0.0,0.0,0.0,0.0,0.0,0.0,0.0,0.0,0.0,0.0,0.0,0.0,0.0,0.0,0.0,0.0,0.0,0.0,0.0,0.0,0.0,0.0,0.0,0.0,0.0,0.0,0.0,0.0,0.0,0.0,0.0,0.0,0.0,0.0,0.0,0.0,0.0,0.0,0.0,0.0,0.0,0.0,0.0,0.0,0.0,0.0,0.0,0.0,0.0,0.0,0.0,0.0,0.0,0.0,0.0,0.0,0.0,0.0,0.0,0.0,0.0,0.0,0.0,0.0,0.0,0.0,0.0,0.0,0.0,0.0,0.0,0.0,0.0,0.0,0.0,0.0,0.0,0.0,0.0,0.0,0.0,0.0,0.0,0.0,0.0,0.0,0.0,0.0,0.0,0.0,0.0,0.0,0.0,0.0,0.0,0.0,0.0,0.0,0.0,0.0,0.0,0.0,0.0,0.0,0.0,0.0,0.0,0.0,0.0,0.0,0.0,0.0,0.0,0.0,0.0,0.0,0.0,0.0,0.0,0.0,0.0,0.0,0.0,0.0,0.0,0.0,0.0,0.0,0.0,0.0,0.0,0.0,0.0,0.0,0.0,0.0,0.0,0.0,0.0,0.0,0.0,0.0,0.0,0.0,0.0,0.0,0.0,0.0,0.0,0.0,0.0,0.0,0.0,0.0,0.0,0.0,0.0,0.0,0.0,0.0,0.0,0.0,0.0,0.0,0.0,0.0,0.0,0.0,0.0,0.0,0.0,0.0,0.0,0.0,0.0,0.0,0.0,0.0,0.0,0.0,0.0,0.0,0.0,0.0,0.0,0.0,0.0,0.0,0.0,0.0,0.0,0.0,0.0,0.0,0.0,0.0,0.0,0.0,0.0,0.0,0.0,0.0,0.0,0.0,0.0,0.0,0.0,0.0,0.0,0.0,0.0,0.0,0.0,0.0,0.0,0.0,0.0,0.0,0.0,0.0,0.0,0.0,0.0,0.0,0.0,0.0,0.0,0.0,0.0,0.0,0.0,0.0,0.0,0.0,0.0,0.0,0.0,0.0,0.0,0.0,0.0,0.0,0.0,0.0,0.0,0.0,0.0,0.0,0.0,0.0,0.0,0.0,0.0,0.0,0.0,0.0,0.0,0.0,0.0,0.0,0.0,0.0,0.0,0.0,0.0,0.0,0.0,0.0,0.0,0.0,0.0,0.0,0.0,0.0,0.0,0.0,0.0,0.0,0.0,0.0,0.0,0.0,0.0,0.0,0.0,0.0,0.0,0.0,0.0,0.0,0.0,0.0,0.0,0.0,0.0,0.0,0.0,0.0,0.0,0.0,0.0,0.0,0.0,0.0,0.0,0.0,0.0,0.0,0.0,0.0,0.0,0.0,0.0,0.0,0.0,0.0,0.0,0.0,0.0,0.0,0.0,0.0,0.0,0.0,0.0,0.0,0.0,0.0,0.0,0.0,0.0,0.0,0.0,0.0,0.0,0.0,0.0,0.0,0.0,0.0,0.0,0.0,0.0,0.0,0.0,0.0,0.0,0.0,0.0,0.0,0.0,0.0,0.0,0.0,0.0,0.0,0.0,0.0,0.0,0.0,0.0,0.0,0.0,0.0,0.0,0.0,0.0,0.0,0.0,0.0,0.0,0.0,0.0,0.0,0.0,0.0,0.0,0.0,0.0,0.0,0.0,0.0,0.0,0.0,0.0,0.0,0.0,0.0,0.0,0.0,0.0,0.0,0.0,0.0,0.0,0.0,0.0,0.0,0.0,0.0,0.0,0.0,0.0,0.0,0.0,0.0,0.0,0.0,0.0,0.0,0.0,0.0,0.0,0.0,0.0,0.0,0.0,0.0,0.0,0.0,0.0,0.0,0.0,0.0,0.0,0.0,0.0,0.0,0.0,0.0,0.0,0.0,0.0,0.0,0.0,0.0,0.0,0.0,0.0,0.0,0.0,0.0,0.0,0.0,0.0,0.0,0.0,0.0,0.0,0.0,0.0,0.0,0.0,0.0,0.0,0.0,0.0,0.0,0.0,0.0,0.0,0.0,0.0,0.0,0.0,0.0,0.0,0.0,0.0,0.0,0.0,0.0,0.0,0.0,0.0,0.0,0.0,0.0,0.0,0.0,0.0,0.0,0.0,0.0,0.0,0.0,0.0,-4.7602,0.0,0.0,0.0,0.0,0.0,0.0,0.0,0.0,0.0,0.0,0.0,0.0,0.0,0.0,0.0,0.0,0.0,0.0,0.0,0.0,0.0,0.0,0.0,0.0,0.0,0.0,0.0,0.0,0.0,0.0,0.0,0.0,0.0,0.0,0.0,0.0,0.0,0.0,0.0,0.0,0.0,0.0,0.0,0.0,0.0,0.0,0.0,0.0,0.0,0.0,0.0,0.0,0.0,0.0,0.0,0.0,0.0,0.0,0.0,0.0,0.0,0.0,0.0,0.0,0.0,0.0,0.0,0.0,0.0,0.0,0.0,0.0,0.0,0.0,0.0,0.0,0.0,0.0,0.0,0.0,0.0,0.0,0.0,0.0,0.0,0.0,0.0,0.0,0.0,0.0,0.0,0.0,0.0,0.0,0.0,0.0,0.0,0.0,0.0,0.0,0.0,0.0,0.0,0.0,0.0,0.0,0.0,0.0,0.0,0.0,-5.0189,-4.9807,-5.0185,-4.9334,-4.7184,0.0,0.0,0.0,0.0,0.0,0.0,0.0,0.0,0.0,0.0,0.0,0.0,0.0,0.0,0.0,0.0,0.0,0.0,0.0,0.0,0.0,0.0,0.0,0.0,0.0,0.0,0.0,0.0,0.0,0.0,0.0,0.0,0.0,0.0,0.0,0.0,0.0,0.0,0.0,0.0,0.0,0.0,0.0,0.0,0.0,0.0,0.0,0.0,0.0,0.0,0.0,0.0,0.0,0.0,0.0,0.0,0.0,0.0,0.0,0.0,0.0,0.0,0.0,0.0,0.0,0.0,0.0,0.0,0.0,0.0,0.0,0.0,0.0,0.0,0.0,0.0,0.0,0.0,0.0,0.0,0.0,0.0,0.0,0.0,0.0,0.0,0.0,0.0,0.0,0.0,0.0,0.0,0.0,0.0,0.0,0.0,0.0,0.0,0.0,0.0,0.0,0.0,0.0,0.0,0.0,0.0,0.0,0.0,0.0,0.0,0.0,0.0,-5.0099,-4.9106,-4.7207,0.0,0.0,0.0,0.0,0.0,0.0,0.0,0.0,0.0,0.0,0.0,0.0,0.0,0.0,0.0,0.0,0.0,0.0,0.0,0.0,0.0,0.0,0.0,0.0,0.0,0.0,0.0,0.0,0.0,0.0,0.0,0.0,0.0,0.0,0.0,0.0,0.0,0.0,0.0,0.0,0.0,0.0,0.0,0.0,0.0,0.0,0.0,0.0,0.0,0.0,0.0,0.0,0.0,0.0,0.0,0.0,0.0,0.0,0.0,0.0,0.0,0.0,0.0,0.0,0.0,0.0,0.0,0.0,0.0,0.0,0.0,0.0,0.0,0.0,0.0,0.0,0.0,0.0,0.0,0.0,0.0,0.0,0.0,0.0,0.0,0.0,0.0,0.0,0.0,0.0,0.0,0.0,0.0,0.0,0.0,0.0,0.0,0.0,0.0,0.0,0.0,0.0,0.0,0.0,0.0,0.0,0.0,0.0,0.0,0.0,-5.0453,-5.2,-5.1267,0.0,-4.795,0.0,0.0,0.0,0.0,0.0,0.0,0.0,0.0,0.0,0.0,0.0,0.0,0.0,0.0,0.0,0.0,0.0,0.0,0.0,0.0,0.0,0.0,0.0,0.0,0.0,0.0,0.0,0.0,0.0,0.0,0.0,0.0,0.0,0.0,0.0,0.0,0.0,0.0,0.0,0.0,0.0,0.0,0.0,0.0,0.0,0.0,0.0,0.0,0.0,0.0,0.0,0.0,0.0,0.0,0.0,0.0,0.0,0.0,0.0,0.0,0.0,0.0,0.0,0.0,0.0,0.0,0.0,0.0,0.0,0.0,0.0,0.0,0.0,0.0,0.0,0.0,0.0,0.0,0.0,0.0,0.0,0.0,0.0,0.0,0.0,0.0,0.0,0.0,0.0,0.0,0.0,0.0,0.0,0.0,0.0,0.0,0.0,0.0,0.0,0.0,0.0,0.0,0.0,0.0,0.0,0.0,0.0,0.0,0.0,0.0,-5.0158,-5.1333,-4.9868,-4.844,0.0,0.0,0.0,0.0,0.0,0.0,0.0,0.0,0.0,0.0,0.0,0.0,0.0,0.0,0.0,0.0,0.0,0.0,0.0,0.0,0.0,0.0,0.0,0.0,0.0,0.0,0.0,0.0,0.0,0.0,0.0,0.0,0.0,0.0,0.0,0.0,0.0,0.0,0.0,0.0,0.0,0.0,0.0,0.0,0.0,0.0,0.0,0.0,0.0,0.0,0.0,0.0,0.0,0.0,0.0,0.0,0.0,0.0,0.0,0.0,0.0,0.0,0.0,0.0,0.0,0.0,0.0,0.0,0.0,0.0,0.0,0.0,0.0,0.0,0.0,0.0,0.0,0.0,0.0,0.0,0.0,0.0,0.0,0.0,0.0,0.0,0.0,0.0,0.0,0.0,0.0,0.0,0.0,0.0,0.0,0.0,0.0,0.0,0.0,0.0,0.0,0.0,0.0,0.0,0.0,0.0,0.0,0.0,0.0,0.0,-5.0419,-5.0541,-5.1236,-4.9204,-4.7661,-4.6861,0.0,0.0,0.0,0.0,0.0,0.0,0.0,0.0,0.0,0.0,0.0,0.0,0.0,0.0,0.0,0.0,0.0,0.0,0.0,0.0,0.0,0.0,0.0,0.0,0.0,0.0,0.0,0.0,0.0,0.0,0.0,0.0,0.0,0.0,0.0,0.0,0.0,0.0,0.0,0.0,0.0,0.0,0.0,0.0,0.0,0.0,0.0,0.0,0.0,0.0,0.0,0.0,0.0,0.0,0.0,0.0,0.0,0.0,0.0,0.0,0.0,0.0,0.0,0.0,0.0,0.0,0.0,0.0,0.0,0.0,0.0,0.0,0.0,0.0,0.0,0.0,0.0,0.0,0.0,0.0,0.0,0.0,0.0,0.0,0.0,0.0,0.0,0.0,0.0,0.0,0.0,0.0,0.0,0.0,0.0,0.0,0.0,0.0,0.0,0.0,0.0,0.0,0.0,0.0,0.0,0.0,0.0,0.0,-5.3981,-5.2599,-5.2175,-5.2907,-5.0306,-4.8461,0.0,0.0,0.0,0.0,0.0,0.0,0.0,0.0,0.0,0.0,0.0,0.0,0.0,0.0,0.0,0.0,0.0,0.0,0.0,0.0,0.0,0.0,0.0,0.0,0.0,0.0,0.0,0.0,0.0,0.0,0.0,0.0,0.0,0.0,0.0,0.0,0.0,0.0,0.0,0.0,0.0,0.0,0.0,0.0,0.0,0.0,0.0,0.0,0.0,0.0,0.0,0.0,0.0,0.0,0.0,0.0,0.0,0.0,0.0,0.0,0.0,0.0,0.0,0.0,0.0,0.0,0.0,0.0,0.0,0.0,0.0,0.0,0.0,0.0,0.0,0.0,0.0,0.0,0.0,0.0,0.0,0.0,0.0,0.0,0.0,0.0,0.0,0.0,0.0,0.0,0.0,0.0,0.0,0.0,0.0,0.0,0.0,0.0,0.0,0.0,0.0,0.0,0.0,0.0,0.0,0.0,0.0,0.0,0.0,-5.1091,-5.1096,-5.1244,-5.1518,-4.9806,-4.8467,0.0,0.0,0.0,0.0,0.0,0.0,0.0,0.0,0.0,0.0,0.0,0.0,0.0,0.0,0.0,0.0,0.0,0.0,0.0,0.0,0.0,0.0,0.0,0.0,0.0,0.0,0.0,0.0,0.0,0.0,0.0,0.0,0.0,0.0,0.0,0.0,0.0,0.0,0.0,0.0,0.0,0.0,0.0,0.0,0.0,0.0,0.0,0.0,0.0,0.0,0.0,0.0,0.0,0.0,0.0,0.0,0.0,0.0,0.0,0.0,0.0,0.0,0.0,0.0,0.0,0.0,0.0,0.0,0.0,0.0,0.0,0.0,0.0,0.0,0.0,0.0,0.0,0.0,0.0,0.0,0.0,0.0,0.0,0.0,0.0,0.0,0.0,0.0,0.0,0.0,0.0,0.0,0.0,0.0,0.0,0.0,0.0,0.0,0.0,0.0,0.0,0.0,0.0,0.0,0.0,0.0,0.0,0.0,0.0,-5.0439,0.0,-5.1668,-5.1349,-4.9909,-4.8491,0.0,0.0,0.0,0.0,0.0,0.0,0.0,0.0,0.0,0.0,0.0,0.0,0.0,0.0,0.0,0.0,0.0,0.0,0.0,0.0,0.0,0.0,0.0,0.0,0.0,0.0,0.0,0.0,0.0,0.0,0.0,0.0,0.0,0.0,0.0,0.0,0.0,0.0,0.0,0.0,0.0,0.0,0.0,0.0,0.0,0.0,0.0,0.0,0.0,0.0,0.0,0.0,0.0,0.0,0.0,0.0,0.0,0.0,0.0,0.0,0.0,0.0,0.0,0.0,0.0,0.0,0.0,0.0,0.0,0.0,0.0,0.0,0.0,0.0,0.0,0.0,0.0,0.0,0.0,0.0,0.0,0.0,0.0,0.0,0.0,0.0,0.0,0.0,0.0,0.0,0.0,0.0,0.0,0.0,0.0,0.0,0.0,0.0,0.0,0.0,0.0,0.0,0.0,0.0,0.0,0.0,0.0,0.0,-5.0134,-5.2708,-5.3656,-5.3602,-5.2789,-5.0824,-4.8661,0.0,0.0,0.0,0.0,0.0,0.0,0.0,0.0,0.0,0.0,0.0,0.0,0.0,0.0,0.0,0.0,0.0,0.0,0.0,0.0,0.0,0.0,0.0,0.0,0.0,0.0,0.0,0.0,0.0,0.0,0.0,0.0,0.0,0.0,0.0,0.0,0.0,0.0,0.0,0.0,0.0,0.0,0.0,0.0,0.0,0.0,0.0,0.0,0.0,0.0,0.0,0.0,0.0,0.0,0.0,0.0,0.0,0.0,0.0,0.0,0.0,0.0,0.0,0.0,0.0,0.0,0.0,0.0,0.0,0.0,0.0,0.0,0.0,0.0,0.0,0.0,0.0,0.0,0.0,0.0,0.0,0.0,0.0,0.0,0.0,0.0,0.0,0.0,0.0,0.0,0.0,0.0,0.0,0.0,0.0,0.0,0.0,0.0,0.0,0.0,0.0,0.0,0.0,0.0,0.0,0.0,0.0,0.0,0.0,-5.1158,-5.1964,-5.2715,-5.3311,-5.1026,-4.958,0.0,0.0,0.0,0.0,0.0,0.0,0.0,0.0,0.0,0.0,0.0,0.0,0.0,0.0,0.0,0.0,0.0,0.0,0.0,0.0,0.0,0.0,0.0,0.0,0.0,0.0,0.0,0.0,0.0,0.0,0.0,0.0,0.0,0.0,0.0,0.0,0.0,0.0,0.0,0.0,0.0,0.0,0.0,0.0,0.0,0.0,0.0,0.0,0.0,0.0,0.0,0.0,0.0,0.0,0.0,0.0,0.0,0.0,0.0,0.0,0.0,0.0,0.0,0.0,0.0,0.0,0.0,0.0,0.0,0.0,0.0,0.0,0.0,0.0,0.0,0.0,0.0,0.0,0.0,0.0,0.0,0.0,0.0,0.0,0.0,0.0,0.0,0.0,0.0,0.0,0.0,0.0,0.0,0.0,0.0,0.0,0.0,0.0,0.0,0.0,0.0,0.0,0.0,0.0,0.0,0.0,0.0,0.0,0.0,-5.169,-5.2156,-5.2679,-5.3159,-5.1187,-4.9959,-4.9574,0.0,0.0,0.0,0.0,0.0,0.0,0.0,0.0,0.0,0.0,0.0,0.0,0.0,0.0,0.0,0.0,0.0,0.0,0.0,0.0,0.0,0.0,0.0,0.0,0.0,0.0,0.0,0.0,0.0,0.0,0.0,0.0,0.0,0.0,0.0,0.0,0.0,0.0,0.0,0.0,0.0,0.0,0.0,0.0,0.0,0.0,0.0,0.0,0.0,0.0,0.0,0.0,0.0,0.0,0.0,0.0,0.0,0.0,0.0,0.0,0.0,0.0,0.0,0.0,0.0,0.0,0.0,0.0,0.0,0.0,0.0,0.0,0.0,0.0,0.0,0.0,0.0,0.0,0.0,0.0,0.0,0.0,0.0,0.0,0.0,0.0,0.0,0.0,0.0,0.0,0.0,0.0,0.0,0.0,0.0,0.0,0.0,0.0,0.0,0.0,0.0,0.0,0.0,0.0,0.0,0.0,0.0,0.0,-5.3756,-5.3981,-5.3589,-5.2576,-5.1437,-5.0004,0.0,0.0,0.0,0.0,0.0,0.0,0.0,0.0,0.0,0.0,0.0,0.0,0.0,0.0,0.0,0.0,0.0,0.0,0.0,0.0,0.0,0.0,0.0,0.0,0.0,0.0,0.0,0.0,0.0,0.0,0.0,0.0,0.0,0.0,0.0,0.0,0.0,0.0,0.0,0.0,0.0,0.0,0.0,0.0,0.0,0.0,0.0,0.0,0.0,0.0,0.0,0.0,0.0,0.0,0.0,0.0,0.0,0.0,0.0,0.0,0.0,0.0,0.0,0.0,0.0,0.0,0.0,0.0,0.0,0.0,0.0,0.0,0.0,0.0,0.0,0.0,0.0,0.0,0.0,0.0,0.0,0.0,0.0,0.0,0.0,0.0,0.0,0.0,0.0,0.0,0.0,0.0,0.0,0.0,0.0,0.0,0.0,0.0,0.0,0.0,0.0,0.0,0.0,0.0,0.0,0.0,0.0,0.0,0.0,-5.3439,-5.4705,-5.518,-5.4709,-5.2569,-5.0947,0.0,0.0,0.0,0.0,0.0,0.0,0.0,0.0,0.0,0.0,0.0,0.0,0.0,0.0,0.0,0.0,0.0,0.0,0.0,0.0,0.0,0.0,0.0,0.0,0.0,0.0,0.0,0.0,0.0,0.0,0.0,0.0,0.0,0.0,0.0,0.0,0.0,0.0,0.0,0.0,0.0,0.0,0.0,0.0,0.0,0.0,0.0,0.0,0.0,0.0,0.0,0.0,0.0,0.0,0.0,0.0,0.0,0.0,0.0,0.0,0.0,0.0,0.0,0.0,0.0,0.0,0.0,0.0,0.0,0.0,0.0,0.0,0.0,0.0,0.0,0.0,0.0,0.0,0.0,0.0,0.0,0.0,0.0,0.0,0.0,0.0,0.0,0.0,0.0,0.0,0.0,0.0,0.0,0.0,0.0,0.0,0.0,0.0,0.0,0.0,0.0,0.0,0.0,0.0,0.0,0.0,0.0,0.0,-5.3573,-5.4246,-5.5536,-5.611,-5.5935,-5.3622,-5.1697,0.0,0.0,0.0,0.0,0.0,0.0,0.0,0.0,0.0,0.0,0.0,0.0,0.0,0.0,0.0,0.0,0.0,0.0,0.0,0.0,0.0,0.0,0.0,0.0,0.0,0.0,0.0,0.0,0.0,0.0,0.0,0.0,0.0,0.0,0.0,0.0,0.0,0.0,0.0,0.0,0.0,0.0,0.0,0.0,0.0,0.0,0.0,0.0,0.0,0.0,0.0,0.0,0.0,0.0,0.0,0.0,0.0,0.0,0.0,0.0,0.0,0.0,0.0,0.0,0.0,0.0,0.0,0.0,0.0,0.0,0.0,0.0,0.0,0.0,0.0,0.0,0.0,0.0,0.0,0.0,0.0,0.0,0.0,0.0,0.0,0.0,0.0,0.0,0.0,0.0,0.0,0.0,0.0,0.0,0.0,0.0,0.0,0.0,0.0,0.0,0.0,0.0,0.0,0.0,0.0,0.0,0.0,0.0,-5.4396,-5.5489,-5.6273,-5.6523,-5.6168,-5.4417,-5.2156,0.0,0.0,0.0,0.0,0.0,0.0,0.0,0.0,0.0,0.0,0.0,0.0,0.0,0.0,0.0,0.0,0.0,0.0,0.0,0.0,0.0,0.0,0.0,0.0,0.0,0.0,0.0,0.0,0.0,0.0,0.0,0.0,0.0,0.0,0.0,0.0,0.0,0.0,0.0,0.0,0.0,0.0,0.0,0.0,0.0,0.0,0.0,0.0,0.0,0.0,0.0,0.0,0.0,0.0,0.0,0.0,0.0,0.0,0.0,0.0,0.0,0.0,0.0,0.0,0.0,0.0,0.0,0.0,0.0,0.0,0.0,0.0,0.0,0.0,0.0,0.0,0.0,0.0,0.0,0.0,0.0,0.0,0.0,0.0,0.0,0.0,0.0,0.0,0.0,0.0,0.0,0.0,0.0,0.0,0.0,0.0,0.0,0.0,0.0,0.0,0.0,0.0,0.0,0.0,0.0,0.0,0.0,0.0,-5.4538,-5.4984,-5.6437,-5.6509,-5.5009,-5.3826,-5.2101,0.0,0.0,0.0,0.0,0.0,0.0,0.0,0.0,0.0,0.0,0.0,0.0,0.0,0.0,0.0,0.0,0.0,0.0,0.0,0.0,0.0,0.0,0.0,0.0,0.0,0.0,0.0,0.0,0.0,0.0,0.0,0.0,0.0,0.0,0.0,0.0,0.0,0.0,0.0,0.0,0.0,0.0,0.0,0.0,0.0,0.0,0.0,0.0,-5.0545,0.0,0.0,0.0,0.0,0.0,0.0,0.0,0.0,0.0,0.0,0.0,0.0,0.0,0.0,0.0,0.0,0.0,0.0,0.0,0.0,0.0,0.0,0.0,0.0,0.0,0.0,0.0,0.0,0.0,0.0,0.0,0.0,0.0,0.0,0.0,0.0,0.0,0.0,0.0,0.0,0.0,0.0,0.0,0.0,0.0,0.0,0.0,0.0,0.0,0.0,0.0,0.0,0.0,0.0,0.0,0.0,0.0,0.0,0.0,-5.4225,-5.4546,-5.6205,-5.6414,-5.5029,-5.3838,-5.1926,0.0,0.0,0.0,0.0,0.0,0.0,0.0,0.0,0.0,0.0,0.0,0.0,0.0,0.0,0.0,0.0,0.0,0.0,0.0,0.0,0.0,0.0,0.0,0.0,0.0,0.0,0.0,0.0,0.0,0.0,0.0,0.0,0.0,0.0,0.0,0.0,0.0,0.0,0.0,0.0,0.0,0.0,0.0,0.0,0.0,0.0,0.0,0.0,0.0,0.0,0.0,0.0,0.0,0.0,0.0,0.0,0.0,0.0,0.0,0.0,0.0,0.0,0.0,0.0,0.0,0.0,0.0,0.0,0.0,0.0,0.0,0.0,0.0,0.0,0.0,0.0,0.0,0.0,0.0,0.0,0.0,0.0,0.0,0.0,0.0,0.0,0.0,0.0,0.0,0.0,0.0,0.0,0.0,0.0,0.0,0.0,0.0,0.0,0.0,0.0,0.0,0.0,0.0,0.0,0.0,0.0,0.0,-5.248,-5.3682,-5.4158,-5.5659,-5.6035,-5.5115,-5.3804,-5.1495,-4.8151,0.0,0.0,0.0,0.0,0.0,0.0,0.0,0.0,0.0,0.0,0.0,0.0,0.0,0.0,0.0,0.0,0.0,0.0,0.0,0.0,0.0,0.0,0.0,0.0,0.0,0.0,0.0,0.0,0.0,0.0,0.0,0.0,0.0,0.0,0.0,0.0,0.0,0.0,-4.8514,-4.9788,0.0,0.0,0.0,0.0,0.0,0.0,0.0,0.0,-5.0499,0.0,0.0,0.0,0.0,0.0,0.0,0.0,0.0,0.0,0.0,0.0,0.0,0.0,0.0,0.0,0.0,0.0,0.0,0.0,0.0,0.0,0.0,0.0,0.0,0.0,0.0,0.0,0.0,0.0,0.0,0.0,0.0,0.0,0.0,0.0,0.0,0.0,0.0,0.0,0.0,0.0,0.0,0.0,0.0,0.0,0.0,0.0,0.0,0.0,0.0,0.0,0.0,0.0,0.0,0.0,0.0,-4.9295,-5.1728,-5.3243,-5.37,-5.465,-5.4684,-5.3739,-5.252,-5.0533,-4.7799,0.0,0.0,0.0,0.0,0.0,0.0,0.0,0.0,0.0,0.0,0.0,0.0,0.0,0.0,0.0,0.0,0.0,0.0,0.0,0.0,0.0,0.0,0.0,0.0,0.0,0.0,0.0,0.0,0.0,0.0,0.0,0.0,0.0,0.0,0.0,0.0,0.0,0.0,0.0,-5.0316,-5.0348,0.0,0.0,0.0,0.0,0.0,0.0,0.0,0.0,-4.8748,0.0,0.0,0.0,0.0,0.0,0.0,0.0,0.0,0.0,0.0,0.0,0.0,0.0,0.0,0.0,0.0,0.0,0.0,0.0,0.0,0.0,0.0,0.0,0.0,0.0,0.0,0.0,0.0,0.0,0.0,0.0,0.0,0.0,0.0,0.0,0.0,0.0,0.0,0.0,0.0,0.0,0.0,0.0,0.0,0.0,0.0,0.0,0.0,0.0,0.0,0.0,0.0,0.0,0.0,0.0,-4.8545,-5.0585,-5.212,-5.2954,-5.3528,-5.3563,-5.3052,-5.1563,-4.9654,0.0,0.0,0.0,0.0,0.0,0.0,0.0,0.0,0.0,0.0,0.0,0.0,0.0,0.0,0.0,0.0,0.0,0.0,0.0,0.0,0.0,0.0,0.0,0.0,0.0,0.0,0.0,0.0,0.0,0.0,0.0,0.0,0.0,0.0,0.0,0.0,0.0,0.0,0.0,0.0,-5.0044,-4.9978,-5.0056,0.0,0.0,0.0,0.0,0.0,0.0,-4.8397,-4.8565,0.0,0.0,0.0,0.0,0.0,0.0,0.0,0.0,0.0,0.0,0.0,0.0,0.0,0.0,0.0,0.0,0.0,0.0,0.0,0.0,0.0,0.0,0.0,0.0,0.0,0.0,0.0,0.0,0.0,0.0,0.0,0.0,0.0,0.0,0.0,0.0,0.0,0.0,0.0,0.0,0.0,0.0,0.0,0.0,0.0,0.0,0.0,0.0,0.0,0.0,0.0,0.0,0.0,0.0,0.0,-4.7652,-4.9314,-5.0758,-5.1933,-5.2282,-5.2358,-5.2211,-5.0661,-4.8912,0.0,0.0,0.0,0.0,0.0,0.0,0.0,0.0,0.0,0.0,0.0,0.0,0.0,0.0,0.0,0.0,0.0,0.0,0.0,0.0,0.0,0.0,0.0,0.0,0.0,0.0,0.0,0.0,0.0,0.0,0.0,0.0,0.0,0.0,0.0,0.0,0.0,0.0,0.0,0.0,0.0,-4.9591,-4.9854,-4.9273,0.0,0.0,0.0,0.0,-4.8291,-4.8635,0.0,0.0,0.0,0.0,0.0,0.0,0.0,0.0,0.0,0.0,0.0,0.0,0.0,0.0,0.0,0.0,0.0,0.0,0.0,0.0,0.0,0.0,0.0,0.0,0.0,0.0,0.0,0.0,0.0,0.0,0.0,0.0,0.0,0.0,0.0,0.0,0.0,0.0,0.0,0.0,0.0,0.0,0.0,0.0,0.0,0.0,0.0,0.0,0.0,0.0,0.0,0.0,0.0,0.0,0.0,0.0,-4.6666,-4.8049,-4.9331,-5.0543,-5.0809,-5.0809,-5.0639,-4.9759,-4.8438,0.0,0.0,0.0,0.0,0.0,0.0,0.0,0.0,0.0,0.0,0.0,0.0,0.0,0.0,0.0,0.0,0.0,0.0,0.0,0.0,0.0,0.0,0.0,0.0,0.0,0.0,0.0,0.0,0.0,0.0,0.0,0.0,0.0,0.0,0.0,0.0,0.0,0.0,0.0,0.0,0.0,-4.9077,-4.8443,-4.847,-4.8537,0.0,0.0,-4.8265,-4.9037,-4.8811,0.0,0.0,0.0,0.0,0.0,0.0,0.0,0.0,0.0,0.0,0.0,0.0,0.0,0.0,0.0,0.0,0.0,0.0,0.0,0.0,0.0,0.0,0.0,0.0,0.0,0.0,0.0,0.0,0.0,0.0,0.0,0.0,0.0,0.0,0.0,0.0,0.0,0.0,0.0,0.0,0.0,0.0,0.0,0.0,0.0,0.0,0.0,0.0,0.0,0.0,0.0,0.0,0.0,0.0,0.0,-4.4569,-4.5546,-4.6696,-4.8031,-4.9423,-4.9329,-4.9407,-4.9747,-4.856,-4.7266,0.0,0.0,0.0,0.0,0.0,0.0,0.0,0.0,0.0,0.0,0.0,0.0,0.0,0.0,0.0,0.0,0.0,0.0,0.0,0.0,0.0,0.0,0.0,0.0,0.0,0.0,0.0,0.0,0.0,0.0,0.0,0.0,0.0,0.0,0.0,0.0,0.0,0.0,0.0,0.0,0.0,0.0,-4.9181,-4.8593,0.0,0.0,0.0,-4.837,-4.907,0.0,0.0,0.0,0.0,0.0,0.0,0.0,0.0,0.0,0.0,0.0,0.0,0.0,0.0,0.0,0.0,0.0,0.0,0.0,0.0,0.0,0.0,0.0,0.0,0.0,0.0,0.0,0.0,0.0,0.0,0.0,0.0,0.0,0.0,0.0,0.0,0.0,0.0,0.0,0.0,0.0,0.0,0.0,0.0,0.0,0.0,0.0,0.0,0.0,0.0,0.0,0.0,0.0,0.0,0.0,0.0,0.0,-4.4397,-4.513,-4.6322,-4.7863,-4.7688,-4.7919,-4.8564,-4.7358,0.0,0.0,0.0,0.0,0.0,0.0,0.0,0.0,0.0,0.0,0.0,0.0,0.0,0.0,0.0,0.0,0.0,0.0,0.0,0.0,0.0,0.0,0.0,0.0,0.0,0.0,0.0,-4.3429,0.0,0.0,0.0,0.0,0.0,0.0,0.0,0.0,0.0,0.0,0.0,0.0,0.0,0.0,-4.8025,-4.9476,-4.8587,-4.8167,0.0,0.0,-4.8609,-4.929,-4.899,-4.8607,0.0,0.0,0.0,0.0,0.0,0.0,0.0,0.0,0.0,0.0,0.0,0.0,0.0,0.0,0.0,0.0,0.0,0.0,0.0,0.0,0.0,0.0,0.0,0.0,0.0,0.0,0.0,0.0,0.0,0.0,0.0,0.0,0.0,0.0,0.0,0.0,0.0,0.0,0.0,0.0,0.0,0.0,0.0,0.0,0.0,0.0,0.0,0.0,0.0,0.0,0.0,0.0,0.0,0.0,0.0,-4.328,-4.3212,-4.3932,-4.5463,-4.5838,-4.6198,-4.6754,-4.6366,-4.5783,0.0,0.0,0.0,0.0,0.0,0.0,0.0,0.0,0.0,0.0,0.0,0.0,0.0,0.0,0.0,0.0,0.0,0.0,0.0,0.0,0.0,0.0,0.0,0.0,0.0,0.0,0.0,0.0,0.0,0.0,0.0,0.0,0.0,0.0,0.0,0.0,0.0,0.0,0.0,0.0,0.0,-4.735,-4.8133,-4.8137,-4.8341,0.0,0.0,-4.8936,-4.9968,-4.9013,-4.8251,-4.8604,0.0,0.0,0.0,0.0,0.0,0.0,0.0,0.0,0.0,0.0,0.0,0.0,0.0,0.0,0.0,0.0,0.0,0.0,0.0,0.0,0.0,0.0,0.0,0.0,0.0,0.0,0.0,0.0,0.0,0.0,0.0,0.0,0.0,0.0,0.0,0.0,0.0,0.0,0.0,0.0,0.0,0.0,0.0,0.0,0.0,0.0,0.0,0.0,0.0,0.0,0.0,0.0,0.0,-4.1435,-4.2328,-4.226,-4.2749,-4.3761,-4.4053,-4.4338,-4.4627,-4.4495,-4.4118,0.0,0.0,0.0,0.0,0.0,0.0,0.0,0.0,0.0,0.0,0.0,0.0,0.0,0.0,0.0,0.0,0.0,0.0,0.0,0.0,0.0,0.0,0.0,0.0,0.0,0.0,0.0,0.0,-4.2711,-4.2805,-4.3129,0.0,0.0,0.0,0.0,0.0,0.0,0.0,0.0,0.0,0.0,-4.6814,-4.7972,-4.7816,0.0,0.0,-4.848,-4.8463,-4.8953,-4.8372,-4.7773,-4.7553,-4.6696,0.0,0.0,0.0,0.0,0.0,0.0,0.0,0.0,0.0,0.0,0.0,0.0,0.0,0.0,0.0,0.0,0.0,0.0,0.0,0.0,0.0,0.0,0.0,0.0,0.0,0.0,0.0,0.0,0.0,0.0,0.0,0.0,0.0,0.0,0.0,0.0,0.0,0.0,0.0,0.0,0.0,0.0,0.0,0.0,0.0,0.0,0.0,0.0,0.0,0.0,0.0,0.0,-4.0546,-4.1146,-4.1096,-4.1454,-4.216,-4.2412,-4.2632,-4.2858,-4.288,-4.2638,0.0,0.0,0.0,0.0,0.0,0.0,0.0,0.0,0.0,0.0,0.0,0.0,0.0,0.0,0.0,0.0,0.0,0.0,0.0,0.0,0.0,0.0,0.0,0.0,0.0,0.0,0.0,0.0,-4.2381,-4.2476,-4.2744,0.0,0.0,0.0,0.0,0.0,0.0,0.0,0.0,0.0,0.0,-4.618,-4.7469,-4.7301,-4.7263,-4.7843,-4.7715,-4.759,-4.7733,-4.7427,-4.7017,-4.6658,0.0,0.0,0.0,0.0,0.0,0.0,0.0,0.0,0.0,0.0,0.0,0.0,0.0,0.0,0.0,0.0,0.0,0.0,0.0,0.0,0.0,0.0,0.0,0.0,0.0,0.0,0.0,0.0,0.0,0.0,0.0,0.0,0.0,0.0,0.0,0.0,0.0,0.0,0.0,0.0,0.0,0.0,0.0,0.0,0.0,0.0,0.0,0.0,0.0,0.0,0.0,0.0,0.0,-3.9732,-3.9747,-3.9568,-3.9796,-4.0462,-4.0822,-4.1255,-4.1684,-4.1663,-4.1575,-4.1463,0.0,0.0,0.0,0.0,0.0,0.0,0.0,0.0,0.0,0.0,0.0,0.0,0.0,0.0,0.0,0.0,0.0,0.0,0.0,0.0,0.0,0.0,0.0,0.0,0.0,0.0,-4.2109,-4.2286,-4.2413,0.0,0.0,0.0,0.0,0.0,0.0,0.0,0.0,0.0,0.0,-4.4689,-4.5359,-4.6274,-4.6405,-4.6454,-4.6634,-4.6466,-4.6398,-4.6481,-4.6189,-4.5988,0.0,0.0,0.0,0.0,0.0,0.0,0.0,0.0,0.0,0.0,0.0,0.0,0.0,0.0,0.0,0.0,0.0,0.0,0.0,0.0,0.0,0.0,0.0,0.0,0.0,0.0,0.0,-4.1365,-4.1296,0.0,0.0,0.0,0.0,0.0,0.0,0.0,0.0,0.0,0.0,0.0,-3.9816,-3.9697,0.0,0.0,0.0,0.0,0.0,0.0,0.0,0.0,0.0,0.0,0.0,0.0,-3.909,-3.909,-3.8782,-3.8715,-3.892,-3.9084,-3.9358,-3.975,-3.974,-3.9802,-3.9911,0.0,0.0,0.0,0.0,0.0,0.0,0.0,0.0,0.0,0.0,0.0,0.0,0.0,0.0,0.0,0.0,0.0,0.0,0.0,0.0,0.0,0.0,0.0,0.0,0.0,-4.1621,0.0,0.0,0.0,0.0,0.0,0.0,0.0,0.0,0.0,0.0,0.0,-4.2718,-4.3444,-4.3702,-4.4105,-4.4881,-4.5078,-4.5161,0.0,0.0,0.0,0.0,0.0,0.0,0.0,0.0,0.0,0.0,0.0,0.0,0.0,0.0,-4.8118,-4.7357,-4.7222,-4.7105,-4.6829,0.0,0.0,0.0,0.0,0.0,0.0,0.0,0.0,0.0,0.0,0.0,0.0,0.0,0.0,0.0,0.0,-4.0027,0.0,0.0,0.0,0.0,0.0,0.0,0.0,0.0,-3.803,-3.7987,-3.807,-3.8172,-3.8159,0.0,-3.765,-3.7676,0.0,0.0,0.0,0.0,0.0,0.0,0.0,0.0,-3.8225,-3.8136,-3.7834,-3.7658,-3.7696,-3.7734,-3.7886,-3.815,-3.83,-3.8501,-3.8775,-3.8811,-3.8797,0.0,0.0,0.0,0.0,0.0,0.0,0.0,0.0,0.0,0.0,0.0,0.0,0.0,0.0,0.0,0.0,0.0,0.0,0.0,0.0,0.0,0.0,0.0,-4.1189,0.0,0.0,0.0,0.0,0.0,0.0,0.0,0.0,0.0,-4.2012,-4.1948,-4.2091,-4.2471,-4.2823,-4.3191,-4.3671,0.0,0.0,0.0,0.0,0.0,0.0,0.0,-4.3927,-4.3625,-4.4088,-4.4549,-4.457,-4.5465,-4.6131,-4.6038,0.0,0.0,-4.6699,-4.669,-4.6592,-4.6312,-4.6172,-4.6044,-4.5883,-4.5862,-4.5791,0.0,0.0,0.0,0.0,0.0,0.0,0.0,0.0,-3.9176,-3.9309,0.0,-3.9197,0.0,0.0,0.0,0.0,0.0,0.0,0.0,0.0,-3.563,-3.5574,-3.614,-3.6192,-3.6192,-3.6192,-3.6166,-3.6198,-3.6301,-3.6652,0.0,0.0,0.0,0.0,0.0,0.0,-3.712,-3.6897,-3.673,-3.6665,-3.6665,-3.6794,-3.6911,-3.6978,-3.738,-3.7711,-3.8127,-3.8127,-3.8165,-3.8165,-3.8352,0.0,0.0,0.0,0.0,0.0,0.0,0.0,0.0,0.0,0.0,0.0,0.0,0.0,0.0,0.0,0.0,0.0,0.0,0.0,0.0,-4.0765,0.0,0.0,0.0,0.0,0.0,0.0,0.0,0.0,0.0,0.0,-4.1752,-4.167,-4.1522,-4.1323,0.0,0.0,0.0,0.0,-4.2902,-4.3067,-4.28,-4.2586,-4.2539,-4.2679,-4.2771,-4.2785,0.0,0.0,-4.3651,-4.4928,-4.5609,-4.506,-4.5046,-4.5559,-4.7405,-4.7194,-4.6934,-4.7166,-4.611,-4.5473,-4.5929,-4.5459,-4.5228,-3.918,0.0,0.0,0.0,0.0,-3.921,-3.8998,-3.8895,-3.8478,-3.8329,-3.8337,-3.7515,0.0,0.0,0.0,0.0,0.0,0.0,-3.5409,-3.4866,-3.5071,-3.5058,-3.4866,-3.5237,-3.5506,-3.5696,-3.5239,-3.5128,-3.5276,-3.5035,-3.5737,-3.7278,0.0,0.0,0.0,0.0,-3.635,-3.6256,-3.6071,-3.5991,-3.5991,-3.6031,-3.6111,-3.627,-3.6559,-3.6794,-3.712,-3.712,-3.7159,-3.7327,-3.7687,0.0,0.0,0.0,0.0,0.0,0.0,0.0,0.0,0.0,0.0,0.0,0.0,0.0,0.0,0.0,0.0,0.0,0.0,0.0,-3.9758,-3.9915,-4.0071,0.0,0.0,0.0,0.0,0.0,0.0,0.0,0.0,0.0,-4.0771,-4.112,-4.1236,0.0,0.0,-4.1534,-4.1552,-4.1586,-4.1619,-4.1686,0.0,0.0,0.0,-4.1638,-4.1803,-4.2045,-4.2316,-4.2776,-4.3595,-4.3998,-4.4148,-4.3956,-4.4446,-4.5067,-4.5518,-4.562,-4.5438,-4.5027,-4.4773,-4.4373,-4.3617,-4.3496,-4.3567,-3.7579,-3.8165,-3.7702,-3.7564,-3.7679,-3.7844,-3.7871,-3.7829,-3.7895,-3.7871,-3.7725,-3.6518,-3.6033,-3.6069,-3.492,0.0,0.0,0.0,-3.3658,-3.3552,-3.3474,-3.3417,-3.3421,-3.3752,-3.3991,-3.4224,-3.3909,-3.3875,-3.4165,-3.3875,-3.453,-3.6081,0.0,0.0,-3.6048,-3.5601,-3.5345,-3.5263,-3.51,-3.5059,-3.5059,-3.5141,-3.5304,-3.5494,-3.5602,-3.5843,-3.6191,-3.6191,-3.627,-3.6468,-3.6847,-3.7144,0.0,0.0,0.0,0.0,0.0,0.0,0.0,0.0,0.0,0.0,0.0,-3.8449,-3.8323,0.0,0.0,0.0,-3.8449,-3.856,-3.8767,-3.8965,0.0,0.0,0.0,0.0,0.0,0.0,0.0,-3.8522,-3.7892,-3.7803,-3.8912,-3.9512,-4.0044,-4.0593,-4.0796,-4.083,-4.073,0.0,-4.0882,-4.095,-4.1,-4.0907,-4.0758,-4.0932,-4.1156,-4.1258,-4.1739,-4.2254,-4.2703,-4.2969,-4.2993,-4.2851,-4.3331,-4.3755,-4.3424,-4.3639,-4.3929,-4.3892,-4.3812,-4.3429,-4.2389,-4.2195,-4.2168,-3.6034,-3.5888,-3.5585,-3.5322,-3.5183,-3.6321,-3.67,-3.6536,-3.7456,-3.7713,-3.7358,-3.5941,-3.503,-3.4387,-3.2468,0.0,0.0,-3.1123,-3.1125,-3.2157,-3.127,-3.1214,-3.1857,-3.1901,-3.2057,-3.2356,-3.2344,-3.2605,-3.2995,-3.3038,-3.3505,-3.442,-3.4335,-3.4285,-3.4434,-3.4382,-3.4272,-3.4063,-3.4076,-3.4063,-3.4076,-3.4282,-3.4504,-3.4671,-3.4699,-3.492,-3.5344,-3.529,-3.5386,-3.5588,-3.5964,-3.6229,-3.6269,0.0,0.0,0.0,0.0,0.0,0.0,0.0,0.0,0.0,0.0,0.0,0.0,0.0,0.0,0.0,-3.7715,0.0,-3.7667,-3.7818,0.0,0.0,0.0,-3.6773,-3.5791,-3.564,-3.5626,-3.5741,0.0,0.0,-3.6687,0.0,-3.8264,-3.9526,-4.0104,-4.0278,-4.0063,-4.0121,-4.0355,-4.0449,-4.0529,-4.0411,-3.9953,-4.0213,-4.0436,-4.03,-4.0852,-4.1157,-4.1271,-4.1774,-4.1927,-4.1454,-4.1838,-4.2072,-4.1349,-4.1772,-4.2372,-4.3367,-4.3089,-4.2535,-4.2029,-4.1542,-4.1262,-3.4368,-3.3526,-3.346,-3.449,-3.6329,-3.7297,-3.7692,-3.7604,-3.6797,-3.643,-3.6237,-3.4111,-3.2622,-3.1681,-3.0927,-3.0648,-3.0784,-3.0442,-3.0351,-3.0407,-3.0374,-3.0566,-3.0925,-3.1059,-3.1395,-3.1837,-3.2013,-3.2133,-3.2264,-3.2463,-3.2754,-3.3114,-3.3119,-3.3558,-3.4482,-3.4126,-3.3839,-3.381,-3.3797,-3.381,-3.3823,-3.429,-3.4564,-3.4594,-3.4594,-3.4779,-3.5008,-3.4646,-3.4494,-3.4729,-3.5141,-3.5467,-3.5588,-3.575,0.0,0.0,0.0,0.0,0.0,0.0,0.0,0.0,0.0,-3.6861,-3.6679,0.0,-3.694,0.0,-3.6325,-3.5889,-3.5423,-3.5569,0.0,0.0,-3.5589,-3.5481,-3.4934,-3.4219,-3.4145,-3.5218,-3.4545,-3.4447,-3.5654,-3.6466,-3.6981,-3.7172,-3.8427,-3.9146,-3.8625,-3.8583,-3.8601,-3.8699,-3.8745,-3.8623,-3.8583,-3.8711,-3.8898,-3.8834,-3.9067,-3.9201,-3.9234,-3.9786,-4.0164,-4.0036,-4.0418,-4.086,-4.1074,-4.1262,-4.1277,-4.1543,-4.1802,-4.188,-4.1244,-4.0975,-4.0841,-3.2924,-3.2295,-3.2499,-3.3329,-3.4611,-3.6045,-3.6699,-3.6664,-3.622,-3.5863,-3.5453,-3.2654,-3.0815,-2.9792,-2.9195,-2.913,-2.9486,-2.9073,-2.9187,-2.9646,-2.9336,-2.952,-3.0125,-3.0216,-3.0623,-3.1217,-3.1327,-3.1284,-3.1113,-3.1617,-3.1527,-3.1002,-3.1753,-3.2297,-3.2627,-3.3156,-3.367,-3.4121,-3.4134,-3.402,-3.3835,-3.4368,-3.466,-3.466,-3.4616,-3.4748,-3.4968,-3.4448,-3.4367,-3.4813,-3.4962,-3.5055,-3.5154,-3.5237,-3.5256,0.0,0.0,0.0,0.0,0.0,0.0,0.0,0.0,0.0,0.0,0.0,-3.5274,0.0,-3.4427,0.0,-3.3971,-3.4096,-3.4114,-3.3728,-3.3898,-3.3765,-3.307,-3.2485,-3.2455,-3.3237,-3.2719,-3.2748,-3.3834,-3.4586,-3.5018,-3.4953,-3.6029,-3.707,-3.7639,-3.7711,-3.776,-3.7842,-3.7876,-3.791,-3.7962,-3.7867,-3.7809,-3.8116,-3.8244,-3.8277,-3.831,-3.856,-3.8758,-3.8495,-3.8857,-3.9191,-3.9248,-3.9634,-3.9844,-3.9809,-4.0259,-4.0565,-4.0381,-4.028,-4.026,-3.1787,-3.1872,-3.225,-3.2103,-3.1772,-3.3756,-3.462,-3.469,-3.5149,-3.4996,-3.4152,-3.1184,-2.9327,-2.8373,-2.7596,-2.7678,-2.8409,-2.7631,-2.7998,-2.9152,-2.8326,-2.8456,-2.9301,-2.9347,-2.9726,-3.0428,-3.0338,-3.0117,-2.9849,-3.0469,-3.0122,-2.8869,-3.0401,-3.0877,-3.0296,-3.201,-3.3407,-3.45,-3.453,-3.4379,-3.4022,-3.4537,-3.4818,-3.4926,-3.4818,-3.4916,-3.5142,-3.4597,-3.4571,-3.5143,-3.4928,-3.4736,-3.4637,-3.4782,-3.4692,0.0,-3.4092,0.0,0.0,0.0,0.0,0.0,0.0,0.0,0.0,-3.374,-3.3422,-3.2633,-3.2581,-3.2633,-3.2738,-3.2907,-3.2747,-3.209,-3.2125,-3.1889,-3.1089,-3.0949,-3.0986,-3.0986,-3.1024,-3.1259,-3.195,-3.2539,-3.3001,-3.319,-3.3818,-3.4923,-3.6512,-3.689,-3.6992,-3.735,-3.7417,-3.73,-3.7452,-3.714,-3.7021,-3.7552,-3.7646,-3.7737,-3.7676,-3.7725,-3.7572,-3.7073,-3.7307,-3.7437,-3.6801,-3.7608,-3.8226,-3.8399,-3.8898,-3.9355,-3.9614,-3.9692,-3.9651,-3.1787,-3.1777,-3.1859,-3.168,-3.1309,-3.2007,-3.2502,-3.282,-3.226,-3.1167,-2.9693,-2.8715,-2.7953,-2.7458,-2.7135,-2.7081,-2.7214,-2.7262,-2.7452,-2.7726,-2.7678,-2.7904,-2.8269,-2.8524,-2.8964,-2.9574,-2.9071,-2.899,-2.9226,-2.887,-2.8651,-2.8591,-2.9586,-3.0308,-3.0767,0.0,0.0,0.0,-3.3834,-3.4223,-3.4575,-3.5056,-3.5604,-3.6065,-3.5617,0.0,-3.5424,-3.4909,-3.4444,-3.4205,-3.4299,0.0,0.0,0.0,0.0,0.0,0.0,0.0,0.0,0.0,0.0,0.0,-3.2586,-3.2734,-3.2909,-3.2935,-3.262,-3.1863,-3.1798,-3.1578,-3.0958,-3.0944,-3.0906,-3.0764,-3.0789,-3.0788,-3.0749,-3.0736,-3.0811,-3.0986,-3.1024,-3.1048,-3.1235,-3.1857,-3.2296,-3.2331,-3.2923,-3.3739,-3.4758,-3.4966,-3.5173,-3.5735,-3.6034,-3.5959,-3.5962,-3.5987,-3.6054,-3.6146,-3.6273,-3.6383,-3.6429,-3.6398,-3.6415,-3.6186,-3.6125,-3.6285,-3.66,-3.6784,-3.7175,-3.808,-3.8407,-3.8673,-3.9255,-3.9379,-3.9379,-3.1334,0.0,-3.1087,-3.075,0.0,-3.0364,-3.0332,-3.0379,-3.0653,-2.9911,-2.8468,-2.8015,-2.7583,-2.7189,-2.6853,-2.6699,-2.6699,-2.6842,-2.6918,-2.6928,-2.7167,-2.7404,-2.7678,-2.7914,-2.8182,-2.8533,-2.8217,-2.7888,-2.7595,-2.7637,-2.7288,-2.654,-2.7847,-2.8424,-2.8403,-2.9504,-3.0887,-3.2641,-3.3746,-3.4311,-3.4336,-3.4851,-3.514,-3.514,0.0,0.0,0.0,0.0,0.0,0.0,0.0,0.0,0.0,0.0,0.0,-3.179,-3.1752,-3.1637,-3.1396,-3.1371,-3.1244,-3.0977,-3.0964,-3.1224,-3.1757,-3.1486,-3.1099,-3.0726,-3.0701,-3.056,-3.0164,-3.0177,-3.0254,-3.0254,-3.033,-3.0444,-3.0533,-3.0533,-3.0634,-3.0811,-3.0849,-3.0874,-3.0986,-3.1296,-3.1542,-3.1566,-3.1859,-3.2412,-3.3129,-3.3856,-3.4595,-3.5359,-3.5489,-3.5504,-3.5489,-3.5554,-3.5589,-3.5636,-3.5701,-3.5748,-3.578,-3.5765,-3.578,-3.5748,-3.5668,-3.575,-3.6022,-3.6258,-3.66,-3.7235,-3.7879,-3.8351,-3.8772,-3.905,-3.9315,-3.0898,-3.085,-3.0391,-3.0,-2.9639,-2.9131,-2.8682,-2.8398,0.0,0.0,0.0,-2.7822,-2.7382,-2.6931,-2.657,-2.6448,-2.6448,-2.6496,-2.6547,-2.6617,-2.681,-2.7099,-2.7328,-2.7471,-2.7619,-2.7599,-2.7452,-2.689,-2.6001,-2.6538,-2.6054,-2.4785,-2.6091,-2.6607,-2.6177,-2.7799,-2.9624,-3.1544,-3.3212,-3.388,-3.3558,-3.3967,-3.3991,-3.3591,-3.3479,-3.3226,-3.2865,-3.2264,-3.2232,-3.288,-3.2339,-3.1947,-3.1909,-3.1926,-3.1675,-3.116,-3.115,-3.0922,-3.0507,-3.0482,-3.0281,-2.9817,-2.9779,-3.0058,-3.0669,-3.0133,-2.9779,-2.9779,-2.9779,-2.9792,-2.9779,-2.9934,-3.0049,-3.0037,-3.019,-3.0292,-3.033,-3.033,-3.0406,-3.0622,-3.066,-3.0736,-3.0911,-3.0949,-3.0949,-3.1024,-3.1086,-3.1259,-3.2074,-3.3408,-3.4562,-3.5326,-3.5489,-3.5489,-3.5489,-3.5489,-3.5489,-3.5489,-3.5489,-3.5489,-3.5489,-3.5489,-3.5489,-3.5522,-3.5489,-3.5489,-3.5537,-3.5878,-3.6243,-3.6352,-3.7221,-3.8023,-3.8165,-3.8662,-3.9121,-3.0898,-3.085,-3.0391,-3.0156,-3.0049,-2.9258,-2.8672,-2.8291,-2.8504,-2.8104,-2.7202,-2.7143,-2.6682,-2.5928,-2.6082,-2.6149,-2.6197,-2.64,-2.6697,0.0,-2.7049,-2.7207,-2.7452,-2.7511,-2.7416,-2.7235,-2.651,-2.6068,-2.5773,-2.5211,-2.472,-2.4668,-2.5505,-2.6276,-2.6974,-2.8096,-2.8861,-2.9223,-3.0759,-3.1704,-3.2078,-3.216,-3.2218,-3.2242,-3.1762,-3.1646,-3.195,-3.1163,-3.1237,-3.2214,-3.1522,-3.0984,-3.0829,-3.0846,-3.0583,-3.008,-3.0018,-2.998,-2.993,-2.9905,-2.9867,-2.9804,-2.9779,-2.9868,-2.9931,-2.9881,-2.9779,-2.9779,-2.9779,-2.9779,-2.9792,-2.9818,-2.9856,-2.9818,-2.9869,-2.9946,-3.0126,-3.0139,-3.0228,-3.0419,-3.0444,-3.0533,-3.0698,-3.0736,-3.0811,-3.0949,-3.0986,-3.1259,-3.211,-3.3359,-3.4543,-3.5279,-3.5489,-3.5489,-3.5489,-3.5489,-3.5489,-3.5489,-3.5489,-3.5489,-3.5489,-3.5489,-3.5489,-3.5489,-3.5489,-3.5489,-3.5489,-3.5537,-3.5861,-3.6227,-3.6662,-3.692,-3.7413,-3.7994,-3.8606,-3.0898,-3.084,-3.0391,-3.0205,-3.0127,-2.9287,-2.8682,-2.831,-2.8301,-2.7949,-2.7402,-2.7363,-2.6894,-2.6123,-2.6232,-2.6084,-2.5868,-2.6024,-2.6171,-2.6369,-2.6734,-2.7002,-2.7081,-2.7016,-2.688,-2.6624,-2.5796,-2.5259,-2.5073,-2.4711,-2.4507,-2.454,-2.4893,-2.5635,-2.6699,-2.68,-2.7283,-2.8288,-2.9806,-3.0583,-3.0571,-3.0537,-3.0329,-2.9854,-2.9544,-2.9361,-2.9256,-2.8881,-2.8892,-2.9409,-2.9532,-2.9532,-2.9496,-2.9907,-3.0055,-2.9804,-2.9779,-2.9779,-2.9779,-2.9779,-2.9779,-2.9779,-2.9779,-2.9779,-2.9779,-2.9779,-2.9779,-2.9779,-2.9779,-2.9779,-2.9779,-2.9779,-2.9779,-2.9779,-2.9779,-2.983,-2.9895,-2.9934,-3.0011,-3.019,-3.0254,-3.0305,-3.0533,-3.0609,-3.0736,-3.0849,-3.0911,-3.1296,-3.1942,-3.2656,-3.3547,-3.4624,-3.5213,-3.5457,-3.5504,-3.5489,-3.5489,-3.5489,-3.5489,-3.5489,-3.5489,-3.5489,-3.5489,-3.5489,-3.5489,-3.5489,-3.5489,-3.5489,-3.5651,-3.5829,-3.6227,-3.6523,-3.6875,-3.7354,-3.8124,-3.0732,-3.0684,-3.0137,-2.9853,-2.9736,-2.9268,-2.8769,-2.831,-2.8301,-2.8115,-2.7875,-2.7767,-2.7249,-2.6426,-2.6387,-2.6143,-2.5723,-2.5684,-2.5742,-2.5918,-2.6497,-2.6844,-2.6914,-2.6792,-2.6564,-2.6225,-2.5416,-2.4886,-2.4596,-2.4506,-2.4507,-2.4507,-2.4507,-2.5091,-2.6174,-2.5669,-2.6078,-2.7433,-2.8808,-2.9342,-2.8846,-2.8824,-2.8374,-2.7473,-2.7352,-2.7189,-2.6828,-2.6607,-2.67,-2.711,-2.777,-2.8171,-2.8223,-2.9209,-2.9702,-2.9534,-2.9714,-2.9779,-2.9779,-2.9779,-2.9779,-2.9779,-2.9779,-2.9779,-2.9779,-2.9779,-2.9779,-2.9779,-2.9779,-2.9779,-2.9779,-2.9779,-2.9779,-2.9779,-2.9779,-2.9792,-2.9792,-2.9779,-2.9869,-3.0011,-3.0037,-3.0113,-3.0305,-3.0457,-3.0584,-3.0698,-3.0849,-3.1198,-3.17,-3.1978,-3.2635,-3.3512,-3.4457,-3.4953,-3.518,-3.5213,-3.5279,-3.5424,-3.5489,-3.5489,-3.5489,-3.5489,-3.5489,-3.5489,-3.5489,-3.5489,-3.5489,-3.5489,-3.5489,-3.5587,-3.5893,-3.6196,-3.643,-3.6814,-3.7576,-3.0254,-3.0137,-2.9404,-2.8809,-2.8613,-2.9219,-2.9033,-2.834,-2.8301,-2.8281,-2.8184,-2.7894,-2.7249,-2.6455,-2.6396,-2.6172,-2.5703,-2.5684,-2.5937,-2.6318,-2.6758,-2.7096,-2.731,-2.7311,-2.7053,-2.6454,-2.5762,-2.5172,-2.4798,-2.4574,-2.4507,-2.4507,-2.4507,-2.4778,-2.53,-2.5661,-2.5899,-2.6094,-2.7076,-2.7353,-2.6913,-2.6882,-2.6407,-2.5464,-2.5476,-2.5592,-2.5893,-2.5147,-2.5474,-2.6905,-2.7139,-2.7232,-2.7395,-2.8843,-2.9417,-2.8712,-2.9326,-2.9779,-2.9779,-2.9779,-2.9779,-2.9779,-2.9779,-2.9779,-2.9779,-2.9779,-2.9779,-2.9779,-2.9779,-2.9779,-2.9779,-2.9779,-2.9779,-2.9779,-2.9779,-2.9779,-2.9779,-2.9779,-2.983,-2.983,-2.9869,-2.9908,-3.0088,-3.019,-3.0318,-3.0609,-3.0736,-3.0849,-3.1147,-3.1676,-3.2015,-3.2398,-3.2981,-3.3665,-3.4211,-3.4428,-3.4725,-3.5279,-3.5504,-3.5504,-3.5489,-3.5489,-3.5489,-3.5489,-3.5489,-3.5489,-3.5489,-3.5489,-3.5489,-3.5474,-3.5604,-3.5735,-3.6227,-3.6384,-3.6918,-2.9824,-2.9785,-2.9453,-2.9062,-2.8789,-2.9316,-2.9082,-2.832,-2.8301,-2.8301,-2.8271,-2.8105,-2.7568,-2.6768,-2.6758,-2.6387,-2.5703,-2.5684,-2.5781,-2.6064,-2.6699,-2.7063,-2.7135,-2.694,-2.6735,-2.6515,-2.5581,-2.5032,-2.4982,-2.4798,-2.4635,-2.4559,-2.4766,-2.5013,-2.521,-2.5658,-2.593,-2.5896,-2.6563,-2.6506,-2.5896,-2.6041,-2.573,-2.489,-2.4776,-2.4866,-2.4967,-2.4658,-2.4818,-2.5516,-2.6049,-2.6329,-2.6318,-2.7516,-2.8051,-2.7758,-2.8514,-2.926,-2.974,-2.9779,-2.9779,-2.9779,-2.9779,-2.9779,-2.9779,-2.9779,-2.9779,-2.9779,-2.9779,-2.9779,-2.9779,-2.9779,-2.9779,-2.9779,-2.9779,-2.9779,-2.9779,-2.9779,-2.9779,-2.9779,-2.9779,-2.983,-2.9908,-3.0049,-3.0228,-3.0495,-3.0622,-3.0736,-3.0836,-3.1185,-3.1394,-3.1468,-3.1713,-3.2376,-3.3388,-3.4061,-3.438,-3.4758,-3.5213,-3.5504,-3.5457,-3.5489,-3.5489,-3.5489,-3.5489,-3.5489,-3.5489,-3.5489,-3.5489,-3.5459,-3.5115,-3.5076,-3.5708,-3.5545,-3.586,-2.9463,-2.9636,-2.9687,-2.9414,-2.8965,-2.9385,-2.9082,-2.835,-2.8301,-2.8301,-2.8301,-2.8301,-2.7822,-2.709,-2.7012,-2.6553,-2.5762,-2.5684,-2.5752,-2.5986,-2.668,-2.708,-2.7148,-2.6894,-2.6771,-2.6626,-2.5696,-2.5133,-2.5123,-2.4947,-2.4825,-2.4743,-2.5023,-2.5249,-2.5372,-2.5653,-2.5704,-2.5745,-2.6156,-2.5951,-2.5218,-2.5647,-2.5496,-2.4611,-2.4507,-2.4507,-2.4507,-2.4507,-2.4507,-2.454,-2.5348,-2.5663,-2.5505,-2.6494,-2.7191,-2.7516,-2.8131,-2.8882,-2.974,-2.9779,-2.9779,-2.9779,-2.9779,-2.9779,-2.9779,-2.9779,-2.9779,-2.9779,-2.9779,-2.9779,-2.9779,-2.9779,-2.9779,-2.9779,-2.9779,-2.9779,-2.9779,-2.9779,-2.9779,-2.9779,-2.9779,-2.9779,-2.9818,-2.9934,-3.0088,-3.0305,-3.0432,-3.0584,-3.066,-3.0798,-3.0949,-3.0911,-3.0986,-3.1542,-3.2662,-3.3199,-3.3685,-3.4143,-3.4591,-3.5085,-3.5231,-3.5279,-3.5489,-3.5489,-3.5489,-3.5489,-3.5489,-3.5489,-3.5489,-3.5415,-3.513,-3.4906,-3.5497,-3.5073,-3.5249,-2.9189,-2.959,-2.999,-2.9658,-2.8955,-2.9365,-2.9072,-2.8301,-2.8301,-2.8301,-2.8301,-2.8301,-2.7822,-2.706,-2.7031,-2.6543,-2.5762,-2.5684,-2.5937,-2.6309,-2.6768,-2.7226,-2.7617,-2.766,-2.7363,-2.6926,-2.6231,-2.566,-2.5127,-2.5103,-2.5072,-2.5078,-2.5108,-2.5339,-2.5627,-2.5492,-2.5254,-2.532,-2.5734,-2.5466,-2.4771,-2.5625,-2.5562,-2.4598,-2.4518,-2.4528,-2.4507,-2.4507,-2.4507,-2.4507,-2.5295,-2.5421,-2.4818,-2.6121,-2.7342,-2.8183,-2.8371,-2.8791,-2.9534,-2.9702,-2.9702,-2.9753,-2.974,-2.9779,-2.9779,-2.9779,-2.9779,-2.9779,-2.9779,-2.9779,-2.9779,-2.9779,-2.9779,-2.9779,-2.9779,-2.9779,-2.9779,-2.9779,-2.9779,-2.9779,-2.9779,-2.9779,-2.9779,-2.9792,-2.9946,-3.0088,-3.0126,-3.019,-3.0381,-3.0571,-3.0698,-3.0773,-3.0911,-3.1259,-3.1978,-3.247,-3.2741,-3.3129,-3.3802,-3.4346,-3.461,-3.4872,-3.5166,-3.5424,-3.5311,-3.5311,-3.5424,-3.5489,-3.5489,-3.5444,-3.5355,-3.5325,-3.5444,-3.5474,-3.5544,-2.9014,-2.9199,-2.9619,-2.9453,-2.8955,-2.9092,-2.8828,-2.831,-2.8301,-2.8301,-2.8301,-2.8301,-2.7969,-2.7412,-2.7129,-2.6493,-2.5723,-2.5684,-2.583,-2.5966,-2.6416,-2.6846,-2.7187,-2.6982,-2.6943,-2.6885,-2.6241,-2.5669,-2.5315,-2.5292,-2.5199,-2.5157,-2.5404,-2.5504,-2.5484,-2.6104,-2.6054,-2.5283,-2.5862,-2.5691,-2.4645,-2.4916,-2.4784,-2.4138,-2.4656,-2.4807,-2.4507,-2.4507,-2.4507,-2.4507,-2.4818,-2.4818,-2.4615,-2.5073,-2.5841,-2.6648,-2.6771,-2.7139,-2.8011,-2.8633,-2.8961,-2.9,-2.9495,-2.9792,-2.9779,-2.9779,-2.9779,-2.9779,-2.9779,-2.9779,-2.9779,-2.9779,-2.9779,-2.9779,-2.9779,-2.9779,-2.9779,-2.9779,-2.9779,-2.9779,-2.9779,-2.9779,-2.9779,-2.9779,-2.983,-2.9895,-2.9998,-3.0113,-3.019,-3.0368,-3.0533,-3.066,-3.0773,-3.0949,-3.1296,-3.1882,-3.2254,-3.2577,-3.3038,-3.3457,-3.3782,-3.3885,-3.4104,-3.4322,-3.4457,-3.4806,-3.4839,-3.5359,-3.5392,-3.5459,-3.537,-3.534,-3.5429,-3.537,-3.5357,-2.8926,-2.8984,-2.9385,-2.9316,-2.8945,-2.8926,-2.8682,-2.832,-2.8301,-2.8301,-2.8301,-2.8291,-2.8057,-2.7718,-2.7353,-2.6758,-2.5977,-2.5762,-2.5762,-2.5908,-2.625,-2.6611,-2.6924,-2.6719,-2.665,-2.6689,-2.6094,-2.5615,-2.5503,-2.5522,-2.5401,-2.5315,-2.564,-2.562,-2.5521,-2.6227,-2.6098,-2.5411,-2.5839,-2.563,-2.4625,-2.4836,-2.4641,-2.4155,-2.4761,-2.4897,-2.4313,-2.4368,-2.4368,-2.4411,-2.4454,-2.4507,-2.4507,-2.4507,-2.4903,-2.5663,-2.5819,-2.6152,-2.6987,-2.7718,-2.8171,-2.8502,-2.904,-2.9468,-2.9702,-2.9779,-2.9779,-2.9779,-2.9779,-2.9779,-2.9779,-2.9779,-2.9779,-2.9779,-2.9779,-2.9779,-2.9779,-2.9779,-2.9779,-2.9779,-2.9779,-2.9779,-2.9779,-2.9779,-2.9792,-2.9779,-2.9934,-3.0011,-3.0011,-3.019,-3.0343,-3.0508,-3.0546,-3.0685,-3.0898,-3.1296,-3.1566,-3.1859,-3.234,-3.2698,-3.2911,-3.2981,-3.3122,-3.3262,-3.3526,-3.3939,-3.4428,-3.5019,-3.5297,-3.5394,-3.5385,-3.5325,-3.5295,-3.5175,-3.5282,-2.8926,-2.8984,-2.9385,-2.9316,-2.8955,-2.8926,-2.8682,-2.833,-2.8301,-2.8301,-2.8301,-2.8301,-2.8086,-2.7806,-2.7627,-2.7168,-2.6445,-2.6035,-2.6006,-2.626,-2.6309,-2.6562,-2.6934,-2.6846,-2.6641,-2.6377,-2.5908,-2.5684,-2.5674,-2.5664,-2.5644,-2.5684,-2.5683,-2.5703,-2.5713,-2.5879,-2.5683,-2.5409,-2.5693,-2.5409,-2.4639,-2.5344,-2.5248,-2.4316,-2.4741,-2.4686,-2.3837,-2.4067,-2.4196,-2.4206,-2.4378,-2.4507,-2.4454,-2.4497,-2.4861,-2.5547,-2.5746,-2.6152,-2.6823,-2.7028,-2.7476,-2.8051,-2.8435,-2.8791,-2.9456,-2.9663,-2.9702,-2.9792,-2.9779,-2.9779,-2.9779,-2.9779,-2.9779,-2.9779,-2.9779,-2.9779,-2.9779,-2.9779,-2.9779,-2.9779,-2.9779,-2.9779,-2.9779,-2.9779,-2.9779,-2.9792,-2.983,-2.9818,-2.9869,-3.0011,-3.0088,-3.0152,-3.0305,-3.0457,-3.0571,-3.0736,-3.0874,-3.1086,-3.164,-3.2101,-3.2196,-3.2304,-3.2448,-3.2627,-3.2875,-3.3269,-3.3973,-3.4558,-3.5034,-3.5184,-3.5207,-3.5275,-3.5325,-3.531,-3.5419,-2.8926,-2.8975,-2.9385,-2.9316,-2.8945,-2.8926,-2.8672,-2.831,-2.8301,-2.8301,-2.8301,-2.8301,-2.8223,-2.8047,-2.7855,-2.7363,-2.6826,-2.666,-2.6347,-2.6016,-2.5957,-2.6182,-2.6465,-2.6289,-2.6025,-2.5898,-2.5762,-2.5684,-2.5684,-2.5684,-2.5684,-2.5684,-2.5684,-2.5849,-2.6152,-2.6455,-2.6523,-2.6416,-2.625,-2.6025,-2.5693,-2.5194,-2.4712,-2.4359,-2.4264,-2.3935,-2.3359,-2.3711,-2.3937,-2.3927,-2.397,-2.41,-2.4282,-2.4411,-2.4615,-2.4871,-2.4903,-2.4988,-2.5316,-2.5872,-2.6318,-2.673,-2.718,-2.7971,-2.8752,-2.891,-2.9209,-2.9675,-2.9779,-2.9779,-2.9779,-2.9779,-2.9779,-2.9779,-2.9779,-2.9779,-2.9779,-2.9779,-2.9779,-2.9779,-2.9779,-2.9779,-2.9779,-2.9779,-2.9779,-2.9779,-2.9779,-2.9779,-2.983,-2.9856,-2.996,-3.0075,-3.019,-3.0267,-3.0419,-3.0495,-3.0609,-3.0761,-3.1185,-3.1542,-3.1603,-3.1676,-3.1859,-3.2064,-3.2304,-3.2755,-3.3457,-3.4022,-3.4524,-3.4839,-3.4909,-3.5088,-3.5377,-3.5442,-3.5362,-2.8789,-2.8945,-2.9209,-2.917,-2.8935,-2.8926,-2.8682,-2.833,-2.8301,-2.8301,-2.8301,-2.8301,-2.8301,-2.8242,-2.8018,-2.7656,-2.7285,-2.7256,-2.6797,-2.6084,-2.5977,-2.6064,-2.6133,-2.5889,-2.5684,-2.5684,-2.5684,-2.5684,-2.5684,-2.5684,-2.5684,-2.5684,-2.5684,-2.585,-2.6191,-2.6719,-2.6963,-2.6807,-2.6816,-2.6759,-2.6328,-2.5732,-2.5146,-2.4707,-2.4394,-2.3975,-2.3447,-2.3495,-2.358,-2.3677,-2.3754,-2.3884,-2.4067,-2.4239,-2.4368,-2.4411,-2.4454,-2.455,-2.4583,-2.5062,-2.5505,-2.583,-2.6318,-2.718,-2.8091,-2.8251,-2.8474,-2.9546,-2.9495,-2.9456,-2.9714,-2.9779,-2.9779,-2.9779,-2.9779,-2.9779,-2.9779,-2.9779,-2.9779,-2.9779,-2.9779,-2.9779,-2.9779,-2.9779,-2.9779,-2.9779,-2.9779,-2.9779,-2.9779,-2.9779,-2.9895,-2.996,-2.996,-3.0075,-3.0267,-3.0343,-3.0368,-3.0571,-3.0798,-3.1048,-3.1198,-3.1235,-3.1334,-3.1579,-3.1823,-3.2232,-3.2897,-3.3408,-3.3905,-3.4192,-3.4341,-3.4308,-3.4356,-3.4791,-3.4857,-2.8535,-2.8906,-2.8926,-2.8945,-2.8926,-2.8926,-2.8672,-2.833,-2.8301,-2.8301,-2.8301,-2.8301,-2.8301,-2.8301,-2.8242,-2.7998,-2.7767,-2.7748,-2.7236,-2.6631,-2.6445,-2.6328,-2.5801,-2.5703,-2.5684,-2.5684,-2.5684,-2.5684,-2.5684,-2.5684,-2.5684,-2.5684,-2.5684,-2.5723,-2.5966,-2.658,-2.6875,-2.6777,-2.7266,-2.7258,-2.6641,-2.6738,-2.6406,-2.5303,-2.5213,-2.4803,-2.4004,-2.355,-2.3325,-2.346,-2.3624,-2.3754,-2.3841,-2.4024,-2.4163,-2.4196,-2.4411,-2.4454,-2.4497,-2.4583,-2.4903,-2.5505,-2.5704,-2.6442,-2.7678,-2.7476,-2.7689,-2.9091,-2.8803,-2.8752,-2.9417,-2.9624,-2.9663,-2.9779,-2.9779,-2.9779,-2.9779,-2.9779,-2.9779,-2.9779,-2.9779,-2.9779,-2.9779,-2.9779,-2.9779,-2.9779,-2.9779,-2.9779,-2.9779,-2.9779,-2.9779,-2.9818,-2.9856,-2.9934,-3.0088,-3.0075,-3.0152,-3.0343,-3.0533,-3.0685,-3.0874,-3.0949,-3.1024,-3.1198,-3.1408,-3.1809,-3.2196,-3.272,-3.3059,-3.3248,-3.3283,-3.3157,-3.3471,-3.4022,-3.4394,-2.8535,-2.8861,-2.8926,-2.8926,-2.8926,-2.8926,-2.8691,-2.832,-2.8301,-2.8301,-2.8301,-2.8301,-2.8301,-2.8301,-2.8291,-2.8066,-2.7832,-2.7969,-2.7666,-2.7012,-2.7207,-2.668,-2.5869,-2.5693,-2.5703,-2.5713,-2.5703,-2.5684,-2.5684,-2.5693,-2.5684,-2.5684,-2.5684,-2.5849,-2.626,-2.6719,-2.7139,-2.7366,-2.7542,-2.7734,-2.7685,-2.7217,-2.6875,-2.6562,-2.6172,-2.5576,-2.4746,-2.4004,-2.3457,-2.3208,-2.345,-2.359,-2.359,-2.3797,-2.398,-2.4163,-2.4249,-2.4335,-2.4454,-2.4497,-2.4615,-2.4786,-2.4946,-2.5306,-2.6359,-2.6318,-2.6689,-2.7557,-2.7557,-2.7839,-2.8621,-2.8922,-2.917,-2.9663,-2.9779,-2.9779,-2.9779,-2.9779,-2.9779,-2.9779,-2.9779,-2.9779,-2.9779,-2.9779,-2.9779,-2.9779,-2.9779,-2.9779,-2.9779,-2.9779,-2.9779,-2.9779,-2.9818,-2.983,-2.9869,-2.9856,-2.9934,-3.0113,-3.0267,-3.0394,-3.0647,-3.0874,-3.0949,-3.1099,-3.1086,-3.1394,-3.1603,-3.1919,-3.2123,-3.2412,-3.2662,-3.2804,-3.3087,-3.3492,-3.3802,-2.8535,-2.8926,-2.8926,-2.8926,-2.8926,-2.8926,-2.8779,-2.8555,-2.8369,-2.8398,-2.8486,-2.8359,-2.8301,-2.8301,-2.8291,-2.8174,-2.7969,-2.7998,-2.7734,-2.7402,-2.7334,-2.6846,-2.6191,-2.6016,-2.6006,-2.5986,-2.5781,-2.581,-2.5947,-2.5791,-2.5693,-2.5684,-2.5684,-2.5879,-2.6074,-2.6533,-2.6865,-2.71,-2.7295,-2.7598,-2.793,-2.7568,-2.7344,-2.7158,-2.6719,-2.5918,-2.4873,-2.4131,-2.3584,-2.3242,-2.3232,-2.3319,-2.3363,-2.358,-2.3754,-2.3904,-2.398,-2.411,-2.4325,-2.4368,-2.4411,-2.4497,-2.4507,-2.4935,-2.5537,-2.5547,-2.5673,-2.6935,-2.6782,-2.7273,-2.8251,-2.8791,-2.9248,-2.9663,-2.9779,-2.9779,-2.9779,-2.9779,-2.9779,-2.9779,-2.9779,-2.9779,-2.9779,-2.9779,-2.9779,-2.9779,-2.9779,-2.9779,-2.9779,-2.9779,-2.9779,-2.9779,-2.9779,-2.983,-2.983,-2.9818,-2.9818,-2.9972,-3.0088,-3.0203,-3.0432,-3.0685,-3.0761,-3.0836,-3.0874,-3.0949,-3.1147,-3.132,-3.1431,-3.1786,-3.2137,-3.2282,-3.239,-3.2733,-3.3073,-2.8516,-2.8857,-2.8857,-2.8857,-2.8848,-2.8896,-2.8906,-2.8838,-2.8633,-2.8682,-2.8857,-2.8545,-2.8428,-2.8359,-2.834,-2.8281,-2.8252,-2.7891,-2.7787,-2.7549,-2.7412,-2.7021,-2.666,-2.6484,-2.6455,-2.6387,-2.6016,-2.6055,-2.6143,-2.5928,-2.5752,-2.5771,-2.5752,-2.5732,-2.5986,-2.626,-2.6367,-2.6553,-2.6914,-2.7236,-2.7539,-2.749,-2.7432,-2.7324,-2.6768,-2.5879,-2.4922,-2.4228,-2.3799,-2.3276,-2.3159,-2.3144,-2.3144,-2.3363,-2.346,-2.3547,-2.3721,-2.3894,-2.411,-2.4153,-2.4239,-2.4421,-2.4454,-2.4775,-2.5253,-2.502,-2.5189,-2.637,-2.608,-2.6577,-2.7971,-2.904,-2.9534,-2.9702,-2.9779,-2.9779,-2.9779,-2.9779,-2.9779,-2.9779,-2.9779,-2.9779,-2.9779,-2.9779,-2.9779,-2.9779,-2.9779,-2.9779,-2.9779,-2.9779,-2.9779,-2.9779,-2.9779,-2.9779,-2.9779,-2.9779,-2.9779,-2.9856,-2.9972,-3.0088,-3.019,-3.0381,-3.0533,-3.0609,-3.0647,-3.0761,-3.0949,-3.1011,-3.1048,-3.1161,-3.1542,-3.1371,-3.1198,-3.175,-3.2196,-2.835,-2.8437,-2.8428,-2.8428,-2.8486,-2.8769,-2.8916,-2.8935,-2.917,-2.9219,-2.9307,-2.8965,-2.876,-2.874,-2.8467,-2.8301,-2.8262,-2.792,-2.7728,-2.7748,-2.7959,-2.7764,-2.7412,-2.7139,-2.6924,-2.6797,-2.6455,-2.6328,-2.6309,-2.6113,-2.5879,-2.6191,-2.5947,-2.5859,-2.6221,-2.6338,-2.6387,-2.6455,-2.6787,-2.7012,-2.71,-2.7158,-2.7158,-2.7109,-2.666,-2.6123,-2.5537,-2.5029,-2.459,-2.4102,-2.351,-2.3198,-2.3232,-2.3257,-2.3344,-2.3466,-2.3533,-2.3697,-2.3841,-2.3894,-2.4024,-2.4196,-2.4282,-2.4411,-2.47,-2.4658,-2.4658,-2.5031,-2.4903,-2.5673,-2.718,-2.8251,-2.8922,-2.9378,-2.9663,-2.9702,-2.9779,-2.9779,-2.9779,-2.9779,-2.9779,-2.9779,-2.9779,-2.9779,-2.9779,-2.9779,-2.9779,-2.9779,-2.9779,-2.9779,-2.9779,-2.9779,-2.9779,-2.9779,-2.9779,-2.9779,-2.9779,-2.9779,-2.9856,-2.9934,-3.0049,-3.0152,-3.0305,-3.0406,-3.0444,-3.0609,-3.0723,-3.0761,-3.0798,-3.0911,-3.0986,-3.0949,-3.1024,-3.1259,-3.1431,-2.8301,-2.8301,-2.8301,-2.8301,-2.833,-2.8525,-2.874,-2.8887,-2.8926,-2.9199,-2.9421,-2.8916,-2.874,-2.8896,-2.8682,-2.8506,-2.834,-2.8291,-2.8144,-2.8174,-2.8545,-2.876,-2.8613,-2.8262,-2.7978,-2.7402,-2.6885,-2.6787,-2.6816,-2.6582,-2.6434,-2.666,-2.6376,-2.6338,-2.6426,-2.6553,-2.6435,-2.6201,-2.6504,-2.6728,-2.6719,-2.6719,-2.6719,-2.6709,-2.6484,-2.6182,-2.5674,-2.5293,-2.4971,-2.4629,-2.4111,-2.3686,-2.3686,-2.3676,-2.3697,-2.3609,-2.3624,-2.3628,-2.366,-2.3677,-2.3754,-2.3991,-2.4024,-2.4153,-2.4282,-2.4368,-2.4421,-2.4464,-2.4625,-2.5073,-2.6359,-2.7302,-2.8091,-2.8462,-2.8961,-2.9157,-2.926,-2.9546,-2.9779,-2.9779,-2.9779,-2.9779,-2.9779,-2.9779,-2.9779,-2.9779,-2.9779,-2.9779,-2.9779,-2.9779,-2.9779,-2.9779,-2.9779,-2.9779,-2.9779,-2.9779,-2.9779,-2.9779,-2.9818,-2.9818,-2.9895,-2.9998,-3.0113,-3.019,-3.0267,-3.0381,-3.0495,-3.0533,-3.0571,-3.0647,-3.071,-3.0798,-3.0911,-3.1048,-3.1161,-2.8301,-2.8301,-2.8301,-2.8301,-2.8301,-2.8389,-2.8623,-2.8838,-2.8623,-2.9033,-2.9411,-2.8769,-2.8799,-2.8877,-2.8906,-2.8652,-2.8379,-2.8535,-2.8437,-2.8193,-2.876,-2.9082,-2.915,-2.9072,-2.8818,-2.8002,-2.75,-2.7471,-2.7519,-2.7295,-2.6963,-2.706,-2.6992,-2.6865,-2.6728,-2.6699,-2.6572,-2.6103,-2.6172,-2.6367,-2.6426,-2.6435,-2.6435,-2.6426,-2.6406,-2.6172,-2.5732,-2.543,-2.5185,-2.5137,-2.4814,-2.4648,-2.459,-2.4424,-2.4297,-2.3942,-2.3932,-2.3835,-2.3629,-2.3608,-2.3676,-2.3811,-2.3774,-2.3944,-2.4158,-2.4204,-2.4249,-2.4378,-2.454,-2.4861,-2.5704,-2.6442,-2.6935,-2.7313,-2.7931,-2.8291,-2.8581,-2.9131,-2.9209,-2.9779,-2.9779,-2.9779,-2.9779,-2.9779,-2.9779,-2.9779,-2.9779,-2.9779,-2.9779,-2.9779,-2.9779,-2.9779,-2.9779,-2.9779,-2.9779,-2.9779,-2.9779,-2.9779,-2.9779,-2.9779,-2.9779,-2.9856,-2.996,-3.0011,-3.0088,-3.0203,-3.0267,-3.0343,-3.0381,-3.0368,-3.0482,-3.0596,-3.0723,-3.0811,-3.0911,-2.8301,-2.8301,-2.8301,-2.8301,-2.835,-2.8652,-2.8809,-2.8975,-2.9141,-2.947,-2.9558,-2.945,-2.9062,-2.8994,-2.8926,-2.8506,-2.8154,-2.834,-2.8301,-2.8047,-2.8486,-2.8838,-2.9141,-2.9268,-2.9141,-2.9053,-2.8506,-2.8154,-2.7969,-2.7461,-2.7393,-2.7451,-2.7256,-2.7148,-2.7148,-2.6904,-2.6562,-2.6211,-2.6084,-2.6123,-2.6328,-2.6435,-2.6406,-2.6396,-2.6387,-2.6152,-2.5791,-2.5625,-2.5625,-2.5577,-2.5499,-2.545,-2.5255,-2.4824,-2.4482,-2.4336,-2.4268,-2.4108,-2.3849,-2.3751,-2.385,-2.3915,-2.3825,-2.3883,-2.4159,-2.4126,-2.4061,-2.4196,-2.4454,-2.4818,-2.5704,-2.5913,-2.6359,-2.6823,-2.7191,-2.7597,-2.8051,-2.8131,-2.8331,-2.9157,-2.9495,-2.9779,-2.9779,-2.9779,-2.9779,-2.9779,-2.9779,-2.9779,-2.9779,-2.9779,-2.9779,-2.9779,-2.9779,-2.9779,-2.9779,-2.9779,-2.9779,-2.9779,-2.9779,-2.9779,-2.9779,-2.9779,-2.9818,-2.9895,-2.9934,-2.9985,-3.0049,-3.0152,-3.019,-3.0267,-3.033,-3.0444,-3.0482,-3.0571,-3.0647,-2.8301,-2.8301,-2.8301,-2.8301,-2.833,-2.8506,-2.8594,-2.8623,-2.8818,-2.9033,-2.9111,-2.9014,-2.8935,-2.8906,-2.8926,-2.8652,-2.8457,-2.8486,-2.8496,-2.8418,-2.875,-2.9023,-2.9258,-2.9424,-2.9521,-2.9482,-2.9121,-2.8789,-2.8603,-2.8252,-2.7959,-2.791,-2.7754,-2.7695,-2.765,-2.7346,-2.6797,-2.6494,-2.6211,-2.6172,-2.6426,-2.6572,-2.6621,-2.6435,-2.6367,-2.6152,-2.5781,-2.5684,-2.5684,-2.5674,-2.5674,-2.5684,-2.5547,-2.5381,-2.498,-2.4775,-2.457,-2.4365,-2.4102,-2.3965,-2.3912,-2.4199,-2.4012,-2.4048,-2.4153,-2.4127,-2.3994,-2.4041,-2.4196,-2.4487,-2.4903,-2.5052,-2.5348,-2.5684,-2.6133,-2.6648,-2.6976,-2.7069,-2.7678,-2.8422,-2.8661,-2.9079,-2.9779,-2.9779,-2.9779,-2.9779,-2.9779,-2.9779,-2.9779,-2.9779,-2.9779,-2.9779,-2.9779,-2.9779,-2.9779,-2.9779,-2.9779,-2.9779,-2.9779,-2.9779,-2.9779,-2.9779,-2.9779,-2.9818,-2.983,-2.9869,-2.9869,-2.9972,-3.0049,-3.0126,-3.019,-3.0228,-3.0267,-3.0343,-3.0419,-2.8301,-2.8301,-2.8301,-2.8301,-2.831,-2.8389,-2.8437,-2.8418,-2.8457,-2.8662,-2.8838,-2.8623,-2.8603,-2.873,-2.8779,-2.876,-2.8799,-2.876,-2.8701,-2.874,-2.8975,-2.9268,-2.9512,-2.9707,-2.9736,-2.957,-2.9558,-2.9346,-2.8906,-2.8652,-2.8535,-2.8369,-2.832,-2.8203,-2.7861,-2.7816,-2.7256,-2.6875,-2.6523,-2.6533,-2.6719,-2.6934,-2.6943,-2.6572,-2.6504,-2.6289,-2.5752,-2.582,-2.5771,-2.5723,-2.5684,-2.5684,-2.5684,-2.5684,-2.5557,-2.5215,-2.4863,-2.4687,-2.4482,-2.4326,-2.4297,-2.4558,-2.4355,-2.4232,-2.4185,-2.4143,-2.4024,-2.3964,-2.4132,-2.4201,-2.4313,-2.4325,-2.4497,-2.4658,-2.5179,-2.5663,-2.5997,-2.6246,-2.6659,-2.7232,-2.7678,-2.8131,-2.8633,-2.9326,-2.9248,-2.9456,-2.9456,-2.9779,-2.9779,-2.9779,-2.9779,-2.9779,-2.9779,-2.9779,-2.9779,-2.9779,-2.9779,-2.9779,-2.9779,-2.9779,-2.9779,-2.9779,-2.9779,-2.9779,-2.9779,-2.983,-2.9779,-2.9779,-2.9856,-2.9972,-3.0011,-3.0049,-3.0049,-3.0113,-3.019,-2.8301,-2.8301,-2.8301,-2.8301,-2.835,-2.8652,-2.8818,-2.8799,-2.8769,-2.8867,-2.8867,-2.8828,-2.8623,-2.8467,-2.8408,-2.8389,-2.8398,-2.8428,-2.8437,-2.8476,-2.8545,-2.875,-2.8965,-2.9014,-2.9316,-2.9375,-2.9482,-2.9326,-2.8926,-2.8574,-2.8398,-2.8359,-2.8545,-2.8613,-2.8164,-2.81,-2.8031,-2.75,-2.71,-2.709,-2.7454,-2.7529,-2.7334,-2.7021,-2.6846,-2.6553,-2.5908,-2.6016,-2.6064,-2.5762,-2.5693,-2.5684,-2.5684,-2.5684,-2.5684,-2.5664,-2.5566,-2.54,-2.5059,-2.4891,-2.4834,-2.4824,-2.4473,-2.417,-2.4193,-2.4077,-2.3984,-2.4108,-2.4285,-2.4183,-2.3954,-2.412,-2.4206,-2.4282,-2.4529,-2.5094,-2.5463,-2.5348,-2.5726,-2.6091,-2.6577,-2.6823,-2.7151,-2.7971,-2.8673,-2.8922,-2.9209,-2.9456,-2.9495,-2.9287,-2.9209,-2.9079,-2.904,-2.904,-2.9,-2.9118,-2.9209,-2.9365,-2.9546,-2.9585,-2.9573,-2.9534,-2.9779,-2.9779,-2.9792,-2.9792,-2.9779,-2.9779,-2.9779,-2.9818,-2.9895,-2.9856,-2.9818,-2.9908,-3.0112,-2.8301,-2.8301,-2.8301,-2.8301,-2.832,-2.8496,-2.8564,-2.8564,-2.8564,-2.8564,-2.8564,-2.8555,-2.8447,-2.831,-2.8301,-2.8301,-2.8301,-2.8301,-2.8301,-2.8301,-2.831,-2.8398,-2.8594,-2.8779,-2.8994,-2.8906,-2.9023,-2.8935,-2.8672,-2.8623,-2.8564,-2.834,-2.8467,-2.8476,-2.8281,-2.8047,-2.7685,-2.7334,-2.7129,-2.7236,-2.7598,-2.7822,-2.7685,-2.7051,-2.7012,-2.665,-2.626,-2.5918,-2.6113,-2.5918,-2.5918,-2.5684,-2.5684,-2.5684,-2.5684,-2.5684,-2.5674,-2.5567,-2.5449,-2.5225,-2.5234,-2.5361,-2.5039,-2.4844,-2.4463,-2.3932,-2.3619,-2.3541,-2.3781,-2.3843,-2.3777,-2.3851,-2.3937,-2.4034,-2.4161,-2.4399,-2.4774,-2.4625,-2.47,-2.5073,-2.5443,-2.5684,-2.6071,-2.6914,-2.7586,-2.7851,-2.8011,-2.8171,-2.8171,-2.7971,-2.7971,-2.8051,-2.8011,-2.8039,-2.7971,-2.7971,-2.8011,-2.8223,-2.8828,-2.8907,-2.9131,-2.9248,-2.9617,-2.9814,-2.9829,-2.9817,-2.979,-2.9779,-2.9779,-2.9779,-2.9779,-2.9854,-2.9955,-3.0244,-3.0398,-2.8301,-2.8301,-2.8398,-2.8389,-2.833,-2.8506,-2.8564,-2.8457,-2.8476,-2.8467,-2.8418,-2.8369,-2.831,-2.8301,-2.8301,-2.8301,-2.8301,-2.8301,-2.8301,-2.8301,-2.8301,-2.8301,-2.8408,-2.8594,-2.8584,-2.8301,-2.8633,-2.8603,-2.8525,-2.8506,-2.8516,-2.831,-2.8496,-2.8408,-2.8271,-2.8174,-2.793,-2.7539,-2.7461,-2.7519,-2.7666,-2.7803,-2.7461,-2.71,-2.6894,-2.6768,-2.6279,-2.626,-2.6318,-2.6025,-2.5859,-2.5684,-2.5684,-2.5684,-2.5684,-2.5684,-2.5684,-2.5674,-2.5557,-2.5478,-2.5469,-2.5586,-2.5576,-2.5107,-2.4678,-2.3881,-2.3633,-2.3828,-2.3953,-2.3989,-2.3786,-2.3879,-2.3987,-2.4035,-2.3978,-2.4079,-2.4199,-2.4252,-2.4235,-2.4401,-2.4647,-2.4658,-2.5158,-2.5963,-2.6474,-2.6723,-2.6894,-2.7017,-2.7017,-2.6987,-2.7151,-2.7354,-2.7418,-2.7418,-2.7354,-2.7232,-2.711,-2.7201,-2.7847,-2.8253,-2.8469,-2.9133,-2.9766,-2.9858,-2.9818,-2.9978,-3.0066,-2.992,-2.9792,-2.9842,-2.9905,-3.003,-3.0193,-3.0493,-3.0783,-2.8301,-2.832,-2.8721,-2.8643,-2.834,-2.916,-2.9209,-2.8769,-2.8809,-2.8799,-2.8701,-2.8486,-2.8301,-2.8301,-2.8301,-2.8301,-2.8301,-2.8301,-2.8301,-2.8301,-2.8301,-2.8301,-2.834,-2.835,-2.8369,-2.831,-2.8418,-2.8379,-2.831,-2.8359,-2.8369,-2.833,-2.8525,-2.8516,-2.8437,-2.834,-2.8301,-2.8027,-2.7959,-2.7842,-2.7685,-2.749,-2.708,-2.6777,-2.6777,-2.661,-2.5869,-2.6396,-2.6543,-2.5996,-2.5781,-2.5693,-2.5684,-2.5684,-2.5684,-2.5684,-2.5684,-2.5684,-2.5625,-2.5615,-2.5645,-2.5605,-2.54,-2.5146,-2.4902,-2.4998,-2.492,-2.4629,-2.4516,-2.4516,-2.4346,-2.4224,-2.4222,-2.4227,-2.4187,-2.4221,-2.4259,-2.4173,-2.4136,-2.3954,-2.4125,-2.4438,-2.4651,-2.5526,-2.5668,-2.5897,-2.6174,-2.6287,-2.6453,-2.6494,-2.67,-2.6835,-2.6962,-2.6992,-2.6999,-2.6873,-2.6705,-2.6858,-2.7322,-2.7634,-2.7874,-2.8697,-2.9569,-2.9782,-2.9714,-3.0014,-3.0117,-2.9695,-2.9478,-2.9808,-3.0054,-3.0219,-3.0385,-3.061,-3.0988,-2.9072,-2.9101,-2.9258,-2.8926,-2.831,-2.8643,-2.8691,-2.8555,-2.8525,-2.8535,-2.8535,-2.8379,-2.8301,-2.8301,-2.8301,-2.8301,-2.8301,-2.8301,-2.8301,-2.8301,-2.8301,-2.8301,-2.8301,-2.8301,-2.8301,-2.8301,-2.8301,-2.8301,-2.8301,-2.8301,-2.8301,-2.8369,-2.8496,-2.8428,-2.8379,-2.8281,-2.8223,-2.8262,-2.8096,-2.79,-2.8076,-2.792,-2.7607,-2.7246,-2.7266,-2.7285,-2.6973,-2.6689,-2.6611,-2.6387,-2.5927,-2.5752,-2.5684,-2.5684,-2.5684,-2.5684,-2.5684,-2.5684,-2.5684,-2.5684,-2.5684,-2.5596,-2.5352,-2.5078,-2.5088,-2.4883,-2.4707,-2.4629,-2.4746,-2.4707,-2.4463,-2.4333,-2.4366,-2.4425,-2.4447,-2.4405,-2.4381,-2.4307,-2.4272,-2.4291,-2.452,-2.4836,-2.4966,-2.5186,-2.5142,-2.5104,-2.5349,-2.558,-2.578,-2.5843,-2.5979,-2.6142,-2.6207,-2.6145,-2.6112,-2.6161,-2.626,-2.6541,-2.6854,-2.716,-2.7477,-2.8208,-2.8943,-2.923,-2.9463,-2.9444,-2.9369,-2.9093,-2.9077,-2.9246,-2.9878,-3.052,-3.0665,-3.073,-3.0942,-2.9189,-2.9189,-2.9189,-2.8935,-2.8496,-2.8476,-2.8408,-2.8301,-2.831,-2.8301,-2.8301,-2.8301,-2.8301,-2.8301,-2.8301,-2.8301,-2.8301,-2.8301,-2.8301,-2.8301,-2.8301,-2.8301,-2.8301,-2.8301,-2.8301,-2.8301,-2.8301,-2.8301,-2.8301,-2.8301,-2.8301,-2.8301,-2.8301,-2.8301,-2.8232,-2.8057,-2.8008,-2.8125,-2.8076,-2.7861,-2.8115,-2.8037,-2.7832,-2.75,-2.7519,-2.7353,-2.7109,-2.6787,-2.6592,-2.6357,-2.5996,-2.5732,-2.5684,-2.5684,-2.5684,-2.5684,-2.5684,-2.5693,-2.5684,-2.5684,-2.5684,-2.5635,-2.5518,-2.5322,-2.5176,-2.4971,-2.5019,-2.4941,-2.4836,-2.4748,-2.4766,-2.4746,-2.4795,-2.492,-2.4489,-2.4405,-2.4634,-2.4651,-2.4637,-2.4623,-2.486,-2.4921,-2.5022,-2.5149,-2.5358,-2.5225,-2.5268,-2.5357,-2.5294,-2.5231,-2.5029,-2.5187,-2.5387,-2.5223,-2.5114,-2.5669,-2.6197,-2.6195,-2.6512,-2.6813,-2.7233,-2.7944,-2.8519,-2.8911,-2.8978,-2.8841,-2.8795,-2.8807,-2.871,-2.8609,-2.9277,-3.0046,-3.0513,-3.0497,-3.0608,-2.8398,-2.832,-2.8379,-2.8584,-2.8838,-2.8887,-2.8643,-2.832,-2.8301,-2.8301,-2.8301,-2.8301,-2.8301,-2.8301,-2.8301,-2.8301,-2.8301,-2.8301,-2.8301,-2.8301,-2.8301,-2.8301,-2.8301,-2.8301,-2.8301,-2.8301,-2.8301,-2.8301,-2.8301,-2.8301,-2.8301,-2.8301,-2.8301,-2.8291,-2.8281,-2.8281,-2.8281,-2.8281,-2.8242,-2.8066,-2.791,-2.7871,-2.7646,-2.7529,-2.7627,-2.751,-2.7168,-2.6953,-2.6699,-2.622,-2.5908,-2.5693,-2.5684,-2.5684,-2.5684,-2.5684,-2.5723,-2.5732,-2.5713,-2.5703,-2.5723,-2.5693,-2.5605,-2.5605,-2.5615,-2.5577,-2.5479,-2.5323,-2.544,-2.5518,-2.5498,-2.5352,-2.5361,-2.5254,-2.4834,-2.4707,-2.491,-2.5006,-2.4994,-2.5021,-2.4898,-2.4878,-2.4943,-2.5091,-2.5498,-2.5536,-2.5351,-2.523,-2.5104,-2.5075,-2.4983,-2.5181,-2.542,-2.5451,-2.5523,-2.5782,-2.6059,-2.6055,-2.6302,-2.6756,-2.7129,-2.771,-2.8239,-2.8585,-2.8624,-2.8484,-2.8545,-2.8637,-2.8393,-2.8176,-2.8622,-2.9282,-2.9838,-3.0123,-2.9986,-2.9141,-2.9111,-2.8828,-2.8789,-2.8877,-2.8613,-2.8408,-2.831,-2.8301,-2.8301,-2.8301,-2.8301,-2.8301,-2.8301,-2.8301,-2.8301,-2.8301,-2.8301,-2.8301,-2.8301,-2.8301,-2.8301,-2.8301,-2.8301,-2.8301,-2.8301,-2.8301,-2.8301,-2.8301,-2.8301,-2.8301,-2.8301,-2.8301,-2.8301,-2.8291,-2.8301,-2.8291,-2.8291,-2.8281,-2.8213,-2.8096,-2.8057,-2.7978,-2.7803,-2.7969,-2.7842,-2.7451,-2.7256,-2.6797,-2.6416,-2.6083,-2.5713,-2.5713,-2.5713,-2.5703,-2.5781,-2.5928,-2.6162,-2.6172,-2.6152,-2.6016,-2.581,-2.5684,-2.5684,-2.5684,-2.5684,-2.5684,-2.5684,-2.5684,-2.5684,-2.5596,-2.5605,-2.5557,-2.5567,-2.5343,-2.5343,-2.5459,-2.543,-2.54,-2.5468,-2.5398,-2.5443,-2.5508,-2.5407,-2.5658,-2.5791,-2.5635,-2.5486,-2.5364,-2.5558,-2.5585,-2.573,-2.5896,-2.5927,-2.603,-2.6289,-2.6438,-2.6449,-2.6687,-2.7056,-2.7411,-2.7694,-2.7741,-2.8008,-2.8092,-2.8128,-2.8145,-2.8109,-2.7855,-2.7804,-2.8212,-2.8764,-2.9466,-2.9372,-2.8855,-2.9121,-2.9101,-2.8828,-2.8701,-2.8662,-2.8408,-2.8301,-2.8301,-2.8301,-2.8301,-2.8301,-2.8301,-2.8301,-2.8301,-2.8301,-2.8301,-2.8301,-2.8301,-2.8301,-2.8301,-2.8301,-2.8301,-2.8301,-2.8301,-2.8301,-2.8301,-2.8301,-2.8301,-2.8301,-2.8301,-2.8301,-2.8301,-2.8301,-2.8301,-2.8301,-2.8301,-2.8301,-2.8301,-2.8291,-2.8291,-2.8252,-2.8262,-2.8271,-2.8242,-2.8252,-2.8174,-2.79,-2.749,-2.7012,-2.6787,-2.6338,-2.5801,-2.582,-2.5781,-2.5801,-2.6006,-2.6172,-2.6367,-2.6357,-2.6133,-2.5898,-2.5723,-2.5693,-2.5684,-2.5684,-2.5684,-2.5684,-2.5684,-2.5703,-2.5684,-2.5693,-2.5684,-2.5684,-2.5684,-2.5674,-2.5645,-2.5645,-2.5606,-2.5635,-2.5693,-2.5762,-2.5898,-2.5917,-2.5926,-2.5874,-2.5879,-2.5909,-2.5758,-2.5594,-2.5752,-2.5935,-2.6135,-2.6305,-2.6403,-2.6558,-2.6864,-2.6915,-2.6864,-2.7061,-2.7309,-2.7548,-2.7765,-2.7617,-2.7489,-2.7829,-2.7994,-2.766,-2.7502,-2.7593,-2.7541,-2.7584,-2.8258,-2.9048,-2.8757,-2.8109,-2.831,-2.8301,-2.8301,-2.831,-2.8301,-2.835,-2.834,-2.8301,-2.8301,-2.8301,-2.8301,-2.8301,-2.8301,-2.8301,-2.8301,-2.8301,-2.8301,-2.8301,-2.8301,-2.8301,-2.8301,-2.8301,-2.8301,-2.8301,-2.8301,-2.8301,-2.8301,-2.8301,-2.8301,-2.8301,-2.8301,-2.8301,-2.8301,-2.8301,-2.8301,-2.8301,-2.8301,-2.8301,-2.8301,-2.8301,-2.8301,-2.8301,-2.8301,-2.8301,-2.8281,-2.8144,-2.7842,-2.7422,-2.7178,-2.6826,-2.6289,-2.6182,-2.6094,-2.5967,-2.6103,-2.6318,-2.6504,-2.6553,-2.6543,-2.6318,-2.6044,-2.6005,-2.5888,-2.5781,-2.5791,-2.5888,-2.5957,-2.5879,-2.584,-2.5752,-2.5703,-2.5693,-2.5684,-2.5684,-2.5684,-2.5684,-2.5693,-2.5762,-2.581,-2.585,-2.5859,-2.5889,-2.5801,-2.5781,-2.583,-2.5848,-2.5825,-2.5811,-2.5722,-2.5817,-2.6007,-2.6247,-2.651,-2.6822,-2.7055,-2.7204,-2.7334,-2.7272,-2.7206,-2.7392,-2.7614,-2.7914,-2.7862,-2.7852,-2.7914,-2.7924,-2.7903,-2.78,-2.7703,-2.7634,-2.7728,-2.7754,-2.8533,-2.8211,-2.7739,-2.8301,-2.8301,-2.8301,-2.8301,-2.834,-2.8613,-2.8574,-2.831,-2.8301,-2.8301,-2.8301,-2.8301,-2.8301,-2.8301,-2.8301,-2.8301,-2.8301,-2.8301,-2.8301,-2.8301,-2.8301,-2.8301,-2.8301,-2.8301,-2.8301,-2.8301,-2.8301,-2.8301,-2.8301,-2.8301,-2.8301,-2.8301,-2.8301,-2.8301,-2.8301,-2.8301,-2.8301,-2.8301,-2.8301,-2.8301,-2.8301,-2.8301,-2.8301,-2.8301,-2.8301,-2.8164,-2.8008,-2.7646,-2.7471,-2.7324,-2.6641,-2.6348,-2.6309,-2.6299,-2.6465,-2.7197,-2.7314,-2.7356,-2.7327,-2.7158,-2.6904,-2.6551,-2.6541,-2.6435,-2.6396,-2.6377,-2.6435,-2.6289,-2.6182,-2.6143,-2.5986,-2.5859,-2.5879,-2.5908,-2.5888,-2.584,-2.5947,-2.6113,-2.6152,-2.6182,-2.6182,-2.5996,-2.5898,-2.5732,-2.5781,-2.5732,-2.5781,-2.5829,-2.5943,-2.6012,-2.6111,-2.636,-2.6815,-2.717,-2.7225,-2.7359,-2.7569,-2.7717,-2.7565,-2.7627,-2.8061,-2.8278,-2.8175,-2.8175,-2.8297,-2.8359,-2.84,-2.8255,-2.8059,-2.8235,-2.8317,-2.8059,-2.7852,-2.781,-2.7893,-2.8301,-2.8301,-2.8301,-2.8301,-2.833,-2.8564,-2.8506,-2.834,-2.8457,-2.8467,-2.8301,-2.8301,-2.8301,-2.8301,-2.8301,-2.8301,-2.8301,-2.8301,-2.8301,-2.8301,-2.8301,-2.8301,-2.8301,-2.8301,-2.8301,-2.8301,-2.8301,-2.8301,-2.8301,-2.8301,-2.8301,-2.8301,-2.8301,-2.8301,-2.8301,-2.8301,-2.8301,-2.8301,-2.8301,-2.8301,-2.8301,-2.8301,-2.8301,-2.8301,-2.8301,-2.8301,-2.8242,-2.7891,-2.7773,-2.7754,-2.709,-2.6768,-2.6826,-2.6943,-2.6992,-2.7588,-2.766,-2.764,-2.7601,-2.7383,-2.7236,-2.7158,-2.7187,-2.7139,-2.6982,-2.6914,-2.6816,-2.668,-2.6631,-2.6543,-2.6309,-2.6074,-2.6142,-2.621,-2.6182,-2.6103,-2.6279,-2.6494,-2.6562,-2.6592,-2.6475,-2.626,-2.6074,-2.583,-2.5781,-2.5996,-2.6133,-2.6251,-2.635,-2.6486,-2.6445,-2.6582,-2.7099,-2.7569,-2.7576,-2.7543,-2.7696,-2.7838,-2.7737,-2.787,-2.8408,-2.8663,-2.8582,-2.8631,-2.868,-2.8702,-2.8774,-2.8599,-2.8514,-2.8721,-2.8825,-2.8597,-2.84,-2.8328,-2.8473,-2.8232,-2.8232,-2.8242,-2.8242,-2.8301,-2.8359,-2.8359,-2.835,-2.8701,-2.8672,-2.835,-2.8301,-2.8301,-2.8301,-2.8301,-2.8301,-2.8301,-2.8301,-2.8301,-2.8301,-2.8301,-2.8301,-2.8301,-2.8301,-2.8301,-2.8301,-2.8301,-2.8301,-2.8301,-2.8301,-2.8301,-2.8301,-2.8301,-2.8301,-2.8301,-2.8301,-2.8301,-2.8301,-2.8301,-2.8301,-2.8301,-2.8301,-2.8301,-2.8301,-2.8301,-2.8291,-2.8203,-2.8047,-2.7881,-2.7871,-2.7676,-2.7305,-2.7422,-2.7601,-2.7669,-2.7796,-2.7865,-2.7822,-2.7764,-2.7588,-2.7402,-2.7373,-2.7471,-2.7607,-2.7559,-2.7461,-2.7334,-2.7139,-2.706,-2.6924,-2.6709,-2.6543,-2.6543,-2.6582,-2.6553,-2.6543,-2.666,-2.6875,-2.7031,-2.7041,-2.6943,-2.6699,-2.6309,-2.6123,-2.6152,-2.6318,-2.6475,-2.6602,-2.6771,-2.6862,-2.6843,-2.6864,-2.7342,-2.7794,-2.7673,-2.7693,-2.7885,-2.7895,-2.7834,-2.8168,-2.8686,-2.8901,-2.9003,-2.8932,-2.8901,-2.9044,-2.9044,-2.8992,-2.8982,-2.9208,-2.9249,-2.9094,-2.897,-2.8897,-2.9021,-2.7875,-2.7875,-2.7865,-2.7988,-2.832,-2.8633,-2.8574,-2.834,-2.874,-2.8672,-2.835,-2.8301,-2.8301,-2.8301,-2.8301,-2.8301,-2.8301,-2.8301,-2.8301,-2.8301,-2.8301,-2.8301,-2.8301,-2.8301,-2.8301,-2.8301,-2.8301,-2.8301,-2.8301,-2.8301,-2.8301,-2.8301,-2.8301,-2.8301,-2.8301,-2.8301,-2.8301,-2.8301,-2.8301,-2.8301,-2.8301,-2.8301,-2.8301,-2.8301,-2.8301,-2.8301,-2.8242,-2.8223,-2.8174,-2.8154,-2.7783,-2.7617,-2.7699,-2.7728,-2.7894,-2.8057,-2.8096,-2.8086,-2.8047,-2.793,-2.7861,-2.79,-2.8037,-2.8096,-2.8096,-2.8018,-2.7871,-2.7637,-2.7451,-2.7295,-2.7148,-2.7012,-2.6924,-2.6953,-2.6953,-2.7002,-2.7051,-2.7275,-2.7542,-2.7451,-2.7393,-2.706,-2.665,-2.6494,-2.6533,-2.6641,-2.6797,-2.6943,-2.7109,-2.7231,-2.7282,-2.7304,-2.7677,-2.7918,-2.786,-2.787,-2.8061,-2.8063,-2.8024,-2.8406,-2.8913,-2.9017,-2.9039,-2.9088,-2.9088,-2.9133,-2.9259,-2.9413,-2.9486,-2.9549,-2.9611,-2.9405,-2.9508,-2.9487,-2.9653,-2.7383,-2.7402,-2.7588,-2.7963,-2.8301,-2.8545,-2.8496,-2.8369,-2.8545,-2.8516,-2.831,-2.8301,-2.8301,-2.8301,-2.8301,-2.8301,-2.8301,-2.8301,-2.8301,-2.8301,-2.8301,-2.8301,-2.8301,-2.8301,-2.8301,-2.8301,-2.8301,-2.8301,-2.8301,-2.8301,-2.8301,-2.8301,-2.8301,-2.8301,-2.8301,-2.8301,-2.8301,-2.8301,-2.8301,-2.8301,-2.8301,-2.8301,-2.8301,-2.8301,-2.8301,-2.8301,-2.8301,-2.8301,-2.8291,-2.8271,-2.8037,-2.7978,-2.7978,-2.7988,-2.8066,-2.8203,-2.8271,-2.8301,-2.8301,-2.8301,-2.8301,-2.8301,-2.8291,-2.8232,-2.8232,-2.8154,-2.8144,-2.7949,-2.7939,-2.7803,-2.7685,-2.7549,-2.7578,-2.7607,-2.749,-2.7432,-2.7598,-2.7822,-2.793,-2.792,-2.7764,-2.7451,-2.709,-2.6855,-2.6924,-2.7158,-2.7295,-2.7441,-2.7578,-2.7598,-2.7617,-2.7699,-2.7963,-2.8114,-2.8094,-2.8157,-2.8278,-2.8232,-2.8167,-2.8416,-2.8757,-2.8966,-2.9122,-2.9049,-2.9049,-2.9134,-2.9313,-2.9396,-2.9396,-2.9347,-2.9535,-2.9713,-2.9847,-2.9931,-2.9941,-2.6973,-2.707,-2.7422,-2.7812,-2.8203,-2.8281,-2.8301,-2.8301,-2.8301,-2.831,-2.8301,-2.8301,-2.8301,-2.8301,-2.8301,-2.8301,-2.8301,-2.8301,-2.8301,-2.8301,-2.8301,-2.8301,-2.8301,-2.8301,-2.8301,-2.8301,-2.8301,-2.8301,-2.8301,-2.8301,-2.8301,-2.8301,-2.8301,-2.8301,-2.8301,-2.8301,-2.8301,-2.8301,-2.8301,-2.8301,-2.8301,-2.8301,-2.8301,-2.8301,-2.8301,-2.8301,-2.8301,-2.8301,-2.8301,-2.8281,-2.8252,-2.8223,-2.8213,-2.8193,-2.8223,-2.8301,-2.8301,-2.8301,-2.8301,-2.8301,-2.8301,-2.8301,-2.8301,-2.8301,-2.8301,-2.8291,-2.8281,-2.8271,-2.8262,-2.8213,-2.8096,-2.8047,-2.8086,-2.8096,-2.793,-2.7875,-2.8047,-2.8242,-2.8242,-2.8252,-2.8047,-2.7754,-2.751,-2.7266,-2.7393,-2.7679,-2.7812,-2.7998,-2.8096,-2.8018,-2.7978,-2.7998,-2.8163,-2.8207,-2.8266,-2.83,-2.8323,-2.8304,-2.8272,-2.8396,-2.8568,-2.8717,-2.8814,-2.8867,-2.892,-2.892,-2.8983,-2.9036,-2.9079,-2.9152,-2.9536,-2.9746,-2.9634,-2.9727,-2.9947,-2.6709,-2.7031,-2.7109,-2.7393,-2.7855,-2.8144,-2.8301,-2.8301,-2.8301,-2.8301,-2.8301,-2.8301,-2.8301,-2.8301,-2.8301,-2.8301,-2.8301,-2.8301,-2.8301,-2.8301,-2.8301,-2.8301,-2.8301,-2.8301,-2.8301,-2.8301,-2.8301,-2.8301,-2.8301,-2.8301,-2.8301,-2.8301,-2.8301,-2.8301,-2.8301,-2.8301,-2.8301,-2.8301,-2.8301,-2.8301,-2.8301,-2.8301,-2.8301,-2.8301,-2.8301,-2.8301,-2.8301,-2.8301,-2.8301,-2.8301,-2.8301,-2.8301,-2.8301,-2.8301,-2.8301,-2.8301,-2.8301,-2.8301,-2.8301,-2.8301,-2.8301,-2.8301,-2.8301,-2.8301,-2.8301,-2.8291,-2.8291,-2.8291,-2.8281,-2.8281,-2.8203,-2.8203,-2.8232,-2.8232,-2.8135,-2.8125,-2.8232,-2.8271,-2.8281,-2.8281,-2.8213,-2.7959,-2.7777,-2.7646,-2.7783,-2.8012,-2.8008,-2.8174,-2.8223,-2.8262,-2.8301,-2.8301,-2.8301,-2.8291,-2.8271,-2.8262,-2.8305,-2.8281,-2.8301,-2.8354,-2.8408,-2.8344,-2.8451,-2.8601,-2.8611,-2.8558,-2.8611,-2.8771,-2.8937,-2.906,-2.9511,-2.9762,-2.9621,-2.9695,-3.0028]},{"header":{"parameterUnit":"m.s-1","parameterCategory":1,"la1":31.0,"la2":29.5877,"lo1":-88.7671,"lo2":-86.6584,"dy":0.0162,"dx":0.0185,"nx":115,"ny":88,"refTime":"2023-04-19T06:00:00:Z","depth":0,"parameterNumber":3,"parameterNumberName":"V-component_of_WINDS"},"data":[0.0,0.0,0.0,0.0,0.0,0.0,0.0,0.0,0.0,0.0,0.0,0.0,0.0,0.0,0.0,0.0,0.0,0.0,0.0,0.0,0.0,0.0,0.0,0.0,0.0,0.0,0.0,0.0,0.0,0.0,0.0,0.0,0.0,0.0,0.0,0.0,0.0,0.0,0.0,0.0,0.0,0.0,0.0,0.0,0.0,0.0,0.0,0.0,0.0,0.0,0.0,0.0,0.0,0.0,0.0,0.0,0.0,0.0,0.0,0.0,0.0,0.0,0.0,0.0,0.0,0.0,0.0,0.0,0.0,0.0,0.0,0.0,0.0,0.0,0.0,0.0,0.0,0.0,0.0,0.0,0.0,0.0,0.0,0.0,0.0,0.0,0.0,0.0,0.0,0.0,0.0,0.0,0.0,0.0,0.0,0.0,0.0,0.0,0.0,0.0,0.0,0.0,0.0,0.0,0.0,0.0,0.0,0.0,0.0,0.0,0.0,0.0,0.0,0.0,0.0,0.0,0.0,0.0,0.0,0.0,0.0,0.0,0.0,0.0,0.0,0.0,0.0,0.0,0.0,0.0,0.0,0.0,0.0,0.0,0.0,0.0,0.0,0.0,0.0,0.0,0.0,0.0,0.0,0.0,0.0,0.0,0.0,0.0,0.0,0.0,0.0,0.0,0.0,0.0,0.0,0.0,0.0,0.0,0.0,0.0,0.0,0.0,0.0,0.0,0.0,0.0,0.0,0.0,0.0,0.0,0.0,0.0,0.0,0.0,0.0,0.0,0.0,0.0,0.0,0.0,0.0,0.0,0.0,0.0,0.0,0.0,0.0,0.0,0.0,0.0,0.0,0.0,0.0,0.0,0.0,0.0,0.0,0.0,0.0,0.0,0.0,0.0,0.0,0.0,0.0,0.0,0.0,0.0,0.0,0.0,0.0,0.0,0.0,0.0,0.0,0.0,0.0,0.0,0.0,0.0,0.0,0.0,0.0,0.0,0.0,0.0,0.0,0.0,0.0,0.0,0.0,0.0,0.0,0.0,0.0,0.0,0.0,0.0,0.0,0.0,0.0,0.0,0.0,0.0,0.0,0.0,0.0,0.0,0.0,0.0,0.0,0.0,0.0,0.0,0.0,0.0,0.0,0.0,0.0,0.0,0.0,0.0,0.0,0.0,0.0,0.0,0.0,0.0,0.0,0.0,0.0,0.0,0.0,0.0,0.0,0.0,0.0,0.0,0.0,0.0,0.0,0.0,0.0,0.0,0.0,0.0,0.0,0.0,0.0,0.0,0.0,0.0,0.0,0.0,0.0,0.0,0.0,0.0,0.0,0.0,0.0,0.0,0.0,0.0,0.0,0.0,0.0,0.0,0.0,0.0,0.0,0.0,0.0,0.0,0.0,0.0,0.0,0.0,0.0,0.0,0.0,0.0,0.0,0.0,0.0,0.0,0.0,0.0,0.0,0.0,0.0,0.0,0.0,0.0,0.0,0.0,0.0,0.0,0.0,0.0,0.0,0.0,0.0,0.0,0.0,0.0,0.0,0.0,0.0,0.0,0.0,0.0,0.0,0.0,0.0,0.0,0.0,0.0,0.0,0.0,0.0,0.0,0.0,0.0,0.0,0.0,0.0,0.0,0.0,0.0,0.0,0.0,0.0,0.0,0.0,0.0,0.0,0.0,0.0,0.0,0.0,0.0,0.0,0.0,0.0,0.0,0.0,0.0,0.0,0.0,0.0,0.0,0.0,0.0,0.0,0.0,0.0,0.0,0.0,0.0,0.0,0.0,0.0,0.0,0.0,0.0,0.0,0.0,0.0,0.0,0.0,0.0,0.0,0.0,0.0,0.0,0.0,0.0,0.0,0.0,0.0,0.0,0.0,0.0,0.0,0.0,0.0,0.0,0.0,0.0,0.0,0.0,0.0,0.0,0.0,0.0,0.0,0.0,0.0,0.0,0.0,0.0,0.0,0.0,0.0,0.0,0.0,0.0,0.0,0.0,0.0,0.0,0.0,0.0,0.0,0.0,0.0,0.0,0.0,0.0,0.0,0.0,0.0,0.0,0.0,0.0,0.0,0.0,0.0,0.0,0.0,0.0,0.0,0.0,0.0,0.0,0.0,0.0,0.0,0.0,0.0,0.0,0.0,0.0,0.0,0.0,0.0,0.0,0.0,0.0,0.0,0.0,0.0,0.0,0.0,0.0,0.0,0.0,0.0,0.0,0.0,0.0,0.0,0.0,0.0,0.0,0.0,0.0,0.0,0.0,0.0,0.0,0.0,0.0,0.0,0.0,0.0,0.0,0.0,0.0,0.0,0.0,0.0,0.0,0.0,0.0,0.0,0.0,0.0,0.0,0.0,0.0,0.0,0.0,0.0,0.0,0.0,0.0,0.0,0.0,0.0,0.0,0.0,0.0,0.0,0.0,0.0,0.0,0.0,0.0,0.0,0.0,0.0,0.0,0.0,0.0,0.0,0.0,0.0,0.0,0.0,0.0,0.0,0.0,0.0,0.0,0.0,0.0,0.0,0.0,0.0,0.0,0.0,0.0,0.0,0.0,0.0,0.0,0.0,0.0,0.0,0.0,0.0,0.0,0.0,0.0,0.0,0.0,0.0,0.0,0.0,0.0,0.0,0.0,0.0,0.0,0.0,0.0,0.0,0.0,0.0,0.0,0.0,0.0,0.0,0.0,0.0,0.0,0.0,0.0,0.0,0.0,0.0,0.0,0.0,0.0,0.0,0.0,0.0,0.0,0.0,0.0,0.0,0.0,0.0,0.0,0.0,0.0,0.0,0.0,0.0,0.0,0.0,0.0,0.0,0.0,0.0,0.0,0.0,0.0,0.0,0.0,0.0,0.0,0.0,0.0,0.0,0.0,0.0,0.0,0.0,0.0,0.0,0.0,0.0,0.0,0.0,0.0,0.0,0.0,0.0,0.0,0.0,0.0,0.0,0.0,0.0,0.0,0.0,0.0,0.0,0.0,0.0,0.0,0.0,0.0,0.0,0.0,0.0,0.0,0.0,0.0,0.0,0.0,0.0,0.0,0.0,0.0,0.0,0.0,0.0,0.0,0.0,0.0,0.0,0.0,0.0,0.0,0.0,0.0,0.0,0.0,0.0,0.0,0.0,0.0,0.0,0.0,0.0,0.0,0.0,0.0,0.0,0.0,0.0,0.0,0.0,0.0,0.0,0.0,0.0,0.0,0.0,0.0,0.0,0.0,0.0,0.0,0.0,0.0,0.0,0.0,0.0,0.0,0.0,0.0,0.0,0.0,0.0,0.0,0.0,0.0,0.0,0.0,0.0,0.0,0.0,0.0,0.0,0.0,0.0,0.0,0.0,0.0,0.0,0.0,0.0,0.0,0.0,0.0,0.0,0.0,0.0,0.0,0.0,0.0,0.0,0.0,0.0,0.0,0.0,0.0,0.0,0.0,0.0,0.0,0.0,0.0,0.0,0.0,0.0,0.0,0.0,0.0,0.0,0.0,0.0,0.0,0.0,0.0,0.0,0.0,0.0,0.0,0.0,0.0,0.0,0.0,0.0,0.0,0.0,0.0,0.0,0.0,0.0,0.0,0.0,0.0,0.0,0.0,0.0,0.0,0.0,0.0,0.0,0.0,0.0,0.0,0.0,0.0,0.0,0.0,0.0,0.0,0.0,0.0,0.0,0.0,0.0,0.0,0.0,0.0,0.0,0.0,0.0,0.0,0.0,0.0,0.0,0.0,0.0,0.0,0.0,0.0,0.0,0.0,0.0,0.0,0.0,0.0,0.0,0.0,0.0,0.0,0.0,0.0,0.0,0.0,0.0,0.0,0.0,0.0,0.0,0.0,0.0,0.0,0.0,0.0,0.0,0.0,0.0,0.0,0.0,0.0,0.0,0.0,0.0,0.0,0.0,0.0,0.0,0.0,0.0,0.0,0.0,0.0,0.0,0.0,0.0,0.0,0.0,0.0,0.0,0.0,0.0,0.0,0.0,0.0,0.0,0.0,0.0,0.0,0.0,0.0,0.0,0.0,0.0,0.0,0.0,0.0,0.0,0.0,0.0,0.0,0.0,0.0,0.0,0.0,0.0,0.0,0.0,0.0,0.0,0.0,0.0,0.0,0.0,0.0,0.0,0.0,0.0,0.0,0.0,0.0,0.0,0.0,0.0,0.0,0.0,0.0,0.0,0.0,0.0,0.0,0.0,0.0,0.0,0.0,0.0,0.0,0.0,0.0,0.0,0.0,0.0,0.0,0.0,0.0,0.0,0.0,0.0,0.0,0.0,0.0,0.0,0.0,1.22,0.0,0.0,0.0,0.0,0.0,0.0,0.0,0.0,0.0,0.0,0.0,0.0,0.0,0.0,0.0,0.0,0.0,0.0,0.0,0.0,0.0,0.0,0.0,0.0,0.0,0.0,0.0,0.0,0.0,0.0,0.0,0.0,0.0,0.0,0.0,0.0,0.0,0.0,0.0,0.0,0.0,0.0,0.0,0.0,0.0,0.0,0.0,0.0,0.0,0.0,0.0,0.0,0.0,0.0,0.0,0.0,0.0,0.0,0.0,0.0,0.0,0.0,0.0,0.0,0.0,0.0,0.0,0.0,0.0,0.0,0.0,0.0,0.0,0.0,0.0,0.0,0.0,0.0,0.0,0.0,0.0,0.0,0.0,0.0,0.0,0.0,0.0,0.0,0.0,0.0,0.0,0.0,0.0,0.0,0.0,0.0,0.0,0.0,0.0,0.0,0.0,0.0,0.0,0.0,0.0,0.0,0.0,0.0,0.0,0.0,1.3038,1.2881,1.2979,1.2989,1.2864,0.0,0.0,0.0,0.0,0.0,0.0,0.0,0.0,0.0,0.0,0.0,0.0,0.0,0.0,0.0,0.0,0.0,0.0,0.0,0.0,0.0,0.0,0.0,0.0,0.0,0.0,0.0,0.0,0.0,0.0,0.0,0.0,0.0,0.0,0.0,0.0,0.0,0.0,0.0,0.0,0.0,0.0,0.0,0.0,0.0,0.0,0.0,0.0,0.0,0.0,0.0,0.0,0.0,0.0,0.0,0.0,0.0,0.0,0.0,0.0,0.0,0.0,0.0,0.0,0.0,0.0,0.0,0.0,0.0,0.0,0.0,0.0,0.0,0.0,0.0,0.0,0.0,0.0,0.0,0.0,0.0,0.0,0.0,0.0,0.0,0.0,0.0,0.0,0.0,0.0,0.0,0.0,0.0,0.0,0.0,0.0,0.0,0.0,0.0,0.0,0.0,0.0,0.0,0.0,0.0,0.0,0.0,0.0,0.0,0.0,0.0,0.0,1.3307,1.3388,1.3648,0.0,0.0,0.0,0.0,0.0,0.0,0.0,0.0,0.0,0.0,0.0,0.0,0.0,0.0,0.0,0.0,0.0,0.0,0.0,0.0,0.0,0.0,0.0,0.0,0.0,0.0,0.0,0.0,0.0,0.0,0.0,0.0,0.0,0.0,0.0,0.0,0.0,0.0,0.0,0.0,0.0,0.0,0.0,0.0,0.0,0.0,0.0,0.0,0.0,0.0,0.0,0.0,0.0,0.0,0.0,0.0,0.0,0.0,0.0,0.0,0.0,0.0,0.0,0.0,0.0,0.0,0.0,0.0,0.0,0.0,0.0,0.0,0.0,0.0,0.0,0.0,0.0,0.0,0.0,0.0,0.0,0.0,0.0,0.0,0.0,0.0,0.0,0.0,0.0,0.0,0.0,0.0,0.0,0.0,0.0,0.0,0.0,0.0,0.0,0.0,0.0,0.0,0.0,0.0,0.0,0.0,0.0,0.0,0.0,0.0,1.3342,1.3448,1.3318,0.0,1.4374,0.0,0.0,0.0,0.0,0.0,0.0,0.0,0.0,0.0,0.0,0.0,0.0,0.0,0.0,0.0,0.0,0.0,0.0,0.0,0.0,0.0,0.0,0.0,0.0,0.0,0.0,0.0,0.0,0.0,0.0,0.0,0.0,0.0,0.0,0.0,0.0,0.0,0.0,0.0,0.0,0.0,0.0,0.0,0.0,0.0,0.0,0.0,0.0,0.0,0.0,0.0,0.0,0.0,0.0,0.0,0.0,0.0,0.0,0.0,0.0,0.0,0.0,0.0,0.0,0.0,0.0,0.0,0.0,0.0,0.0,0.0,0.0,0.0,0.0,0.0,0.0,0.0,0.0,0.0,0.0,0.0,0.0,0.0,0.0,0.0,0.0,0.0,0.0,0.0,0.0,0.0,0.0,0.0,0.0,0.0,0.0,0.0,0.0,0.0,0.0,0.0,0.0,0.0,0.0,0.0,0.0,0.0,0.0,0.0,0.0,1.391,1.4055,1.4358,1.4579,0.0,0.0,0.0,0.0,0.0,0.0,0.0,0.0,0.0,0.0,0.0,0.0,0.0,0.0,0.0,0.0,0.0,0.0,0.0,0.0,0.0,0.0,0.0,0.0,0.0,0.0,0.0,0.0,0.0,0.0,0.0,0.0,0.0,0.0,0.0,0.0,0.0,0.0,0.0,0.0,0.0,0.0,0.0,0.0,0.0,0.0,0.0,0.0,0.0,0.0,0.0,0.0,0.0,0.0,0.0,0.0,0.0,0.0,0.0,0.0,0.0,0.0,0.0,0.0,0.0,0.0,0.0,0.0,0.0,0.0,0.0,0.0,0.0,0.0,0.0,0.0,0.0,0.0,0.0,0.0,0.0,0.0,0.0,0.0,0.0,0.0,0.0,0.0,0.0,0.0,0.0,0.0,0.0,0.0,0.0,0.0,0.0,0.0,0.0,0.0,0.0,0.0,0.0,0.0,0.0,0.0,0.0,0.0,0.0,0.0,1.4279,1.4492,1.4692,1.5219,1.5371,1.5113,0.0,0.0,0.0,0.0,0.0,0.0,0.0,0.0,0.0,0.0,0.0,0.0,0.0,0.0,0.0,0.0,0.0,0.0,0.0,0.0,0.0,0.0,0.0,0.0,0.0,0.0,0.0,0.0,0.0,0.0,0.0,0.0,0.0,0.0,0.0,0.0,0.0,0.0,0.0,0.0,0.0,0.0,0.0,0.0,0.0,0.0,0.0,0.0,0.0,0.0,0.0,0.0,0.0,0.0,0.0,0.0,0.0,0.0,0.0,0.0,0.0,0.0,0.0,0.0,0.0,0.0,0.0,0.0,0.0,0.0,0.0,0.0,0.0,0.0,0.0,0.0,0.0,0.0,0.0,0.0,0.0,0.0,0.0,0.0,0.0,0.0,0.0,0.0,0.0,0.0,0.0,0.0,0.0,0.0,0.0,0.0,0.0,0.0,0.0,0.0,0.0,0.0,0.0,0.0,0.0,0.0,0.0,0.0,1.5034,1.4896,1.4961,1.5171,1.5621,1.5688,0.0,0.0,0.0,0.0,0.0,0.0,0.0,0.0,0.0,0.0,0.0,0.0,0.0,0.0,0.0,0.0,0.0,0.0,0.0,0.0,0.0,0.0,0.0,0.0,0.0,0.0,0.0,0.0,0.0,0.0,0.0,0.0,0.0,0.0,0.0,0.0,0.0,0.0,0.0,0.0,0.0,0.0,0.0,0.0,0.0,0.0,0.0,0.0,0.0,0.0,0.0,0.0,0.0,0.0,0.0,0.0,0.0,0.0,0.0,0.0,0.0,0.0,0.0,0.0,0.0,0.0,0.0,0.0,0.0,0.0,0.0,0.0,0.0,0.0,0.0,0.0,0.0,0.0,0.0,0.0,0.0,0.0,0.0,0.0,0.0,0.0,0.0,0.0,0.0,0.0,0.0,0.0,0.0,0.0,0.0,0.0,0.0,0.0,0.0,0.0,0.0,0.0,0.0,0.0,0.0,0.0,0.0,0.0,0.0,1.4771,1.4893,1.4876,1.4772,1.5584,1.5923,0.0,0.0,0.0,0.0,0.0,0.0,0.0,0.0,0.0,0.0,0.0,0.0,0.0,0.0,0.0,0.0,0.0,0.0,0.0,0.0,0.0,0.0,0.0,0.0,0.0,0.0,0.0,0.0,0.0,0.0,0.0,0.0,0.0,0.0,0.0,0.0,0.0,0.0,0.0,0.0,0.0,0.0,0.0,0.0,0.0,0.0,0.0,0.0,0.0,0.0,0.0,0.0,0.0,0.0,0.0,0.0,0.0,0.0,0.0,0.0,0.0,0.0,0.0,0.0,0.0,0.0,0.0,0.0,0.0,0.0,0.0,0.0,0.0,0.0,0.0,0.0,0.0,0.0,0.0,0.0,0.0,0.0,0.0,0.0,0.0,0.0,0.0,0.0,0.0,0.0,0.0,0.0,0.0,0.0,0.0,0.0,0.0,0.0,0.0,0.0,0.0,0.0,0.0,0.0,0.0,0.0,0.0,0.0,0.0,1.512,0.0,1.5305,1.521,1.6036,1.6284,0.0,0.0,0.0,0.0,0.0,0.0,0.0,0.0,0.0,0.0,0.0,0.0,0.0,0.0,0.0,0.0,0.0,0.0,0.0,0.0,0.0,0.0,0.0,0.0,0.0,0.0,0.0,0.0,0.0,0.0,0.0,0.0,0.0,0.0,0.0,0.0,0.0,0.0,0.0,0.0,0.0,0.0,0.0,0.0,0.0,0.0,0.0,0.0,0.0,0.0,0.0,0.0,0.0,0.0,0.0,0.0,0.0,0.0,0.0,0.0,0.0,0.0,0.0,0.0,0.0,0.0,0.0,0.0,0.0,0.0,0.0,0.0,0.0,0.0,0.0,0.0,0.0,0.0,0.0,0.0,0.0,0.0,0.0,0.0,0.0,0.0,0.0,0.0,0.0,0.0,0.0,0.0,0.0,0.0,0.0,0.0,0.0,0.0,0.0,0.0,0.0,0.0,0.0,0.0,0.0,0.0,0.0,0.0,1.6229,1.6051,1.6085,1.6196,1.6581,1.6882,1.6815,0.0,0.0,0.0,0.0,0.0,0.0,0.0,0.0,0.0,0.0,0.0,0.0,0.0,0.0,0.0,0.0,0.0,0.0,0.0,0.0,0.0,0.0,0.0,0.0,0.0,0.0,0.0,0.0,0.0,0.0,0.0,0.0,0.0,0.0,0.0,0.0,0.0,0.0,0.0,0.0,0.0,0.0,0.0,0.0,0.0,0.0,0.0,0.0,0.0,0.0,0.0,0.0,0.0,0.0,0.0,0.0,0.0,0.0,0.0,0.0,0.0,0.0,0.0,0.0,0.0,0.0,0.0,0.0,0.0,0.0,0.0,0.0,0.0,0.0,0.0,0.0,0.0,0.0,0.0,0.0,0.0,0.0,0.0,0.0,0.0,0.0,0.0,0.0,0.0,0.0,0.0,0.0,0.0,0.0,0.0,0.0,0.0,0.0,0.0,0.0,0.0,0.0,0.0,0.0,0.0,0.0,0.0,0.0,0.0,1.5641,1.6011,1.6558,1.7258,1.7383,1.7618,0.0,0.0,0.0,0.0,0.0,0.0,0.0,0.0,0.0,0.0,0.0,0.0,0.0,0.0,0.0,0.0,0.0,0.0,0.0,0.0,0.0,0.0,0.0,0.0,0.0,0.0,0.0,0.0,0.0,0.0,0.0,0.0,0.0,0.0,0.0,0.0,0.0,0.0,0.0,0.0,0.0,0.0,0.0,0.0,0.0,0.0,0.0,0.0,0.0,0.0,0.0,0.0,0.0,0.0,0.0,0.0,0.0,0.0,0.0,0.0,0.0,0.0,0.0,0.0,0.0,0.0,0.0,0.0,0.0,0.0,0.0,0.0,0.0,0.0,0.0,0.0,0.0,0.0,0.0,0.0,0.0,0.0,0.0,0.0,0.0,0.0,0.0,0.0,0.0,0.0,0.0,0.0,0.0,0.0,0.0,0.0,0.0,0.0,0.0,0.0,0.0,0.0,0.0,0.0,0.0,0.0,0.0,0.0,0.0,1.6236,1.6445,1.6926,1.7722,1.7875,1.8122,1.8658,0.0,0.0,0.0,0.0,0.0,0.0,0.0,0.0,0.0,0.0,0.0,0.0,0.0,0.0,0.0,0.0,0.0,0.0,0.0,0.0,0.0,0.0,0.0,0.0,0.0,0.0,0.0,0.0,0.0,0.0,0.0,0.0,0.0,0.0,0.0,0.0,0.0,0.0,0.0,0.0,0.0,0.0,0.0,0.0,0.0,0.0,0.0,0.0,0.0,0.0,0.0,0.0,0.0,0.0,0.0,0.0,0.0,0.0,0.0,0.0,0.0,0.0,0.0,0.0,0.0,0.0,0.0,0.0,0.0,0.0,0.0,0.0,0.0,0.0,0.0,0.0,0.0,0.0,0.0,0.0,0.0,0.0,0.0,0.0,0.0,0.0,0.0,0.0,0.0,0.0,0.0,0.0,0.0,0.0,0.0,0.0,0.0,0.0,0.0,0.0,0.0,0.0,0.0,0.0,0.0,0.0,0.0,0.0,1.7596,1.728,1.7477,1.8103,1.8341,1.851,0.0,0.0,0.0,0.0,0.0,0.0,0.0,0.0,0.0,0.0,0.0,0.0,0.0,0.0,0.0,0.0,0.0,0.0,0.0,0.0,0.0,0.0,0.0,0.0,0.0,0.0,0.0,0.0,0.0,0.0,0.0,0.0,0.0,0.0,0.0,0.0,0.0,0.0,0.0,0.0,0.0,0.0,0.0,0.0,0.0,0.0,0.0,0.0,0.0,0.0,0.0,0.0,0.0,0.0,0.0,0.0,0.0,0.0,0.0,0.0,0.0,0.0,0.0,0.0,0.0,0.0,0.0,0.0,0.0,0.0,0.0,0.0,0.0,0.0,0.0,0.0,0.0,0.0,0.0,0.0,0.0,0.0,0.0,0.0,0.0,0.0,0.0,0.0,0.0,0.0,0.0,0.0,0.0,0.0,0.0,0.0,0.0,0.0,0.0,0.0,0.0,0.0,0.0,0.0,0.0,0.0,0.0,0.0,0.0,1.8596,1.8637,1.9,1.9575,1.9459,1.9876,0.0,0.0,0.0,0.0,0.0,0.0,0.0,0.0,0.0,0.0,0.0,0.0,0.0,0.0,0.0,0.0,0.0,0.0,0.0,0.0,0.0,0.0,0.0,0.0,0.0,0.0,0.0,0.0,0.0,0.0,0.0,0.0,0.0,0.0,0.0,0.0,0.0,0.0,0.0,0.0,0.0,0.0,0.0,0.0,0.0,0.0,0.0,0.0,0.0,0.0,0.0,0.0,0.0,0.0,0.0,0.0,0.0,0.0,0.0,0.0,0.0,0.0,0.0,0.0,0.0,0.0,0.0,0.0,0.0,0.0,0.0,0.0,0.0,0.0,0.0,0.0,0.0,0.0,0.0,0.0,0.0,0.0,0.0,0.0,0.0,0.0,0.0,0.0,0.0,0.0,0.0,0.0,0.0,0.0,0.0,0.0,0.0,0.0,0.0,0.0,0.0,0.0,0.0,0.0,0.0,0.0,0.0,0.0,2.023,1.9476,1.9871,2.0353,2.0774,2.0651,2.0952,0.0,0.0,0.0,0.0,0.0,0.0,0.0,0.0,0.0,0.0,0.0,0.0,0.0,0.0,0.0,0.0,0.0,0.0,0.0,0.0,0.0,0.0,0.0,0.0,0.0,0.0,0.0,0.0,0.0,0.0,0.0,0.0,0.0,0.0,0.0,0.0,0.0,0.0,0.0,0.0,0.0,0.0,0.0,0.0,0.0,0.0,0.0,0.0,0.0,0.0,0.0,0.0,0.0,0.0,0.0,0.0,0.0,0.0,0.0,0.0,0.0,0.0,0.0,0.0,0.0,0.0,0.0,0.0,0.0,0.0,0.0,0.0,0.0,0.0,0.0,0.0,0.0,0.0,0.0,0.0,0.0,0.0,0.0,0.0,0.0,0.0,0.0,0.0,0.0,0.0,0.0,0.0,0.0,0.0,0.0,0.0,0.0,0.0,0.0,0.0,0.0,0.0,0.0,0.0,0.0,0.0,0.0,0.0,2.1085,2.0402,2.104,2.1485,2.1702,2.1779,2.1938,0.0,0.0,0.0,0.0,0.0,0.0,0.0,0.0,0.0,0.0,0.0,0.0,0.0,0.0,0.0,0.0,0.0,0.0,0.0,0.0,0.0,0.0,0.0,0.0,0.0,0.0,0.0,0.0,0.0,0.0,0.0,0.0,0.0,0.0,0.0,0.0,0.0,0.0,0.0,0.0,0.0,0.0,0.0,0.0,0.0,0.0,0.0,0.0,0.0,0.0,0.0,0.0,0.0,0.0,0.0,0.0,0.0,0.0,0.0,0.0,0.0,0.0,0.0,0.0,0.0,0.0,0.0,0.0,0.0,0.0,0.0,0.0,0.0,0.0,0.0,0.0,0.0,0.0,0.0,0.0,0.0,0.0,0.0,0.0,0.0,0.0,0.0,0.0,0.0,0.0,0.0,0.0,0.0,0.0,0.0,0.0,0.0,0.0,0.0,0.0,0.0,0.0,0.0,0.0,0.0,0.0,0.0,0.0,2.2312,2.1728,2.2089,2.2331,2.2295,2.2502,2.2857,0.0,0.0,0.0,0.0,0.0,0.0,0.0,0.0,0.0,0.0,0.0,0.0,0.0,0.0,0.0,0.0,0.0,0.0,0.0,0.0,0.0,0.0,0.0,0.0,0.0,0.0,0.0,0.0,0.0,0.0,0.0,0.0,0.0,0.0,0.0,0.0,0.0,0.0,0.0,0.0,0.0,0.0,0.0,0.0,0.0,0.0,0.0,0.0,1.7281,0.0,0.0,0.0,0.0,0.0,0.0,0.0,0.0,0.0,0.0,0.0,0.0,0.0,0.0,0.0,0.0,0.0,0.0,0.0,0.0,0.0,0.0,0.0,0.0,0.0,0.0,0.0,0.0,0.0,0.0,0.0,0.0,0.0,0.0,0.0,0.0,0.0,0.0,0.0,0.0,0.0,0.0,0.0,0.0,0.0,0.0,0.0,0.0,0.0,0.0,0.0,0.0,0.0,0.0,0.0,0.0,0.0,0.0,0.0,2.3508,2.2803,2.3137,2.3296,2.3217,2.3759,2.4007,0.0,0.0,0.0,0.0,0.0,0.0,0.0,0.0,0.0,0.0,0.0,0.0,0.0,0.0,0.0,0.0,0.0,0.0,0.0,0.0,0.0,0.0,0.0,0.0,0.0,0.0,0.0,0.0,0.0,0.0,0.0,0.0,0.0,0.0,0.0,0.0,0.0,0.0,0.0,0.0,0.0,0.0,0.0,0.0,0.0,0.0,0.0,0.0,0.0,0.0,0.0,0.0,0.0,0.0,0.0,0.0,0.0,0.0,0.0,0.0,0.0,0.0,0.0,0.0,0.0,0.0,0.0,0.0,0.0,0.0,0.0,0.0,0.0,0.0,0.0,0.0,0.0,0.0,0.0,0.0,0.0,0.0,0.0,0.0,0.0,0.0,0.0,0.0,0.0,0.0,0.0,0.0,0.0,0.0,0.0,0.0,0.0,0.0,0.0,0.0,0.0,0.0,0.0,0.0,0.0,0.0,0.0,2.5032,2.4677,2.376,2.4129,2.4292,2.4251,2.5018,2.5185,2.4667,0.0,0.0,0.0,0.0,0.0,0.0,0.0,0.0,0.0,0.0,0.0,0.0,0.0,0.0,0.0,0.0,0.0,0.0,0.0,0.0,0.0,0.0,0.0,0.0,0.0,0.0,0.0,0.0,0.0,0.0,0.0,0.0,0.0,0.0,0.0,0.0,0.0,0.0,2.1791,2.1713,0.0,0.0,0.0,0.0,0.0,0.0,0.0,0.0,1.8007,0.0,0.0,0.0,0.0,0.0,0.0,0.0,0.0,0.0,0.0,0.0,0.0,0.0,0.0,0.0,0.0,0.0,0.0,0.0,0.0,0.0,0.0,0.0,0.0,0.0,0.0,0.0,0.0,0.0,0.0,0.0,0.0,0.0,0.0,0.0,0.0,0.0,0.0,0.0,0.0,0.0,0.0,0.0,0.0,0.0,0.0,0.0,0.0,0.0,0.0,0.0,0.0,0.0,0.0,0.0,0.0,2.5389,2.5861,2.561,2.4685,2.5049,2.5209,2.5202,2.5758,2.5887,2.5549,0.0,0.0,0.0,0.0,0.0,0.0,0.0,0.0,0.0,0.0,0.0,0.0,0.0,0.0,0.0,0.0,0.0,0.0,0.0,0.0,0.0,0.0,0.0,0.0,0.0,0.0,0.0,0.0,0.0,0.0,0.0,0.0,0.0,0.0,0.0,0.0,0.0,0.0,0.0,2.2402,2.2088,0.0,0.0,0.0,0.0,0.0,0.0,0.0,0.0,1.7623,0.0,0.0,0.0,0.0,0.0,0.0,0.0,0.0,0.0,0.0,0.0,0.0,0.0,0.0,0.0,0.0,0.0,0.0,0.0,0.0,0.0,0.0,0.0,0.0,0.0,0.0,0.0,0.0,0.0,0.0,0.0,0.0,0.0,0.0,0.0,0.0,0.0,0.0,0.0,0.0,0.0,0.0,0.0,0.0,0.0,0.0,0.0,0.0,0.0,0.0,0.0,0.0,0.0,0.0,0.0,2.6633,2.6967,2.6772,2.6114,2.5963,2.598,2.6091,2.6273,2.6263,0.0,0.0,0.0,0.0,0.0,0.0,0.0,0.0,0.0,0.0,0.0,0.0,0.0,0.0,0.0,0.0,0.0,0.0,0.0,0.0,0.0,0.0,0.0,0.0,0.0,0.0,0.0,0.0,0.0,0.0,0.0,0.0,0.0,0.0,0.0,0.0,0.0,0.0,0.0,0.0,2.3469,2.3239,2.2025,0.0,0.0,0.0,0.0,0.0,0.0,1.8457,1.84,0.0,0.0,0.0,0.0,0.0,0.0,0.0,0.0,0.0,0.0,0.0,0.0,0.0,0.0,0.0,0.0,0.0,0.0,0.0,0.0,0.0,0.0,0.0,0.0,0.0,0.0,0.0,0.0,0.0,0.0,0.0,0.0,0.0,0.0,0.0,0.0,0.0,0.0,0.0,0.0,0.0,0.0,0.0,0.0,0.0,0.0,0.0,0.0,0.0,0.0,0.0,0.0,0.0,0.0,0.0,2.7581,2.7901,2.7919,2.7468,2.6927,2.6822,2.7107,2.6866,2.6695,0.0,0.0,0.0,0.0,0.0,0.0,0.0,0.0,0.0,0.0,0.0,0.0,0.0,0.0,0.0,0.0,0.0,0.0,0.0,0.0,0.0,0.0,0.0,0.0,0.0,0.0,0.0,0.0,0.0,0.0,0.0,0.0,0.0,0.0,0.0,0.0,0.0,0.0,0.0,0.0,0.0,2.4321,2.3181,2.3042,0.0,0.0,0.0,0.0,1.9266,1.9404,0.0,0.0,0.0,0.0,0.0,0.0,0.0,0.0,0.0,0.0,0.0,0.0,0.0,0.0,0.0,0.0,0.0,0.0,0.0,0.0,0.0,0.0,0.0,0.0,0.0,0.0,0.0,0.0,0.0,0.0,0.0,0.0,0.0,0.0,0.0,0.0,0.0,0.0,0.0,0.0,0.0,0.0,0.0,0.0,0.0,0.0,0.0,0.0,0.0,0.0,0.0,0.0,0.0,0.0,0.0,0.0,2.7488,2.8373,2.8697,2.8306,2.7947,2.7947,2.8214,2.7867,2.7545,0.0,0.0,0.0,0.0,0.0,0.0,0.0,0.0,0.0,0.0,0.0,0.0,0.0,0.0,0.0,0.0,0.0,0.0,0.0,0.0,0.0,0.0,0.0,0.0,0.0,0.0,0.0,0.0,0.0,0.0,0.0,0.0,0.0,0.0,0.0,0.0,0.0,0.0,0.0,0.0,0.0,2.4871,2.4351,2.3903,2.3542,0.0,0.0,2.1679,2.1577,2.0971,0.0,0.0,0.0,0.0,0.0,0.0,0.0,0.0,0.0,0.0,0.0,0.0,0.0,0.0,0.0,0.0,0.0,0.0,0.0,0.0,0.0,0.0,0.0,0.0,0.0,0.0,0.0,0.0,0.0,0.0,0.0,0.0,0.0,0.0,0.0,0.0,0.0,0.0,0.0,0.0,0.0,0.0,0.0,0.0,0.0,0.0,0.0,0.0,0.0,0.0,0.0,0.0,0.0,0.0,0.0,2.8875,2.9016,2.9392,2.965,2.9843,2.9202,2.903,2.9376,2.889,2.8541,0.0,0.0,0.0,0.0,0.0,0.0,0.0,0.0,0.0,0.0,0.0,0.0,0.0,0.0,0.0,0.0,0.0,0.0,0.0,0.0,0.0,0.0,0.0,0.0,0.0,0.0,0.0,0.0,0.0,0.0,0.0,0.0,0.0,0.0,0.0,0.0,0.0,0.0,0.0,0.0,0.0,0.0,2.5398,2.496,0.0,0.0,0.0,2.2942,2.2363,0.0,0.0,0.0,0.0,0.0,0.0,0.0,0.0,0.0,0.0,0.0,0.0,0.0,0.0,0.0,0.0,0.0,0.0,0.0,0.0,0.0,0.0,0.0,0.0,0.0,0.0,0.0,0.0,0.0,0.0,0.0,0.0,0.0,0.0,0.0,0.0,0.0,0.0,0.0,0.0,0.0,0.0,0.0,0.0,0.0,0.0,0.0,0.0,0.0,0.0,0.0,0.0,0.0,0.0,0.0,0.0,0.0,3.0158,3.0155,3.0442,3.1083,3.0307,3.0088,3.0567,2.9953,0.0,0.0,0.0,0.0,0.0,0.0,0.0,0.0,0.0,0.0,0.0,0.0,0.0,0.0,0.0,0.0,0.0,0.0,0.0,0.0,0.0,0.0,0.0,0.0,0.0,0.0,0.0,2.7468,0.0,0.0,0.0,0.0,0.0,0.0,0.0,0.0,0.0,0.0,0.0,0.0,0.0,0.0,2.5872,2.6307,2.6106,2.5814,0.0,0.0,2.4368,2.351,2.3367,2.2989,0.0,0.0,0.0,0.0,0.0,0.0,0.0,0.0,0.0,0.0,0.0,0.0,0.0,0.0,0.0,0.0,0.0,0.0,0.0,0.0,0.0,0.0,0.0,0.0,0.0,0.0,0.0,0.0,0.0,0.0,0.0,0.0,0.0,0.0,0.0,0.0,0.0,0.0,0.0,0.0,0.0,0.0,0.0,0.0,0.0,0.0,0.0,0.0,0.0,0.0,0.0,0.0,0.0,0.0,0.0,3.0094,3.0328,3.0833,3.1539,3.0991,3.1087,3.1834,3.0835,3.016,0.0,0.0,0.0,0.0,0.0,0.0,0.0,0.0,0.0,0.0,0.0,0.0,0.0,0.0,0.0,0.0,0.0,0.0,0.0,0.0,0.0,0.0,0.0,0.0,0.0,0.0,0.0,0.0,0.0,0.0,0.0,0.0,0.0,0.0,0.0,0.0,0.0,0.0,0.0,0.0,0.0,2.6653,2.7094,2.7165,2.7281,0.0,0.0,2.6157,2.5873,2.5041,2.4123,2.3313,0.0,0.0,0.0,0.0,0.0,0.0,0.0,0.0,0.0,0.0,0.0,0.0,0.0,0.0,0.0,0.0,0.0,0.0,0.0,0.0,0.0,0.0,0.0,0.0,0.0,0.0,0.0,0.0,0.0,0.0,0.0,0.0,0.0,0.0,0.0,0.0,0.0,0.0,0.0,0.0,0.0,0.0,0.0,0.0,0.0,0.0,0.0,0.0,0.0,0.0,0.0,0.0,0.0,3.1082,3.1321,3.1413,3.1705,3.2307,3.2007,3.1846,3.1979,3.1592,3.1179,0.0,0.0,0.0,0.0,0.0,0.0,0.0,0.0,0.0,0.0,0.0,0.0,0.0,0.0,0.0,0.0,0.0,0.0,0.0,0.0,0.0,0.0,0.0,0.0,0.0,0.0,0.0,0.0,2.8606,2.8466,2.8008,0.0,0.0,0.0,0.0,0.0,0.0,0.0,0.0,0.0,0.0,2.7851,2.854,2.8306,0.0,0.0,2.7709,2.6863,2.6579,2.572,2.4803,2.4034,2.3346,0.0,0.0,0.0,0.0,0.0,0.0,0.0,0.0,0.0,0.0,0.0,0.0,0.0,0.0,0.0,0.0,0.0,0.0,0.0,0.0,0.0,0.0,0.0,0.0,0.0,0.0,0.0,0.0,0.0,0.0,0.0,0.0,0.0,0.0,0.0,0.0,0.0,0.0,0.0,0.0,0.0,0.0,0.0,0.0,0.0,0.0,0.0,0.0,0.0,0.0,0.0,0.0,3.2107,3.2292,3.2325,3.2533,3.3088,3.2765,3.2639,3.2664,3.2312,3.1984,0.0,0.0,0.0,0.0,0.0,0.0,0.0,0.0,0.0,0.0,0.0,0.0,0.0,0.0,0.0,0.0,0.0,0.0,0.0,0.0,0.0,0.0,0.0,0.0,0.0,0.0,0.0,0.0,2.9128,2.8989,2.8628,0.0,0.0,0.0,0.0,0.0,0.0,0.0,0.0,0.0,0.0,2.8927,2.9518,2.9271,2.9034,2.9246,2.8247,2.7338,2.7006,2.6154,2.5396,2.4743,0.0,0.0,0.0,0.0,0.0,0.0,0.0,0.0,0.0,0.0,0.0,0.0,0.0,0.0,0.0,0.0,0.0,0.0,0.0,0.0,0.0,0.0,0.0,0.0,0.0,0.0,0.0,0.0,0.0,0.0,0.0,0.0,0.0,0.0,0.0,0.0,0.0,0.0,0.0,0.0,0.0,0.0,0.0,0.0,0.0,0.0,0.0,0.0,0.0,0.0,0.0,0.0,0.0,3.268,3.2692,3.2909,3.3245,3.3727,3.3353,3.3408,3.4057,3.2992,3.2409,3.2394,0.0,0.0,0.0,0.0,0.0,0.0,0.0,0.0,0.0,0.0,0.0,0.0,0.0,0.0,0.0,0.0,0.0,0.0,0.0,0.0,0.0,0.0,0.0,0.0,0.0,0.0,2.9485,2.9266,2.9082,0.0,0.0,0.0,0.0,0.0,0.0,0.0,0.0,0.0,0.0,2.9299,2.9809,2.9979,3.0064,2.9952,2.9709,2.8614,2.7672,2.7379,2.66,2.5887,0.0,0.0,0.0,0.0,0.0,0.0,0.0,0.0,0.0,0.0,0.0,0.0,0.0,0.0,0.0,0.0,0.0,0.0,0.0,0.0,0.0,0.0,0.0,0.0,0.0,0.0,0.0,3.8405,3.8509,0.0,0.0,0.0,0.0,0.0,0.0,0.0,0.0,0.0,0.0,0.0,3.8872,3.9438,0.0,0.0,0.0,0.0,0.0,0.0,0.0,0.0,0.0,0.0,0.0,0.0,3.3386,3.3386,3.3713,3.4027,3.4207,3.405,3.3913,3.3875,3.3494,3.3177,3.3046,0.0,0.0,0.0,0.0,0.0,0.0,0.0,0.0,0.0,0.0,0.0,0.0,0.0,0.0,0.0,0.0,0.0,0.0,0.0,0.0,0.0,0.0,0.0,0.0,0.0,3.017,0.0,0.0,0.0,0.0,0.0,0.0,0.0,0.0,0.0,0.0,0.0,2.9154,2.958,2.9895,3.0171,3.0558,3.0477,3.0319,0.0,0.0,0.0,0.0,0.0,0.0,0.0,0.0,0.0,0.0,0.0,0.0,0.0,0.0,2.3599,2.2525,2.1707,2.0972,2.024,0.0,0.0,0.0,0.0,0.0,0.0,0.0,0.0,0.0,0.0,0.0,0.0,0.0,0.0,0.0,0.0,3.9853,0.0,0.0,0.0,0.0,0.0,0.0,0.0,0.0,3.9814,3.9855,3.9423,4.0137,4.0123,0.0,3.8988,3.7923,0.0,0.0,0.0,0.0,0.0,0.0,0.0,0.0,3.4343,3.4413,3.4744,3.4964,3.4922,3.4881,3.4716,3.4426,3.4259,3.4063,3.3781,3.3738,3.3725,0.0,0.0,0.0,0.0,0.0,0.0,0.0,0.0,0.0,0.0,0.0,0.0,0.0,0.0,0.0,0.0,0.0,0.0,0.0,0.0,0.0,0.0,0.0,3.0758,0.0,0.0,0.0,0.0,0.0,0.0,0.0,0.0,0.0,2.9691,2.9715,2.9885,3.0294,3.0405,3.0595,3.0864,0.0,0.0,0.0,0.0,0.0,0.0,0.0,2.785,2.7194,2.715,2.6768,2.5732,2.5462,2.5308,2.4867,0.0,0.0,2.373,2.2962,2.2223,2.1534,2.0376,1.919,1.8132,1.7319,1.6497,0.0,0.0,0.0,0.0,0.0,0.0,0.0,0.0,4.0745,4.0617,0.0,4.0589,0.0,0.0,0.0,0.0,0.0,0.0,0.0,0.0,3.9484,3.9509,4.005,4.0108,4.0108,4.0108,4.0079,3.9416,3.817,3.6572,0.0,0.0,0.0,0.0,0.0,0.0,3.5535,3.5709,3.5937,3.6031,3.6031,3.5843,3.5723,3.571,3.5318,3.4936,3.4481,3.4481,3.4439,3.4439,3.423,0.0,0.0,0.0,0.0,0.0,0.0,0.0,0.0,0.0,0.0,0.0,0.0,0.0,0.0,0.0,0.0,0.0,0.0,0.0,0.0,3.135,0.0,0.0,0.0,0.0,0.0,0.0,0.0,0.0,0.0,0.0,3.0057,3.0136,3.0306,3.0578,0.0,0.0,0.0,0.0,3.0531,3.0296,2.9415,2.8792,2.8828,2.8585,2.8376,2.8319,0.0,0.0,2.7078,2.6398,2.5804,2.5106,2.497,2.493,2.4875,2.4307,2.3656,2.2877,2.2055,2.1023,1.9614,1.8714,1.793,4.4091,0.0,0.0,0.0,0.0,4.2324,4.2652,4.3482,4.3017,4.2756,4.2671,4.1756,0.0,0.0,0.0,0.0,0.0,0.0,4.0022,4.0109,4.0344,4.033,4.0109,4.0536,4.0665,4.0524,4.0094,3.9618,3.9093,3.815,3.7331,3.6633,0.0,0.0,0.0,0.0,3.635,3.6415,3.6626,3.6705,3.6705,3.6665,3.6587,3.6429,3.6084,3.5843,3.5535,3.5535,3.5494,3.5345,3.499,0.0,0.0,0.0,0.0,0.0,0.0,0.0,0.0,0.0,0.0,0.0,0.0,0.0,0.0,0.0,0.0,0.0,0.0,0.0,3.2556,3.2394,3.2232,0.0,0.0,0.0,0.0,0.0,0.0,0.0,0.0,0.0,3.1214,3.0916,3.0793,0.0,0.0,3.1015,3.0958,3.0912,3.0867,3.0776,0.0,0.0,0.0,3.0114,2.9818,2.9441,2.9015,2.865,2.8582,2.7627,2.679,2.6542,2.579,2.5174,2.5166,2.4899,2.4415,2.3941,2.3121,2.2184,2.1156,2.0225,1.917,4.7349,4.6195,4.5031,4.4866,4.5304,4.4605,4.4735,4.5383,4.4664,4.4146,4.3782,4.3424,4.2658,4.1676,4.1067,0.0,0.0,0.0,4.0469,4.0074,4.0697,4.0719,4.0184,4.0492,4.0598,4.0427,4.0055,3.975,3.9476,3.9055,3.8687,3.8271,0.0,0.0,3.7656,3.7434,3.7327,3.7404,3.7558,3.7596,3.7596,3.7519,3.7366,3.7159,3.7028,3.6794,3.6508,3.6508,3.6429,3.623,3.5817,3.5481,0.0,0.0,0.0,0.0,0.0,0.0,0.0,0.0,0.0,0.0,0.0,3.4092,3.4204,0.0,0.0,0.0,3.4092,3.3966,3.37,3.3501,0.0,0.0,0.0,0.0,0.0,0.0,0.0,3.2181,3.2291,3.2215,3.1863,3.1712,3.1639,3.1572,3.1374,3.133,3.1395,0.0,3.1229,3.1139,3.1107,3.1036,3.0714,3.0775,3.0802,3.0599,2.9841,2.9381,2.9555,2.8643,2.7787,2.7431,2.6553,2.5773,2.5642,2.5195,2.4727,2.4392,2.3726,2.291,2.1949,2.1037,2.0113,4.9939,4.9851,4.809,4.7409,4.7439,4.6698,4.645,4.6555,4.5742,4.4945,4.4325,4.5083,4.4435,4.2749,4.2123,0.0,0.0,4.1208,4.0839,4.0156,4.0752,4.0771,4.032,4.0285,4.0211,4.0046,4.0031,3.9818,3.9496,3.946,3.9578,3.9771,3.8808,3.8329,3.8327,3.8269,3.8315,3.8501,3.8516,3.8501,3.8516,3.841,3.8237,3.8086,3.8034,3.7859,3.749,3.7433,3.7289,3.7095,3.6677,3.6387,3.6348,0.0,0.0,0.0,0.0,0.0,0.0,0.0,0.0,0.0,0.0,0.0,0.0,0.0,0.0,0.0,3.4787,0.0,3.4667,3.4502,0.0,0.0,0.0,3.3329,3.3157,3.309,3.3076,3.3038,0.0,0.0,3.2103,0.0,3.2608,3.2438,3.1972,3.1753,3.1867,3.17,3.1529,3.1248,3.124,3.1009,3.045,3.0787,3.1168,3.1344,3.0784,3.0178,3.0054,2.9318,2.8547,2.8027,2.7235,2.6545,2.6153,2.5473,2.4772,2.4411,2.4069,2.3456,2.2465,2.1799,2.1194,5.1194,5.1749,5.1279,4.9834,4.7776,4.7099,4.6858,4.6854,4.6573,4.6315,4.6069,4.5266,4.4086,4.262,4.1891,4.1514,4.1413,4.1423,4.1393,4.1376,4.1425,4.1307,4.1039,4.0938,4.073,4.0385,4.0246,4.0126,4.0021,3.991,3.9823,3.9727,3.9469,3.9379,3.9406,3.8913,3.8671,3.8723,3.8708,3.8723,3.8738,3.9186,3.9413,3.936,3.936,3.9224,3.8966,3.8478,3.8142,3.7901,3.7519,3.7211,3.7095,3.694,0.0,0.0,0.0,0.0,0.0,0.0,0.0,0.0,0.0,3.5831,3.6045,0.0,3.575,0.0,3.5541,3.5038,3.4508,3.4273,0.0,0.0,3.3772,3.3744,3.4031,3.3922,3.3775,3.3567,3.3506,3.3411,3.3103,3.2619,3.236,3.2527,3.1959,3.1418,3.1069,3.0966,3.0912,3.0852,3.0888,3.0791,3.0622,3.0586,3.0664,3.0683,3.0385,3.0148,3.0105,2.9306,2.8583,2.8426,2.7778,2.6981,2.6293,2.6034,2.5605,2.4716,2.4623,2.4608,2.3992,2.3717,2.3283,5.2181,5.2572,5.2009,5.0594,4.8748,4.8161,4.7936,4.7889,4.7097,4.6632,4.6307,4.5152,4.442,4.3961,4.2879,4.2285,4.2013,4.2301,4.2269,4.1948,4.219,4.2061,4.1654,4.1588,4.129,4.0867,4.0734,4.0495,4.0183,3.9837,3.9635,3.9502,3.8951,3.8832,3.9142,3.9079,3.9335,3.9951,3.9966,3.9832,3.9528,4.0151,4.0492,4.0492,4.053,4.0417,4.0227,3.954,3.9274,3.9349,3.8745,3.8424,3.828,3.8203,3.7973,0.0,0.0,0.0,0.0,0.0,0.0,0.0,0.0,0.0,0.0,0.0,3.6368,0.0,3.5963,0.0,3.5101,3.4924,3.4715,3.4547,3.427,3.421,3.4395,3.4306,3.42,3.4044,3.4029,3.3838,3.3394,3.3182,3.2869,3.2452,3.2228,3.1871,3.1165,3.1017,3.0989,3.0918,3.0877,3.0836,3.0741,3.0391,3.0277,3.0455,3.042,3.0379,3.0337,2.9923,2.9473,2.9206,2.8491,2.7761,2.7101,2.6357,2.5752,2.53,2.4913,2.4676,2.4263,2.4203,2.3893,5.2903,5.2784,5.1612,5.0758,5.0113,4.9462,4.91,4.8859,4.761,4.6653,4.5943,4.5162,4.516,4.5628,4.4271,4.3342,4.282,4.3372,4.3113,4.2317,4.2898,4.2789,4.2238,4.2206,4.1868,4.1215,4.1281,4.0887,4.0064,3.9619,3.9344,3.9283,3.8134,3.7876,3.8517,3.8917,3.9813,4.1115,4.1242,4.1063,4.0546,4.116,4.1587,4.1624,4.1587,4.1428,4.1237,4.0598,4.0388,4.0696,4.0003,3.9522,3.9323,3.9142,3.8699,0.0,3.803,0.0,0.0,0.0,0.0,0.0,0.0,0.0,0.0,3.6821,3.6634,3.6164,3.6106,3.6006,3.5805,3.5676,3.5425,3.5021,3.4829,3.4649,3.4453,3.4448,3.4414,3.4414,3.438,3.4113,3.3521,3.3769,3.3509,3.2545,3.2515,3.2283,3.153,3.1299,3.1178,3.0994,3.0913,3.0748,3.0532,3.0142,2.9979,3.0409,3.0417,3.0491,3.0442,3.0413,3.029,2.9821,2.9148,2.8532,2.8174,2.6887,2.5966,2.5779,2.52,2.4592,2.4097,2.3967,2.3884,5.2903,5.2886,5.2632,5.2078,5.1343,5.0241,4.9105,4.809,4.828,4.7878,4.706,4.629,4.5727,4.525,4.4281,4.3763,4.3658,4.3628,4.3509,4.3312,4.3342,4.3174,4.2912,4.279,4.2044,4.0799,4.1135,4.0642,3.9407,3.9645,3.9707,3.9534,3.8819,3.8706,3.9115,0.0,0.0,0.0,4.0322,4.0786,4.1205,4.1871,4.2432,4.2886,4.2447,0.0,4.2124,4.1511,4.0958,4.0495,4.0159,0.0,0.0,0.0,0.0,0.0,0.0,0.0,0.0,0.0,0.0,0.0,3.6913,3.6756,3.6389,3.6338,3.6149,3.5778,3.5705,3.5536,3.5146,3.5053,3.5009,3.4926,3.4878,3.48,3.4679,3.4664,3.4597,3.4414,3.438,3.4332,3.4162,3.3717,3.3297,3.3044,3.2566,3.1947,3.1159,3.1072,3.0778,3.0185,3.0102,3.004,2.9975,2.9731,2.9588,2.9599,2.9505,2.9462,2.9499,2.9475,2.9423,2.9303,2.9253,2.8992,2.8275,2.7971,2.7383,2.611,2.5663,2.5295,2.4529,2.4368,2.4368,5.3195,0.0,5.2775,5.2202,0.0,5.0409,4.9377,4.8382,4.8232,4.7868,4.7378,4.6625,4.5905,4.5139,4.4361,4.3998,4.3998,4.391,4.3818,4.3835,4.3687,4.3539,4.3342,4.319,4.2478,4.1226,4.1442,4.0863,3.9594,3.947,3.9427,3.9441,3.8505,3.8325,3.8825,3.8538,3.8571,3.8901,4.0217,4.0891,4.092,4.1534,4.1878,4.1878,0.0,0.0,0.0,0.0,0.0,0.0,0.0,0.0,0.0,0.0,0.0,3.7139,3.7094,3.6961,3.6679,3.6649,3.6501,3.6189,3.6175,3.6157,3.6212,3.5982,3.5775,3.5581,3.5551,3.5466,3.524,3.51,3.5034,3.5034,3.4968,3.4868,3.4817,3.4817,3.4702,3.4597,3.4563,3.4515,3.4414,3.4079,3.3825,3.3776,3.35,3.2911,3.2132,3.1365,3.0607,2.9934,2.9779,2.9792,2.9779,2.9702,2.9599,2.9573,2.9495,2.9468,2.9429,2.9417,2.9429,2.9468,2.9534,2.9404,2.904,2.8712,2.8211,2.7302,2.64,2.5746,2.5179,2.4818,2.4507,5.3518,5.3433,5.2638,5.1961,5.1336,5.0456,4.9678,4.894,0.0,0.0,0.0,4.6649,4.5911,4.5043,4.444,4.4126,4.4126,4.4097,4.4181,4.4298,4.4181,4.4005,4.384,4.375,4.2939,4.1599,4.1673,4.1014,3.9658,3.9159,3.9085,3.9187,3.8141,3.7735,3.8177,3.8973,3.9134,3.8693,4.0559,4.1375,4.0982,4.1481,4.1511,4.093,4.0794,4.0396,3.9604,3.9139,3.9013,3.9185,3.8797,3.8412,3.8113,3.8048,3.7749,3.7135,3.7041,3.6851,3.6357,3.6327,3.6088,3.5534,3.5489,3.5663,3.6067,3.5753,3.5489,3.5489,3.5489,3.5504,3.5489,3.5359,3.5261,3.5246,3.5115,3.5001,3.4968,3.4968,3.4902,3.4765,3.4731,3.4664,3.4481,3.4448,3.4448,3.438,3.4298,3.4113,3.3213,3.1842,3.0645,2.9972,2.9779,2.9779,2.9779,2.9779,2.9779,2.9779,2.9779,2.9779,2.9779,2.9779,2.9779,2.974,2.9779,2.9779,2.9753,2.9248,2.87,2.853,2.7354,2.6193,2.5986,2.5348,2.4743,5.3518,5.3433,5.2638,5.2232,5.2046,5.0676,4.9661,4.9001,4.8877,4.8071,4.6879,4.6777,4.5983,4.4682,4.4389,4.4281,4.4253,4.4155,4.4432,0.0,4.5018,4.4946,4.4797,4.4783,4.3347,4.0856,4.1214,4.043,3.8755,3.9007,3.9274,3.9191,3.8535,3.7966,3.7642,3.8759,3.9361,3.9313,4.1286,4.2554,4.3055,4.3165,4.3146,4.2981,4.2341,4.1522,4.0347,4.0613,4.0161,3.8647,3.9013,3.8519,3.6903,3.6761,3.6447,3.5848,3.5774,3.5729,3.5669,3.5639,3.5594,3.5519,3.5489,3.5517,3.5591,3.5532,3.5489,3.5489,3.5489,3.5489,3.5504,3.5457,3.5424,3.5457,3.5439,3.5374,3.5195,3.5133,3.5082,3.4916,3.4868,3.4817,3.4698,3.4664,3.4597,3.4448,3.4414,3.4113,3.3178,3.1865,3.0696,2.9998,2.9779,2.9779,2.9779,2.9779,2.9779,2.9779,2.9779,2.9779,2.9779,2.9779,2.9779,2.9779,2.9779,2.9779,2.9779,2.9753,2.93,2.8752,2.8131,2.7758,2.7058,2.6235,2.5432,5.3518,5.3416,5.2638,5.2317,5.2181,5.0727,4.9678,4.9035,4.9018,4.8409,4.7462,4.7394,4.6583,4.5246,4.5093,4.484,4.4468,4.44,4.454,4.4877,4.516,4.5274,4.5181,4.4741,4.3543,4.1791,4.1182,4.0227,3.898,3.9164,3.9315,3.9272,3.898,3.873,3.8576,3.9454,4.0164,4.0587,4.1499,4.1901,4.1789,4.1838,4.1458,4.0716,4.0386,3.9769,3.8824,3.9031,3.878,3.7896,3.78,3.7378,3.6506,3.612,3.5818,3.5519,3.5489,3.5489,3.5489,3.5489,3.5489,3.5489,3.5489,3.5489,3.5489,3.5489,3.5489,3.5489,3.5489,3.5489,3.5489,3.5489,3.5489,3.5489,3.5489,3.5472,3.5392,3.5359,3.5294,3.5115,3.5034,3.5016,3.4817,3.475,3.4664,3.4563,3.4481,3.4079,3.3367,3.2585,3.1696,3.0633,3.0075,2.9818,2.9792,2.9779,2.9779,2.9779,2.9779,2.9779,2.9779,2.9779,2.9779,2.9779,2.9779,2.9779,2.9779,2.9779,2.9585,2.9339,2.8752,2.8343,2.7851,2.7139,2.608,5.323,5.3145,5.2198,5.1708,5.1505,5.0693,4.983,4.9035,4.9018,4.8697,4.8159,4.7973,4.7077,4.5771,4.5703,4.528,4.4666,4.4598,4.4699,4.4891,4.5436,4.5685,4.5576,4.4922,4.4102,4.3006,4.1577,4.0413,3.9651,3.9408,3.9315,3.9315,3.9315,3.9386,3.9638,4.0292,4.0934,4.1545,4.1819,4.1614,4.0911,4.0879,4.0241,3.8964,3.8882,3.8471,3.7698,3.7735,3.7693,3.7399,3.6936,3.6631,3.6616,3.591,3.5554,3.5668,3.5569,3.5489,3.5489,3.5489,3.5489,3.5489,3.5489,3.5489,3.5489,3.5489,3.5489,3.5489,3.5489,3.5489,3.5489,3.5489,3.5489,3.5489,3.5489,3.5504,3.5504,3.5489,3.5439,3.5294,3.5246,3.518,3.5016,3.4883,3.4798,3.4698,3.4563,3.4196,3.3624,3.3332,3.2635,3.1733,3.0822,3.0317,3.0113,3.0075,2.9998,2.9856,2.9779,2.9779,2.9779,2.9779,2.9779,2.9779,2.9779,2.9779,2.9779,2.9779,2.9779,2.9663,2.926,2.8791,2.8462,2.7931,2.6864,5.2401,5.2198,5.093,4.9898,4.956,5.0608,5.0287,4.9086,4.9018,4.8984,4.8815,4.8193,4.7077,4.5821,4.572,4.5331,4.4632,4.4598,4.4925,4.5585,4.6346,4.6579,4.6363,4.6249,4.5471,4.3918,4.235,4.1177,4.0467,3.9711,3.9315,3.9315,3.9315,3.9653,4.0293,4.0966,4.1347,4.1456,4.2706,4.3039,4.2347,4.2298,4.1651,4.026,4.0183,3.9598,3.8298,3.8816,3.8579,3.7546,3.7354,3.731,3.7191,3.6179,3.5765,3.6258,3.5814,3.5489,3.5489,3.5489,3.5489,3.5489,3.5489,3.5489,3.5489,3.5489,3.5489,3.5489,3.5489,3.5489,3.5489,3.5489,3.5489,3.5489,3.5489,3.5489,3.5489,3.5489,3.5472,3.5472,3.5439,3.5407,3.5228,3.5115,3.503,3.475,3.4664,3.4563,3.4216,3.3673,3.3297,3.2897,3.234,3.1599,3.1007,3.0796,3.052,2.9998,2.9792,2.9792,2.9779,2.9779,2.9779,2.9779,2.9779,2.9779,2.9779,2.9779,2.9779,2.9767,2.9611,2.9392,2.8752,2.8426,2.7631,5.1657,5.1589,5.1014,5.0338,4.9864,5.0777,5.0371,4.9052,4.9018,4.9018,4.8968,4.868,4.775,4.6363,4.6346,4.5703,4.4632,4.4598,4.4767,4.5145,4.6244,4.6756,4.6646,4.6195,4.5614,4.4791,4.2892,4.1764,4.127,4.0467,3.981,3.9398,3.973,4.0127,4.0442,4.1061,4.1397,4.1442,4.2406,4.2419,4.1442,4.1674,4.1177,3.9928,3.9746,3.9505,3.9002,3.9175,3.905,3.8551,3.8169,3.7953,3.7937,3.7101,3.6723,3.692,3.6414,3.5893,3.5522,3.5489,3.5489,3.5489,3.5489,3.5489,3.5489,3.5489,3.5489,3.5489,3.5489,3.5489,3.5489,3.5489,3.5489,3.5489,3.5489,3.5489,3.5489,3.5489,3.5489,3.5489,3.5489,3.5472,3.5407,3.5261,3.5082,3.485,3.4765,3.4664,3.4549,3.4182,3.3962,3.3894,3.3638,3.2946,3.1892,3.1143,3.082,3.0482,3.0075,2.9792,2.9818,2.9779,2.9779,2.9779,2.9779,2.9779,2.9779,2.9779,2.9779,2.9754,2.9465,2.9238,2.924,2.8977,2.8334,5.1031,5.1202,5.142,5.0947,5.0168,5.0896,5.0371,4.9103,4.9018,4.9018,4.9018,4.9018,4.8189,4.6921,4.6786,4.5991,4.4733,4.4598,4.4716,4.501,4.621,4.6904,4.7022,4.6583,4.6135,4.5542,4.3732,4.2454,4.1915,4.1314,4.0611,4.018,4.0535,4.0901,4.11,4.1455,4.1538,4.1604,4.2268,4.1936,4.0851,4.1344,4.1,3.9481,3.9315,3.9315,3.9315,3.9315,3.9315,3.9272,3.8662,3.8407,3.8535,3.7838,3.734,3.7101,3.6662,3.6148,3.5522,3.5489,3.5489,3.5489,3.5489,3.5489,3.5489,3.5489,3.5489,3.5489,3.5489,3.5489,3.5489,3.5489,3.5489,3.5489,3.5489,3.5489,3.5489,3.5489,3.5489,3.5489,3.5489,3.5489,3.5457,3.5359,3.5228,3.5016,3.4931,3.4798,3.4731,3.4582,3.4448,3.4481,3.4414,3.3825,3.2662,3.206,3.1549,3.1082,3.0671,3.0165,3.0024,2.9998,2.9779,2.9779,2.9779,2.9779,2.9779,2.9779,2.9779,2.9716,2.9478,2.9289,2.9588,2.9364,2.9122,5.0557,5.1251,5.1944,5.1369,5.0152,5.0862,5.0355,4.9018,4.9018,4.9018,4.9018,4.9018,4.8189,4.687,4.6819,4.5974,4.4733,4.4598,4.4925,4.5568,4.6363,4.7158,4.7834,4.7787,4.7394,4.6519,4.4867,4.3345,4.2026,4.1881,4.1831,4.1737,4.1787,4.2172,4.2546,4.2217,4.1927,4.1933,4.2618,4.2278,4.1124,4.2022,4.151,3.9557,3.9332,3.9348,3.9315,3.9315,3.9315,3.9315,3.8673,3.859,3.905,3.8096,3.7205,3.6646,3.6477,3.6196,3.5668,3.5554,3.5554,3.5537,3.5522,3.5489,3.5489,3.5489,3.5489,3.5489,3.5489,3.5489,3.5489,3.5489,3.5489,3.5489,3.5489,3.5489,3.5489,3.5489,3.5489,3.5489,3.5489,3.5489,3.5489,3.5504,3.5374,3.5228,3.5195,3.5115,3.4949,3.4783,3.4698,3.4631,3.4481,3.4113,3.3332,3.2826,3.2528,3.2132,3.1452,3.0857,3.062,3.0381,3.0101,2.9856,2.996,2.996,2.9856,2.9779,2.9779,2.9741,2.9666,2.9641,2.9741,2.9767,2.9561,5.0253,5.0574,5.1302,5.1014,5.0152,5.0388,4.9932,4.9035,4.9018,4.9018,4.9018,4.9018,4.8443,4.7479,4.6989,4.6003,4.4666,4.4598,4.4739,4.5089,4.5754,4.6498,4.709,4.6735,4.6667,4.6566,4.5223,4.3906,4.2869,4.2723,4.2461,4.2076,4.2384,4.2551,4.2518,4.3444,4.3361,4.2183,4.3042,4.2758,4.1017,4.1264,4.0842,3.968,3.9844,3.9796,3.9315,3.9315,3.9315,3.9315,3.905,3.905,3.9202,3.8887,3.8311,3.7706,3.7618,3.7354,3.6753,3.6321,3.6085,3.6053,3.5701,3.5504,3.5489,3.5489,3.5489,3.5489,3.5489,3.5489,3.5489,3.5489,3.5489,3.5489,3.5489,3.5489,3.5489,3.5489,3.5489,3.5489,3.5489,3.5489,3.5489,3.5489,3.5472,3.5392,3.5279,3.518,3.5115,3.4935,3.4817,3.4731,3.4631,3.4448,3.4079,3.3451,3.3038,3.272,3.2254,3.1819,3.1502,3.1392,3.1182,3.0972,3.0822,3.0457,3.0419,2.9934,2.9895,2.9754,2.9679,2.9654,2.9729,2.9679,2.9602,5.0101,5.0202,5.0896,5.0777,5.0135,5.0101,4.9678,4.9052,4.9018,4.9018,4.9018,4.9001,4.8595,4.7889,4.7378,4.6346,4.4993,4.4733,4.4733,4.4987,4.5466,4.6092,4.6633,4.6278,4.616,4.6227,4.5196,4.4254,4.3732,4.3653,4.3339,4.2869,4.3312,4.3278,4.311,4.4303,4.4085,4.2925,4.3648,4.3295,4.1597,4.1745,4.1315,4.04,4.0604,4.0429,3.9481,3.9379,3.9379,3.9352,3.9325,3.9315,3.9315,3.9315,3.8996,3.8407,3.8278,3.8051,3.7488,3.6951,3.6631,3.6399,3.6022,3.5748,3.5554,3.5489,3.5489,3.5489,3.5489,3.5489,3.5489,3.5489,3.5489,3.5489,3.5489,3.5489,3.5489,3.5489,3.5489,3.5489,3.5489,3.5489,3.5489,3.5489,3.5504,3.5489,3.5359,3.5294,3.5294,3.5115,3.4983,3.4865,3.4831,3.4683,3.4467,3.4079,3.3776,3.35,3.2981,3.2627,3.2412,3.234,3.2196,3.2051,3.1746,3.1304,3.0796,3.0241,2.9947,2.9831,2.9691,2.9641,2.9616,2.9515,2.954,5.0101,5.0202,5.0896,5.0777,5.0152,5.0101,4.9678,4.9069,4.9018,4.9018,4.9018,4.9018,4.8646,4.8041,4.7851,4.7056,4.5805,4.5094,4.5043,4.5483,4.5568,4.6007,4.665,4.6498,4.6143,4.5686,4.4987,4.4598,4.4468,4.4451,4.4418,4.4485,4.4373,4.4406,4.4536,4.4711,4.4373,4.3899,4.439,4.3899,4.2675,4.335,4.2863,4.1281,4.1483,4.1084,3.977,3.9563,3.9484,3.9501,3.9395,3.9315,3.9325,3.9299,3.9023,3.8507,3.8351,3.8051,3.7605,3.7458,3.7131,3.6723,3.6476,3.6196,3.5733,3.5587,3.5554,3.5504,3.5489,3.5489,3.5489,3.5489,3.5489,3.5489,3.5489,3.5489,3.5489,3.5489,3.5489,3.5489,3.5489,3.5489,3.5489,3.5489,3.5489,3.5504,3.5472,3.5457,3.5439,3.5294,3.5228,3.5148,3.5016,3.4883,3.4783,3.4664,3.4515,3.4298,3.3707,3.3241,3.3122,3.3017,3.2875,3.2698,3.2448,3.1988,3.1267,3.0709,3.0254,3.005,2.9871,2.9731,2.9641,2.9628,2.9589,5.0101,5.0185,5.0896,5.0777,5.0135,5.0101,4.9661,4.9035,4.9018,4.9018,4.9018,4.9018,4.8883,4.8578,4.8125,4.7394,4.6464,4.6177,4.5749,4.506,4.4959,4.5348,4.5838,4.5534,4.519,4.497,4.4733,4.4598,4.4598,4.4598,4.4598,4.4598,4.4598,4.4886,4.5297,4.5821,4.594,4.5754,4.5466,4.5077,4.4502,4.3527,4.2588,4.198,4.1606,4.0939,4.0054,3.9755,3.9642,3.9625,3.9599,3.952,3.9432,3.9352,3.9202,3.904,3.8996,3.8942,3.8706,3.8266,3.7937,3.7648,3.7324,3.6784,3.6227,3.6101,3.591,3.5602,3.5489,3.5489,3.5489,3.5489,3.5489,3.5489,3.5489,3.5489,3.5489,3.5489,3.5489,3.5489,3.5489,3.5489,3.5489,3.5489,3.5489,3.5489,3.5489,3.5489,3.5472,3.5424,3.5311,3.5213,3.5115,3.5049,3.4916,3.485,3.475,3.4616,3.4182,3.3825,3.3742,3.3673,3.35,3.3276,3.3017,3.2541,3.1819,3.1244,3.0746,3.0419,3.0279,3.0101,2.9882,2.9805,2.987,4.9864,5.0135,5.0591,5.0524,5.0118,5.0101,4.9678,4.9069,4.9018,4.9018,4.9018,4.9018,4.9018,4.8917,4.8528,4.7902,4.7259,4.7208,4.6413,4.5179,4.4993,4.5145,4.5263,4.484,4.4598,4.4598,4.4598,4.4598,4.4598,4.4598,4.4598,4.4598,4.4598,4.4773,4.5365,4.6278,4.6701,4.643,4.6447,4.6232,4.5602,4.457,4.3555,4.2794,4.2252,4.1525,4.0612,4.0087,3.9833,3.9798,3.9729,3.9651,3.9563,3.9458,3.9379,3.9352,3.9325,3.9288,3.9245,3.8871,3.8535,3.8294,3.7937,3.7324,3.6692,3.6569,3.6445,3.5683,3.5701,3.5733,3.5569,3.5489,3.5489,3.5489,3.5489,3.5489,3.5489,3.5489,3.5489,3.5489,3.5489,3.5489,3.5489,3.5489,3.5489,3.5489,3.5489,3.5489,3.5489,3.5489,3.5392,3.5311,3.5311,3.5213,3.5049,3.4983,3.4935,3.4783,3.4582,3.4332,3.4196,3.4162,3.4045,3.3791,3.3534,3.3087,3.2398,3.1842,3.1341,3.1057,3.0921,3.0959,3.0934,3.0444,3.0368,4.9424,5.0067,5.0101,5.0135,5.0101,5.0101,4.9661,4.9069,4.9018,4.9018,4.9018,4.9018,4.9018,4.9018,4.8917,4.8494,4.7973,4.7939,4.7175,4.6126,4.5805,4.5602,4.4801,4.4632,4.4598,4.4598,4.4598,4.4598,4.4598,4.4598,4.4598,4.4598,4.4598,4.4666,4.5089,4.6155,4.6549,4.638,4.7225,4.7094,4.6143,4.6312,4.5737,4.3826,4.3561,4.2851,4.1576,4.0688,4.0096,3.9926,3.9807,3.9729,3.9677,3.959,3.9528,3.9484,3.9352,3.9325,3.9299,3.9245,3.8996,3.8535,3.8379,3.7851,3.6981,3.7131,3.6996,3.6005,3.6211,3.6227,3.5765,3.5619,3.5587,3.5489,3.5489,3.5489,3.5489,3.5489,3.5489,3.5489,3.5489,3.5489,3.5489,3.5489,3.5489,3.5489,3.5489,3.5489,3.5489,3.5489,3.5489,3.5457,3.5424,3.5359,3.5228,3.5213,3.5148,3.4983,3.4817,3.4683,3.4515,3.4448,3.438,3.4196,3.3977,3.352,3.3122,3.2577,3.2205,3.2037,3.2001,3.216,3.1833,3.1244,3.0833,4.9424,5.0115,5.0101,5.0101,5.0101,5.0101,4.9695,4.9052,4.9018,4.9018,4.9018,4.9018,4.9018,4.9018,4.9001,4.8612,4.8206,4.8443,4.7919,4.6786,4.7124,4.621,4.4919,4.4615,4.4632,4.4649,4.4632,4.4598,4.4598,4.4615,4.4598,4.4598,4.4598,4.4886,4.5483,4.6278,4.7005,4.728,4.7584,4.8037,4.7953,4.7141,4.6549,4.6007,4.5331,4.4299,4.2861,4.1576,4.0629,4.0096,3.991,3.9849,3.9849,3.9703,3.9616,3.9528,3.9475,3.9422,3.9325,3.9299,3.9202,3.9094,3.8969,3.8689,3.7908,3.7937,3.7677,3.7071,3.7071,3.686,3.6305,3.6116,3.5941,3.5587,3.5489,3.5489,3.5489,3.5489,3.5489,3.5489,3.5489,3.5489,3.5489,3.5489,3.5489,3.5489,3.5489,3.5489,3.5489,3.5489,3.5489,3.5489,3.5457,3.5472,3.5439,3.5424,3.5359,3.518,3.5049,3.4964,3.4716,3.4515,3.4448,3.4312,3.4298,3.3962,3.3742,3.3416,3.3192,3.2911,3.2662,3.2519,3.2232,3.1783,3.1452,4.9424,5.0101,5.0101,5.0101,5.0101,5.0101,4.9847,4.9458,4.9137,4.9187,4.934,4.912,4.9018,4.9018,4.9001,4.8798,4.8443,4.8494,4.8037,4.7462,4.7344,4.6498,4.5365,4.506,4.5043,4.501,4.4767,4.4818,4.4942,4.4784,4.4615,4.4598,4.4598,4.4823,4.5162,4.5957,4.6532,4.6938,4.7276,4.78,4.8376,4.775,4.7361,4.7039,4.6278,4.4891,4.3081,4.1796,4.0849,4.0257,4.0037,3.9986,3.9961,3.9833,3.9729,3.9685,3.9616,3.9537,3.9405,3.9379,3.9352,3.9299,3.9315,3.8952,3.849,3.8507,3.8423,3.7501,3.7634,3.728,3.6569,3.6196,3.5878,3.5587,3.5489,3.5489,3.5489,3.5489,3.5489,3.5489,3.5489,3.5489,3.5489,3.5489,3.5489,3.5489,3.5489,3.5489,3.5489,3.5489,3.5489,3.5489,3.5489,3.5472,3.5472,3.5457,3.5457,3.5326,3.5228,3.5129,3.4931,3.4683,3.4616,3.4549,3.4515,3.4448,3.4216,3.4031,3.3928,3.3569,3.3206,3.3066,3.296,3.2591,3.2218,4.939,4.9982,4.9982,4.9982,4.9965,5.005,5.0067,4.9949,4.9593,4.9678,4.9982,4.9441,4.9238,4.912,4.9086,4.8984,4.8934,4.8308,4.8007,4.7716,4.7479,4.6802,4.6177,4.5872,4.5821,4.5703,4.506,4.5128,4.528,4.4908,4.4716,4.475,4.4716,4.4682,4.501,4.5483,4.5669,4.5991,4.6616,4.7175,4.7699,4.7614,4.7513,4.7327,4.6363,4.4823,4.3166,4.1965,4.1221,4.0417,4.0214,4.0087,4.0087,3.9961,3.9926,3.9875,3.9772,3.9668,3.9537,3.9511,3.9458,3.9369,3.9325,3.9077,3.8701,3.8898,3.8788,3.7924,3.8124,3.778,3.6784,3.6022,3.5668,3.5554,3.5489,3.5489,3.5489,3.5489,3.5489,3.5489,3.5489,3.5489,3.5489,3.5489,3.5489,3.5489,3.5489,3.5489,3.5489,3.5489,3.5489,3.5489,3.5489,3.5489,3.5489,3.5489,3.5489,3.5424,3.5326,3.5228,3.5115,3.4949,3.4817,3.475,3.4716,3.4616,3.4448,3.4366,3.4332,3.423,3.3825,3.4011,3.4196,3.3604,3.3122,4.9103,4.9255,4.9238,4.9238,4.934,4.983,5.0084,5.0118,5.0524,5.0608,5.076,5.0168,4.9813,4.9779,4.9306,4.9018,4.8951,4.8359,4.7906,4.7939,4.8426,4.8088,4.7479,4.7005,4.6633,4.6413,4.5821,4.5602,4.5568,4.5229,4.4936,4.5365,4.5055,4.4902,4.5415,4.5618,4.5703,4.5821,4.6397,4.6786,4.6938,4.7039,4.7039,4.6955,4.6177,4.5246,4.4231,4.3352,4.2591,4.1745,4.0823,4.0282,4.024,4.018,4.013,4.0036,3.9951,3.9831,3.9677,3.9668,3.959,3.9484,3.9432,3.9352,3.9148,3.9175,3.9175,3.8914,3.8996,3.8423,3.7324,3.6569,3.6116,3.5797,3.5587,3.5554,3.5489,3.5489,3.5489,3.5489,3.5489,3.5489,3.5489,3.5489,3.5489,3.5489,3.5489,3.5489,3.5489,3.5489,3.5489,3.5489,3.5489,3.5489,3.5489,3.5489,3.5489,3.5489,3.5424,3.5359,3.5261,3.5148,3.5016,3.4902,3.4868,3.475,3.465,3.4616,3.4582,3.4481,3.4414,3.4448,3.438,3.4113,3.3928,4.9018,4.9018,4.9018,4.9018,4.9069,4.9407,4.9779,5.0033,5.0101,5.0574,5.083,5.0084,4.9779,5.005,4.9678,4.9373,4.9086,4.9001,4.8748,4.8798,4.9441,4.9813,4.956,4.8951,4.846,4.7462,4.6566,4.6397,4.6447,4.6041,4.5901,4.6177,4.5799,4.5618,4.5771,4.5991,4.5788,4.5382,4.5906,4.6295,4.6278,4.6278,4.6278,4.6261,4.5872,4.5348,4.4581,4.3809,4.325,4.2658,4.1762,4.1128,4.1128,4.1111,4.0941,4.0585,4.0509,4.0213,3.9967,3.9798,3.9729,3.9633,3.959,3.9511,3.9432,3.9379,3.9369,3.9342,3.9218,3.8887,3.7908,3.7235,3.6692,3.643,3.6085,3.5926,3.5893,3.5683,3.5489,3.5489,3.5489,3.5489,3.5489,3.5489,3.5489,3.5489,3.5489,3.5489,3.5489,3.5489,3.5489,3.5489,3.5489,3.5489,3.5489,3.5489,3.5489,3.5489,3.5457,3.5457,3.5392,3.5279,3.518,3.5115,3.5049,3.4949,3.485,3.4817,3.4783,3.4716,3.4635,3.4582,3.4481,3.4332,3.423,4.9018,4.9018,4.9018,4.9018,4.9018,4.9171,4.9576,4.9949,4.9576,5.0287,5.0813,4.983,4.9881,5.0016,5.0067,4.9627,4.9154,4.9424,4.9255,4.8832,4.9813,5.0371,5.049,5.0355,4.9915,4.8379,4.7631,4.7581,4.7665,4.7276,4.6701,4.687,4.6752,4.6532,4.6295,4.6244,4.6024,4.5213,4.5331,4.5669,4.5771,4.5788,4.5788,4.5771,4.5737,4.5331,4.4682,4.4045,4.3623,4.3538,4.298,4.2692,4.2591,4.2303,4.2083,4.1364,4.1347,4.0974,4.0416,4.0179,4.0094,3.9923,3.9763,3.9752,3.9714,3.9594,3.9475,3.9395,3.9272,3.9023,3.8379,3.7851,3.7501,3.7251,3.6814,3.6538,3.6337,3.5973,3.591,3.5489,3.5489,3.5489,3.5489,3.5489,3.5489,3.5489,3.5489,3.5489,3.5489,3.5489,3.5489,3.5489,3.5489,3.5489,3.5489,3.5489,3.5489,3.5489,3.5489,3.5489,3.5489,3.5424,3.5311,3.5294,3.5228,3.5129,3.5049,3.4983,3.4949,3.4935,3.4835,3.4735,3.465,3.4597,3.4481,4.9018,4.9018,4.9018,4.9018,4.9103,4.9627,4.9898,5.0185,5.0473,5.0914,5.1067,5.0881,5.0338,5.0219,5.0101,4.9373,4.8765,4.9086,4.9018,4.8578,4.934,4.9949,5.0473,5.0693,5.0473,5.0321,4.9373,4.8765,4.8443,4.7564,4.7445,4.7547,4.7208,4.7022,4.7022,4.6599,4.6007,4.5399,4.5179,4.5246,4.5602,4.5788,4.5737,4.572,4.5703,4.5297,4.4784,4.4496,4.4384,4.4412,4.4276,4.4192,4.3853,4.2997,4.2405,4.2151,4.2033,4.1651,4.1101,4.0932,4.0897,4.0701,4.0346,4.0244,4.0306,4.0053,3.975,3.9484,3.9325,3.905,3.8379,3.8238,3.7908,3.7605,3.734,3.7041,3.6723,3.6662,3.6508,3.5926,3.5701,3.5489,3.5489,3.5489,3.5489,3.5489,3.5489,3.5489,3.5489,3.5489,3.5489,3.5489,3.5489,3.5489,3.5489,3.5489,3.5489,3.5489,3.5489,3.5489,3.5489,3.5489,3.5457,3.5392,3.5359,3.5341,3.5261,3.5148,3.5115,3.5049,3.4968,3.4868,3.4835,3.4783,3.4716,4.9018,4.9018,4.9018,4.9018,4.9069,4.9373,4.9526,4.9576,4.9915,5.0287,5.0422,5.0253,5.0118,5.0067,5.0101,4.9627,4.9289,4.934,4.9357,4.9221,4.9796,5.027,5.0676,5.0963,5.1133,5.1065,5.0439,4.9864,4.9543,4.8934,4.8426,4.8342,4.8071,4.797,4.777,4.7246,4.6413,4.5889,4.5399,4.5331,4.5771,4.6024,4.6109,4.5788,4.5669,4.5297,4.4767,4.4598,4.4598,4.4581,4.4581,4.4598,4.4361,4.3961,4.3267,4.2912,4.2557,4.2202,4.1745,4.1508,4.1313,4.1598,4.1278,4.103,4.0901,4.0553,4.0132,3.9716,3.9484,3.9282,3.8996,3.8854,3.8662,3.8439,3.8112,3.7706,3.7472,3.7429,3.6981,3.6461,3.6274,3.599,3.5489,3.5489,3.5489,3.5489,3.5489,3.5489,3.5489,3.5489,3.5489,3.5489,3.5489,3.5489,3.5489,3.5489,3.5489,3.5489,3.5489,3.5489,3.5489,3.5489,3.5489,3.5457,3.5472,3.5439,3.5439,3.5326,3.5261,3.5195,3.5115,3.5082,3.5049,3.4983,3.4916,4.9018,4.9018,4.9018,4.9018,4.9035,4.9171,4.9255,4.9221,4.9289,4.9644,4.9949,4.9576,4.9543,4.9763,4.9847,4.9813,4.9881,4.9813,4.9712,4.9779,5.0185,5.0693,5.1116,5.1454,5.1505,5.1217,5.1067,5.0828,5.0067,4.9627,4.9424,4.9137,4.9052,4.8849,4.8257,4.8058,4.7208,4.6549,4.594,4.5957,4.6278,4.665,4.6667,4.6024,4.5906,4.5534,4.4716,4.4835,4.475,4.4666,4.4598,4.4598,4.4598,4.4598,4.4265,4.3673,4.3064,4.276,4.2405,4.2134,4.2083,4.2429,4.2185,4.176,4.1471,4.1088,4.0682,4.0081,3.9866,3.9687,3.9481,3.9405,3.9299,3.9175,3.8772,3.8407,3.8181,3.801,3.7722,3.731,3.6981,3.6662,3.6321,3.5814,3.5878,3.5733,3.5733,3.5489,3.5489,3.5489,3.5489,3.5489,3.5489,3.5489,3.5489,3.5489,3.5489,3.5489,3.5489,3.5489,3.5489,3.5489,3.5489,3.5489,3.5489,3.5472,3.5489,3.5489,3.5424,3.5326,3.5294,3.5261,3.5261,3.518,3.5115,4.9018,4.9018,4.9018,4.9018,4.9103,4.9627,4.9915,4.9881,4.983,4.9999,4.9999,4.9932,4.9576,4.9306,4.9204,4.9171,4.9187,4.9238,4.9255,4.9323,4.9441,4.9796,5.0168,5.0253,5.0777,5.0879,5.1065,5.0794,5.0101,4.9492,4.9187,4.912,4.9441,4.956,4.8781,4.8548,4.843,4.7631,4.6938,4.6921,4.7432,4.7682,4.7344,4.6802,4.6498,4.5991,4.4987,4.506,4.5145,4.4733,4.4615,4.4598,4.4598,4.4598,4.4598,4.4451,4.4282,4.3995,4.3403,4.3003,4.3014,4.2997,4.2388,4.1863,4.1692,4.1285,4.0819,4.0927,4.0618,4.0247,3.9768,3.9554,3.9501,3.9432,3.9255,3.8827,3.8562,3.8662,3.8411,3.8141,3.778,3.7605,3.737,3.6784,3.629,3.6116,3.591,3.5733,3.5701,3.5846,3.591,3.599,3.6022,3.6022,3.6053,3.5958,3.591,3.5782,3.5683,3.5651,3.5636,3.5668,3.5489,3.5489,3.5504,3.5504,3.5489,3.5489,3.5489,3.5457,3.5392,3.5424,3.5457,3.5407,3.5413,4.9018,4.9018,4.9018,4.9018,4.9052,4.9357,4.9475,4.9475,4.9475,4.9475,4.9475,4.9458,4.9272,4.9035,4.9018,4.9018,4.9018,4.9018,4.9018,4.9018,4.9035,4.9187,4.9526,4.9847,5.0219,5.0067,5.027,5.0118,4.9661,4.9576,4.9475,4.9086,4.9306,4.9323,4.8984,4.8578,4.7953,4.7344,4.6989,4.7175,4.78,4.8189,4.7953,4.6853,4.6786,4.616,4.5483,4.5004,4.5229,4.5004,4.4891,4.4598,4.4598,4.4598,4.4598,4.4598,4.4581,4.4395,4.4079,4.369,4.3707,4.3927,4.3369,4.3031,4.2371,4.1347,4.0602,4.0467,4.0372,4.0176,3.9966,3.9694,3.9642,3.9606,3.9621,3.9428,3.917,3.9218,3.9148,3.8887,3.8623,3.8439,3.8201,3.7732,3.7195,3.6875,3.6753,3.6631,3.6631,3.6784,3.6784,3.6723,3.6753,3.6707,3.6784,3.6784,3.6753,3.6616,3.6241,3.6178,3.5973,3.5878,3.5929,3.5689,3.5549,3.5534,3.5582,3.5489,3.5489,3.5489,3.5489,3.5579,3.5699,3.6043,3.6066,4.9018,4.9018,4.9187,4.9171,4.9069,4.9373,4.9475,4.9289,4.9323,4.9306,4.9221,4.9137,4.9035,4.9018,4.9018,4.9018,4.9018,4.9018,4.9018,4.9018,4.9018,4.9018,4.9204,4.9526,4.9509,4.9018,4.9593,4.9543,4.9407,4.9373,4.939,4.9035,4.9357,4.9204,4.8968,4.8798,4.8376,4.7699,4.7564,4.7665,4.7919,4.8156,4.7564,4.6938,4.6583,4.6363,4.5517,4.5483,4.5585,4.5077,4.4902,4.4598,4.4598,4.4598,4.4598,4.4598,4.4598,4.4581,4.4378,4.413,4.4113,4.4316,4.4299,4.3487,4.2743,4.1467,4.0933,4.1271,4.1176,4.0929,4.0482,4.0337,4.0318,4.0199,4.0005,3.9876,3.978,3.9771,3.9644,3.9335,3.9158,3.9175,3.8925,3.8582,3.8162,3.7725,3.7531,3.7442,3.7442,3.7488,3.737,3.7221,3.7222,3.7222,3.7221,3.731,3.7399,3.7526,3.7122,3.6987,3.7018,3.6872,3.6841,3.6464,3.6092,3.6366,3.6799,3.6135,3.5504,3.5564,3.5639,3.5789,3.5983,3.642,3.6686,4.9018,4.9052,4.9746,4.961,4.9086,5.0507,5.0591,4.983,4.9898,4.9881,4.9712,4.934,4.9018,4.9018,4.9018,4.9018,4.9018,4.9018,4.9018,4.9018,4.9018,4.9018,4.9086,4.9103,4.9137,4.9035,4.9221,4.9154,4.9035,4.912,4.9137,4.9069,4.9407,4.939,4.9255,4.9086,4.9018,4.8545,4.8426,4.8223,4.7953,4.7614,4.6904,4.638,4.638,4.6206,4.4919,4.572,4.5974,4.5139,4.4767,4.4615,4.4598,4.4598,4.4598,4.4598,4.4598,4.4598,4.4496,4.4479,4.453,4.435,4.3995,4.3555,4.3132,4.3189,4.3054,4.2658,4.225,4.225,4.1852,4.1538,4.1223,4.1129,4.0858,4.0611,4.0474,4.023,4.007,3.9768,3.9757,3.9977,4.003,3.978,3.8965,3.8485,3.8084,3.7982,3.7867,3.7838,3.7693,3.7621,3.7626,3.7581,3.7504,3.7762,3.8405,3.8536,3.8305,3.8298,3.8365,3.8169,3.7846,3.7778,3.7608,3.7818,3.7862,3.7248,3.6647,3.5999,3.5896,3.6496,3.6941,3.7464,3.7507,5.0355,5.0405,5.0676,5.0101,4.9035,4.961,4.9695,4.9458,4.9407,4.9424,4.9424,4.9154,4.9018,4.9018,4.9018,4.9018,4.9018,4.9018,4.9018,4.9018,4.9018,4.9018,4.9018,4.9018,4.9018,4.9018,4.9018,4.9018,4.9018,4.9018,4.9018,4.9137,4.9357,4.9238,4.9154,4.8984,4.8883,4.8951,4.8663,4.8325,4.8629,4.8359,4.7817,4.7192,4.7225,4.7259,4.6718,4.6227,4.6092,4.5703,4.5021,4.4716,4.4598,4.4598,4.4598,4.4598,4.4598,4.4598,4.4598,4.4598,4.4598,4.4445,4.391,4.3436,4.3453,4.3098,4.2794,4.2658,4.2861,4.2794,4.2371,4.204,4.1885,4.1987,4.1815,4.1432,4.1288,4.1059,4.0899,4.0728,4.091,4.113,4.1143,4.11,4.0139,3.9216,3.8848,3.8556,3.8492,3.8403,3.8335,3.8484,3.8581,3.8671,3.8622,3.906,3.9581,3.9534,3.9441,3.961,3.97,3.9184,3.8936,3.8966,3.901,3.9074,3.8886,3.8433,3.7979,3.7602,3.7478,3.7688,3.8123,3.8547,3.8552,5.0557,5.0557,5.0557,5.0118,4.9357,4.9323,4.9204,4.9018,4.9035,4.9018,4.9018,4.9018,4.9018,4.9018,4.9018,4.9018,4.9018,4.9018,4.9018,4.9018,4.9018,4.9018,4.9018,4.9018,4.9018,4.9018,4.9018,4.9018,4.9018,4.9018,4.9018,4.9018,4.9018,4.9018,4.89,4.8595,4.8511,4.8714,4.8629,4.8257,4.8697,4.8562,4.8206,4.7631,4.7665,4.7378,4.6955,4.6397,4.6058,4.5652,4.5139,4.4682,4.4598,4.4598,4.4598,4.4598,4.4598,4.4615,4.4598,4.4598,4.4598,4.4513,4.4198,4.3859,4.3606,4.325,4.3335,4.32,4.3125,4.2973,4.2895,4.2861,4.2946,4.3054,4.231,4.1953,4.2136,4.2058,4.193,4.1802,4.189,4.1785,4.1747,4.1648,4.1178,4.0271,3.9759,3.9517,3.9418,3.932,3.9194,3.9441,3.9753,3.988,3.9996,4.0292,4.0533,4.0627,4.0631,4.0994,4.0951,4.0469,4.0353,4.0626,4.0626,4.034,4.0277,4.0293,3.9881,3.9376,3.9296,3.9156,3.9586,4.0016,3.998,4.9187,4.9052,4.9154,4.9509,4.9949,5.0033,4.961,4.9052,4.9018,4.9018,4.9018,4.9018,4.9018,4.9018,4.9018,4.9018,4.9018,4.9018,4.9018,4.9018,4.9018,4.9018,4.9018,4.9018,4.9018,4.9018,4.9018,4.9018,4.9018,4.9018,4.9018,4.9018,4.9018,4.9001,4.8984,4.8984,4.8984,4.8984,4.8917,4.8612,4.8342,4.8274,4.7885,4.7682,4.7851,4.7648,4.7056,4.6684,4.6244,4.5529,4.4987,4.4615,4.4598,4.4598,4.4598,4.4598,4.4666,4.4682,4.4649,4.4632,4.4666,4.4615,4.435,4.435,4.4479,4.4412,4.4242,4.3972,4.4175,4.431,4.4164,4.391,4.3927,4.3741,4.3014,4.2794,4.3037,4.3094,4.2966,4.2905,4.2479,4.2129,4.2135,4.207,4.1916,4.1366,4.0768,4.0475,4.037,4.0227,4.0078,4.0299,4.068,4.0729,4.0845,4.1259,4.1501,4.1595,4.1786,4.21,4.2279,4.2064,4.2064,4.2279,4.204,4.1639,4.2022,4.2456,4.1701,4.0997,4.0782,4.0769,4.1163,4.1366,4.1272,5.0473,5.0422,4.9932,4.9864,5.0016,4.956,4.9204,4.9035,4.9018,4.9018,4.9018,4.9018,4.9018,4.9018,4.9018,4.9018,4.9018,4.9018,4.9018,4.9018,4.9018,4.9018,4.9018,4.9018,4.9018,4.9018,4.9018,4.9018,4.9018,4.9018,4.9018,4.9018,4.9018,4.9018,4.9001,4.9018,4.9001,4.9001,4.8984,4.8866,4.8663,4.8595,4.846,4.8156,4.8443,4.8223,4.7547,4.7208,4.6413,4.5754,4.5292,4.4649,4.4649,4.4649,4.4632,4.4767,4.4908,4.5314,4.5331,4.5297,4.506,4.4818,4.4598,4.4598,4.4598,4.4598,4.4598,4.4598,4.4598,4.4598,4.4445,4.435,4.4378,4.4395,4.4005,4.4005,4.4096,4.4045,4.3995,4.4001,4.377,4.3518,4.3412,4.3132,4.2914,4.2607,4.2038,4.1488,4.1289,4.11,4.0945,4.1177,4.1442,4.1491,4.1657,4.2071,4.2208,4.2224,4.2605,4.3089,4.3234,4.3262,4.3232,4.3129,4.3052,4.3005,4.3133,4.318,4.2996,4.261,4.2223,4.1754,4.1693,4.2046,4.2379,5.0439,5.0405,4.9932,4.9712,4.9644,4.9204,4.9018,4.9018,4.9018,4.9018,4.9018,4.9018,4.9018,4.9018,4.9018,4.9018,4.9018,4.9018,4.9018,4.9018,4.9018,4.9018,4.9018,4.9018,4.9018,4.9018,4.9018,4.9018,4.9018,4.9018,4.9018,4.9018,4.9018,4.9018,4.9018,4.9018,4.9018,4.9018,4.9001,4.9001,4.8934,4.8951,4.8968,4.8917,4.8934,4.8798,4.8325,4.7614,4.6786,4.6397,4.5618,4.4801,4.4835,4.4767,4.4801,4.5043,4.5331,4.5669,4.5652,4.5263,4.497,4.4666,4.4615,4.4598,4.4598,4.4598,4.4598,4.4598,4.4632,4.4598,4.4615,4.4598,4.4598,4.4598,4.4581,4.453,4.453,4.4462,4.4513,4.4615,4.4621,4.4519,4.444,4.4344,4.4035,4.3715,4.3333,4.2763,4.2178,4.1921,4.1808,4.2029,4.2199,4.2253,4.2502,4.2886,4.2969,4.2886,4.3201,4.3598,4.3979,4.4004,4.3982,4.3992,4.3894,4.3836,4.3839,4.38,4.3627,4.3545,4.3402,4.2896,4.2365,4.2634,4.318,4.9035,4.9018,4.9018,4.9035,4.9018,4.9103,4.9086,4.9018,4.9018,4.9018,4.9018,4.9018,4.9018,4.9018,4.9018,4.9018,4.9018,4.9018,4.9018,4.9018,4.9018,4.9018,4.9018,4.9018,4.9018,4.9018,4.9018,4.9018,4.9018,4.9018,4.9018,4.9018,4.9018,4.9018,4.9018,4.9018,4.9018,4.9018,4.9018,4.9018,4.9018,4.9018,4.9018,4.9018,4.8984,4.8748,4.8223,4.7496,4.7073,4.6464,4.5534,4.5348,4.5196,4.4976,4.5213,4.5585,4.5906,4.5991,4.5974,4.5585,4.5224,4.5156,4.4953,4.4767,4.4784,4.4953,4.5072,4.4936,4.4869,4.4716,4.4632,4.4615,4.4598,4.4598,4.4598,4.4598,4.4615,4.4621,4.4705,4.4773,4.479,4.4728,4.4575,4.4542,4.4514,4.4322,4.3951,4.371,4.3127,4.2545,4.2544,4.2832,4.2945,4.3028,4.3297,4.3641,4.3744,4.3645,4.3433,4.3731,4.4191,4.4671,4.4589,4.4572,4.4671,4.4688,4.4655,4.4489,4.4227,4.4224,4.4373,4.3988,4.3416,4.344,4.3858,4.9018,4.9018,4.9018,4.9018,4.9086,4.956,4.9492,4.9035,4.9018,4.9018,4.9018,4.9018,4.9018,4.9018,4.9018,4.9018,4.9018,4.9018,4.9018,4.9018,4.9018,4.9018,4.9018,4.9018,4.9018,4.9018,4.9018,4.9018,4.9018,4.9018,4.9018,4.9018,4.9018,4.9018,4.9018,4.9018,4.9018,4.9018,4.9018,4.9018,4.9018,4.9018,4.9018,4.9018,4.9018,4.8781,4.8511,4.7885,4.7581,4.7327,4.6143,4.5635,4.5568,4.5551,4.5838,4.7107,4.731,4.7263,4.7212,4.7039,4.6599,4.6104,4.6087,4.5788,4.572,4.5686,4.5788,4.5534,4.5348,4.528,4.501,4.4902,4.4936,4.4987,4.4953,4.4869,4.4942,4.5229,4.5297,4.5348,4.5348,4.5026,4.4857,4.457,4.4542,4.457,4.4542,4.4401,4.4153,4.3613,4.3349,4.3655,4.3973,4.4121,4.3996,4.4212,4.4334,4.4357,4.4221,4.4321,4.5017,4.5365,4.5199,4.5199,4.5284,4.5384,4.545,4.5218,4.4903,4.5185,4.5317,4.4903,4.4572,4.4506,4.4638,4.9018,4.9018,4.9018,4.9018,4.9069,4.9475,4.9373,4.9086,4.9289,4.9306,4.9018,4.9018,4.9018,4.9018,4.9018,4.9018,4.9018,4.9018,4.9018,4.9018,4.9018,4.9018,4.9018,4.9018,4.9018,4.9018,4.9018,4.9018,4.9018,4.9018,4.9018,4.9018,4.9018,4.9018,4.9018,4.9018,4.9018,4.9018,4.9018,4.9018,4.9018,4.9018,4.9018,4.9018,4.9018,4.9018,4.8917,4.8308,4.8105,4.8071,4.6921,4.6363,4.6464,4.6667,4.6752,4.7784,4.7787,4.7753,4.7686,4.7428,4.7175,4.7039,4.709,4.7005,4.6735,4.6616,4.6447,4.621,4.6126,4.5974,4.5568,4.5275,4.5393,4.5512,4.5348,4.5213,4.5517,4.5889,4.6007,4.6058,4.5855,4.5483,4.5162,4.4852,4.4767,4.5026,4.5263,4.5353,4.5183,4.4853,4.456,4.4569,4.4988,4.532,4.511,4.4947,4.5196,4.5316,4.5263,4.548,4.602,4.6207,4.6188,4.6043,4.5897,4.6044,4.616,4.5879,4.5632,4.5963,4.6129,4.5765,4.545,4.5334,4.5566,4.89,4.89,4.8917,4.8917,4.9018,4.912,4.912,4.9103,4.9712,4.9661,4.9103,4.9018,4.9018,4.9018,4.9018,4.9018,4.9018,4.9018,4.9018,4.9018,4.9018,4.9018,4.9018,4.9018,4.9018,4.9018,4.9018,4.9018,4.9018,4.9018,4.9018,4.9018,4.9018,4.9018,4.9018,4.9018,4.9018,4.9018,4.9018,4.9018,4.9018,4.9018,4.9018,4.9018,4.9018,4.9001,4.8849,4.8578,4.8291,4.8274,4.7936,4.7293,4.7496,4.7686,4.7804,4.8024,4.8142,4.8189,4.8088,4.7784,4.7462,4.7411,4.7581,4.7817,4.7733,4.7564,4.7344,4.7005,4.687,4.6633,4.6261,4.5974,4.5974,4.6041,4.5991,4.5974,4.6177,4.6549,4.6819,4.6836,4.6667,4.6244,4.5568,4.5246,4.5297,4.5585,4.5855,4.6075,4.6135,4.5946,4.5799,4.5606,4.5958,4.6257,4.6056,4.5975,4.6179,4.631,4.621,4.6533,4.7041,4.7162,4.7213,4.7097,4.6932,4.6821,4.6821,4.6623,4.6606,4.6742,4.6808,4.656,4.6361,4.6245,4.6444,4.8159,4.8159,4.8142,4.8477,4.9052,4.9593,4.9492,4.9086,4.9779,4.9661,4.9103,4.9018,4.9018,4.9018,4.9018,4.9018,4.9018,4.9018,4.9018,4.9018,4.9018,4.9018,4.9018,4.9018,4.9018,4.9018,4.9018,4.9018,4.9018,4.9018,4.9018,4.9018,4.9018,4.9018,4.9018,4.9018,4.9018,4.9018,4.9018,4.9018,4.9018,4.9018,4.9018,4.9018,4.9018,4.9018,4.8917,4.8883,4.8798,4.8765,4.8122,4.7834,4.7855,4.7906,4.8193,4.8595,4.8663,4.8646,4.8578,4.8376,4.8257,4.8325,4.8562,4.8663,4.8663,4.8528,4.8274,4.7868,4.7547,4.7276,4.7022,4.6786,4.6633,4.6684,4.6684,4.6769,4.6853,4.7242,4.7584,4.7547,4.7445,4.687,4.616,4.5889,4.5957,4.6143,4.6413,4.6667,4.6955,4.6929,4.69,4.6819,4.6986,4.716,4.6945,4.6962,4.7167,4.7052,4.6871,4.7393,4.8,4.7937,4.7855,4.8054,4.8054,4.7775,4.7629,4.7764,4.7765,4.7634,4.7503,4.7287,4.7337,4.7304,4.7454,4.7428,4.7462,4.7784,4.8311,4.9018,4.9441,4.9357,4.9137,4.9441,4.939,4.9035,4.9018,4.9018,4.9018,4.9018,4.9018,4.9018,4.9018,4.9018,4.9018,4.9018,4.9018,4.9018,4.9018,4.9018,4.9018,4.9018,4.9018,4.9018,4.9018,4.9018,4.9018,4.9018,4.9018,4.9018,4.9018,4.9018,4.9018,4.9018,4.9018,4.9018,4.9018,4.9018,4.9018,4.9018,4.9018,4.9018,4.9018,4.9001,4.8968,4.8562,4.846,4.846,4.8477,4.8612,4.8849,4.8968,4.9018,4.9018,4.9018,4.9018,4.9018,4.9001,4.89,4.89,4.8765,4.8748,4.8409,4.8392,4.8156,4.7953,4.7716,4.7767,4.7817,4.7614,4.7513,4.78,4.8189,4.8376,4.8359,4.8088,4.7547,4.6921,4.6515,4.6633,4.7039,4.7276,4.753,4.7767,4.78,4.7834,4.7855,4.795,4.8088,4.8054,4.804,4.8127,4.7928,4.7581,4.8001,4.8457,4.8446,4.8467,4.8465,4.8465,4.8368,4.8306,4.8324,4.8324,4.8125,4.8079,4.8015,4.8115,4.8132,4.8149,4.6718,4.6887,4.7496,4.8173,4.8849,4.8984,4.9018,4.9018,4.9018,4.9035,4.9018,4.9018,4.9018,4.9018,4.9018,4.9018,4.9018,4.9018,4.9018,4.9018,4.9018,4.9018,4.9018,4.9018,4.9018,4.9018,4.9018,4.9018,4.9018,4.9018,4.9018,4.9018,4.9018,4.9018,4.9018,4.9018,4.9018,4.9018,4.9018,4.9018,4.9018,4.9018,4.9018,4.9018,4.9018,4.9018,4.9018,4.9018,4.9018,4.8984,4.8934,4.8883,4.8866,4.8832,4.8883,4.9018,4.9018,4.9018,4.9018,4.9018,4.9018,4.9018,4.9018,4.9018,4.9018,4.9001,4.8984,4.8968,4.8951,4.8866,4.8663,4.8578,4.8646,4.8663,4.8376,4.8159,4.8578,4.8917,4.8917,4.8934,4.8578,4.8071,4.7648,4.7225,4.7445,4.7821,4.8173,4.8494,4.8663,4.8528,4.846,4.8494,4.8534,4.8734,4.8835,4.8771,4.8689,4.8655,4.8357,4.8692,4.8863,4.8753,4.8673,4.8642,4.861,4.861,4.8595,4.8564,4.8515,4.8517,4.8673,4.8659,4.8476,4.851,4.8513,4.6261,4.6819,4.6955,4.7445,4.8125,4.8748,4.9018,4.9018,4.9018,4.9018,4.9018,4.9018,4.9018,4.9018,4.9018,4.9018,4.9018,4.9018,4.9018,4.9018,4.9018,4.9018,4.9018,4.9018,4.9018,4.9018,4.9018,4.9018,4.9018,4.9018,4.9018,4.9018,4.9018,4.9018,4.9018,4.9018,4.9018,4.9018,4.9018,4.9018,4.9018,4.9018,4.9018,4.9018,4.9018,4.9018,4.9018,4.9018,4.9018,4.9018,4.9018,4.9018,4.9018,4.9018,4.9018,4.9018,4.9018,4.9018,4.9018,4.9018,4.9018,4.9018,4.9018,4.9018,4.9018,4.9001,4.9001,4.9001,4.8984,4.8984,4.8849,4.8849,4.89,4.89,4.8731,4.8714,4.89,4.8968,4.8984,4.8984,4.8866,4.8426,4.799,4.7885,4.8122,4.8396,4.8511,4.8798,4.8883,4.8951,4.9018,4.9018,4.9018,4.9001,4.8968,4.8951,4.8903,4.8984,4.9018,4.8987,4.8956,4.897,4.8909,4.8798,4.8815,4.8846,4.8815,4.8721,4.8759,4.8845,4.9236,4.9289,4.9055,4.9056,4.9242]}]]